[[{"header":{"parameterUnit":"m.s-1","parameterCategory":1,"la1":31.0,"la2":29.5877,"lo1":-88.7671,"lo2":-86.6584,"dy":0.0162,"dx":0.0185,"nx":115,"ny":88,"refTime":"2023-09-11T06:00:00:Z","depth":0,"parameterNumber":2,"parameterNumberName":"U-component_of_WINDS"},"data":[0.0,0.0,0.0,0.0,0.0,0.0,0.0,0.0,0.0,0.0,0.0,0.0,0.0,0.0,0.0,0.0,0.0,0.0,0.0,0.0,0.0,0.0,0.0,0.0,0.0,0.0,0.0,0.0,0.0,0.0,0.0,0.0,0.0,0.0,0.0,0.0,0.0,0.0,0.0,0.0,0.0,0.0,0.0,0.0,0.0,0.0,0.0,0.0,0.0,0.0,0.0,0.0,0.0,0.0,0.0,0.0,0.0,0.0,0.0,0.0,0.0,0.0,0.0,0.0,0.0,0.0,0.0,0.0,0.0,0.0,0.0,0.0,0.0,0.0,0.0,0.0,0.0,0.0,0.0,0.0,0.0,0.0,0.0,0.0,0.0,0.0,0.0,0.0,0.0,0.0,0.0,0.0,0.0,0.0,0.0,0.0,0.0,0.0,0.0,0.0,0.0,0.0,0.0,0.0,0.0,0.0,0.0,0.0,0.0,0.0,0.0,0.0,0.0,0.0,0.0,0.0,0.0,0.0,0.0,0.0,0.0,0.0,0.0,0.0,0.0,0.0,0.0,0.0,0.0,0.0,0.0,0.0,0.0,0.0,0.0,0.0,0.0,0.0,0.0,0.0,0.0,0.0,0.0,0.0,0.0,0.0,0.0,0.0,0.0,0.0,0.0,0.0,0.0,0.0,0.0,0.0,0.0,0.0,0.0,0.0,0.0,0.0,0.0,0.0,0.0,0.0,0.0,0.0,0.0,0.0,0.0,0.0,0.0,0.0,0.0,0.0,0.0,0.0,0.0,0.0,0.0,0.0,0.0,0.0,0.0,0.0,0.0,0.0,0.0,0.0,0.0,0.0,0.0,0.0,0.0,0.0,0.0,0.0,0.0,0.0,0.0,0.0,0.0,0.0,0.0,0.0,0.0,0.0,0.0,0.0,0.0,0.0,0.0,0.0,0.0,0.0,0.0,0.0,0.0,0.0,0.0,0.0,0.0,0.0,0.0,0.0,0.0,0.0,0.0,0.0,0.0,0.0,0.0,0.0,0.0,0.0,0.0,0.0,0.0,0.0,0.0,0.0,0.0,0.0,0.0,0.0,0.0,0.0,0.0,0.0,0.0,0.0,0.0,0.0,0.0,0.0,0.0,0.0,0.0,0.0,0.0,0.0,0.0,0.0,0.0,0.0,0.0,0.0,0.0,0.0,0.0,0.0,0.0,0.0,0.0,0.0,0.0,0.0,0.0,0.0,0.0,0.0,0.0,0.0,0.0,0.0,0.0,0.0,0.0,0.0,0.0,0.0,0.0,0.0,0.0,0.0,0.0,0.0,0.0,0.0,0.0,0.0,0.0,0.0,0.0,0.0,0.0,0.0,0.0,0.0,0.0,0.0,0.0,0.0,0.0,0.0,0.0,0.0,0.0,0.0,0.0,0.0,0.0,0.0,0.0,0.0,0.0,0.0,0.0,0.0,0.0,0.0,0.0,0.0,0.0,0.0,0.0,0.0,0.0,0.0,0.0,0.0,0.0,0.0,0.0,0.0,0.0,0.0,0.0,0.0,0.0,0.0,0.0,0.0,0.0,0.0,0.0,0.0,0.0,0.0,0.0,0.0,0.0,0.0,0.0,0.0,0.0,0.0,0.0,0.0,0.0,0.0,0.0,0.0,0.0,0.0,0.0,0.0,0.0,0.0,0.0,0.0,0.0,0.0,0.0,0.0,0.0,0.0,0.0,0.0,0.0,0.0,0.0,0.0,0.0,0.0,0.0,0.0,0.0,0.0,0.0,0.0,0.0,0.0,0.0,0.0,0.0,0.0,0.0,0.0,0.0,0.0,0.0,0.0,0.0,0.0,0.0,0.0,0.0,0.0,0.0,0.0,0.0,0.0,0.0,0.0,0.0,0.0,0.0,0.0,0.0,0.0,0.0,0.0,0.0,0.0,0.0,0.0,0.0,0.0,0.0,0.0,0.0,0.0,0.0,0.0,0.0,0.0,0.0,0.0,0.0,0.0,0.0,0.0,0.0,0.0,0.0,0.0,0.0,0.0,0.0,0.0,0.0,0.0,0.0,0.0,0.0,0.0,0.0,0.0,0.0,0.0,0.0,0.0,0.0,0.0,0.0,0.0,0.0,0.0,0.0,0.0,0.0,0.0,0.0,0.0,0.0,0.0,0.0,0.0,0.0,0.0,0.0,0.0,0.0,0.0,0.0,0.0,0.0,0.0,0.0,0.0,0.0,0.0,0.0,0.0,0.0,0.0,0.0,0.0,0.0,0.0,0.0,0.0,0.0,0.0,0.0,0.0,0.0,0.0,0.0,0.0,0.0,0.0,0.0,0.0,0.0,0.0,0.0,0.0,0.0,0.0,0.0,0.0,0.0,0.0,0.0,0.0,0.0,0.0,0.0,0.0,0.0,0.0,0.0,0.0,0.0,0.0,0.0,0.0,0.0,0.0,0.0,0.0,0.0,0.0,0.0,0.0,0.0,0.0,0.0,0.0,0.0,0.0,0.0,0.0,0.0,0.0,0.0,0.0,0.0,0.0,0.0,0.0,0.0,0.0,0.0,0.0,0.0,0.0,0.0,0.0,0.0,0.0,0.0,0.0,0.0,0.0,0.0,0.0,0.0,0.0,0.0,0.0,0.0,0.0,0.0,0.0,0.0,0.0,0.0,0.0,0.0,0.0,0.0,0.0,0.0,0.0,0.0,0.0,0.0,0.0,0.0,0.0,0.0,0.0,0.0,0.0,0.0,0.0,0.0,0.0,0.0,0.0,0.0,0.0,0.0,0.0,0.0,0.0,0.0,0.0,0.0,0.0,0.0,0.0,0.0,0.0,0.0,0.0,0.0,0.0,0.0,0.0,0.0,0.0,0.0,0.0,0.0,0.0,0.0,0.0,0.0,0.0,0.0,0.0,0.0,0.0,0.0,0.0,0.0,0.0,0.0,0.0,0.0,0.0,0.0,0.0,0.0,0.0,0.0,0.0,0.0,0.0,0.0,0.0,0.0,0.0,0.0,0.0,0.0,0.0,0.0,0.0,0.0,0.0,0.0,0.0,0.0,0.0,0.0,0.0,0.0,0.0,0.0,0.0,0.0,0.0,0.0,0.0,0.0,0.0,0.0,0.0,0.0,0.0,0.0,0.0,0.0,0.0,0.0,0.0,0.0,0.0,0.0,0.0,0.0,0.0,0.0,0.0,0.0,0.0,0.0,0.0,0.0,0.0,0.0,0.0,0.0,0.0,0.0,0.0,0.0,0.0,0.0,0.0,0.0,0.0,0.0,0.0,0.0,0.0,0.0,0.0,0.0,0.0,0.0,0.0,0.0,0.0,0.0,0.0,0.0,0.0,0.0,0.0,0.0,0.0,0.0,0.0,0.0,0.0,0.0,0.0,0.0,0.0,0.0,0.0,0.0,0.0,0.0,0.0,0.0,0.0,0.0,0.0,0.0,0.0,0.0,0.0,0.0,0.0,0.0,0.0,0.0,0.0,0.0,0.0,0.0,0.0,0.0,0.0,0.0,0.0,0.0,0.0,0.0,0.0,0.0,0.0,0.0,0.0,0.0,0.0,0.0,0.0,0.0,0.0,0.0,0.0,0.0,0.0,0.0,0.0,0.0,0.0,0.0,0.0,0.0,0.0,0.0,0.0,0.0,0.0,0.0,0.0,0.0,0.0,0.0,0.0,0.0,0.0,0.0,0.0,0.0,0.0,0.0,0.0,0.0,0.0,0.0,0.0,0.0,0.0,0.0,0.0,0.0,0.0,0.0,0.0,0.0,0.0,0.0,0.0,0.0,0.0,0.0,0.0,0.0,0.0,0.0,0.0,0.0,0.0,0.0,0.0,0.0,0.0,0.0,0.0,0.0,0.0,0.0,0.0,0.0,0.0,0.0,0.0,0.0,0.0,0.0,0.0,0.0,0.0,0.0,0.0,0.0,0.0,0.0,0.0,0.0,0.0,0.0,0.0,0.0,0.0,0.0,0.0,0.0,0.0,0.0,0.0,0.0,0.0,0.0,0.0,0.0,0.0,0.0,0.0,0.0,0.0,0.0,0.0,0.0,0.0,0.0,0.0,0.0,0.0,0.0,0.0,0.0,0.0,0.0,0.0,0.0,0.0,0.0,0.0,0.0,0.0,0.0,0.0,0.0,0.0,0.0,0.0,0.0,0.0,0.0,0.0,0.0,0.0,0.0,0.0,0.0,0.0,0.0,0.0,0.0,0.0,0.0,0.0,0.0,0.0,0.0,0.0,0.0,0.0,0.0,0.0,0.0,0.0,0.0,0.0,2.3566,0.0,0.0,0.0,0.0,0.0,0.0,0.0,0.0,0.0,0.0,0.0,0.0,0.0,0.0,0.0,0.0,0.0,0.0,0.0,0.0,0.0,0.0,0.0,0.0,0.0,0.0,0.0,0.0,0.0,0.0,0.0,0.0,0.0,0.0,0.0,0.0,0.0,0.0,0.0,0.0,0.0,0.0,0.0,0.0,0.0,0.0,0.0,0.0,0.0,0.0,0.0,0.0,0.0,0.0,0.0,0.0,0.0,0.0,0.0,0.0,0.0,0.0,0.0,0.0,0.0,0.0,0.0,0.0,0.0,0.0,0.0,0.0,0.0,0.0,0.0,0.0,0.0,0.0,0.0,0.0,0.0,0.0,0.0,0.0,0.0,0.0,0.0,0.0,0.0,0.0,0.0,0.0,0.0,0.0,0.0,0.0,0.0,0.0,0.0,0.0,0.0,0.0,0.0,0.0,0.0,0.0,0.0,0.0,0.0,0.0,2.7875,2.7629,2.655,2.5593,2.476,0.0,0.0,0.0,0.0,0.0,0.0,0.0,0.0,0.0,0.0,0.0,0.0,0.0,0.0,0.0,0.0,0.0,0.0,0.0,0.0,0.0,0.0,0.0,0.0,0.0,0.0,0.0,0.0,0.0,0.0,0.0,0.0,0.0,0.0,0.0,0.0,0.0,0.0,0.0,0.0,0.0,0.0,0.0,0.0,0.0,0.0,0.0,0.0,0.0,0.0,0.0,0.0,0.0,0.0,0.0,0.0,0.0,0.0,0.0,0.0,0.0,0.0,0.0,0.0,0.0,0.0,0.0,0.0,0.0,0.0,0.0,0.0,0.0,0.0,0.0,0.0,0.0,0.0,0.0,0.0,0.0,0.0,0.0,0.0,0.0,0.0,0.0,0.0,0.0,0.0,0.0,0.0,0.0,0.0,0.0,0.0,0.0,0.0,0.0,0.0,0.0,0.0,0.0,0.0,0.0,0.0,0.0,0.0,0.0,0.0,0.0,0.0,2.7159,2.6233,2.5047,0.0,0.0,0.0,0.0,0.0,0.0,0.0,0.0,0.0,0.0,0.0,0.0,0.0,0.0,0.0,0.0,0.0,0.0,0.0,0.0,0.0,0.0,0.0,0.0,0.0,0.0,0.0,0.0,0.0,0.0,0.0,0.0,0.0,0.0,0.0,0.0,0.0,0.0,0.0,0.0,0.0,0.0,0.0,0.0,0.0,0.0,0.0,0.0,0.0,0.0,0.0,0.0,0.0,0.0,0.0,0.0,0.0,0.0,0.0,0.0,0.0,0.0,0.0,0.0,0.0,0.0,0.0,0.0,0.0,0.0,0.0,0.0,0.0,0.0,0.0,0.0,0.0,0.0,0.0,0.0,0.0,0.0,0.0,0.0,0.0,0.0,0.0,0.0,0.0,0.0,0.0,0.0,0.0,0.0,0.0,0.0,0.0,0.0,0.0,0.0,0.0,0.0,0.0,0.0,0.0,0.0,0.0,0.0,0.0,0.0,2.7617,2.763,2.6988,0.0,2.3412,0.0,0.0,0.0,0.0,0.0,0.0,0.0,0.0,0.0,0.0,0.0,0.0,0.0,0.0,0.0,0.0,0.0,0.0,0.0,0.0,0.0,0.0,0.0,0.0,0.0,0.0,0.0,0.0,0.0,0.0,0.0,0.0,0.0,0.0,0.0,0.0,0.0,0.0,0.0,0.0,0.0,0.0,0.0,0.0,0.0,0.0,0.0,0.0,0.0,0.0,0.0,0.0,0.0,0.0,0.0,0.0,0.0,0.0,0.0,0.0,0.0,0.0,0.0,0.0,0.0,0.0,0.0,0.0,0.0,0.0,0.0,0.0,0.0,0.0,0.0,0.0,0.0,0.0,0.0,0.0,0.0,0.0,0.0,0.0,0.0,0.0,0.0,0.0,0.0,0.0,0.0,0.0,0.0,0.0,0.0,0.0,0.0,0.0,0.0,0.0,0.0,0.0,0.0,0.0,0.0,0.0,0.0,0.0,0.0,0.0,2.7421,2.7483,2.726,2.6214,0.0,0.0,0.0,0.0,0.0,0.0,0.0,0.0,0.0,0.0,0.0,0.0,0.0,0.0,0.0,0.0,0.0,0.0,0.0,0.0,0.0,0.0,0.0,0.0,0.0,0.0,0.0,0.0,0.0,0.0,0.0,0.0,0.0,0.0,0.0,0.0,0.0,0.0,0.0,0.0,0.0,0.0,0.0,0.0,0.0,0.0,0.0,0.0,0.0,0.0,0.0,0.0,0.0,0.0,0.0,0.0,0.0,0.0,0.0,0.0,0.0,0.0,0.0,0.0,0.0,0.0,0.0,0.0,0.0,0.0,0.0,0.0,0.0,0.0,0.0,0.0,0.0,0.0,0.0,0.0,0.0,0.0,0.0,0.0,0.0,0.0,0.0,0.0,0.0,0.0,0.0,0.0,0.0,0.0,0.0,0.0,0.0,0.0,0.0,0.0,0.0,0.0,0.0,0.0,0.0,0.0,0.0,0.0,0.0,0.0,2.7178,2.733,2.7393,2.7421,2.6692,2.512,0.0,0.0,0.0,0.0,0.0,0.0,0.0,0.0,0.0,0.0,0.0,0.0,0.0,0.0,0.0,0.0,0.0,0.0,0.0,0.0,0.0,0.0,0.0,0.0,0.0,0.0,0.0,0.0,0.0,0.0,0.0,0.0,0.0,0.0,0.0,0.0,0.0,0.0,0.0,0.0,0.0,0.0,0.0,0.0,0.0,0.0,0.0,0.0,0.0,0.0,0.0,0.0,0.0,0.0,0.0,0.0,0.0,0.0,0.0,0.0,0.0,0.0,0.0,0.0,0.0,0.0,0.0,0.0,0.0,0.0,0.0,0.0,0.0,0.0,0.0,0.0,0.0,0.0,0.0,0.0,0.0,0.0,0.0,0.0,0.0,0.0,0.0,0.0,0.0,0.0,0.0,0.0,0.0,0.0,0.0,0.0,0.0,0.0,0.0,0.0,0.0,0.0,0.0,0.0,0.0,0.0,0.0,0.0,2.623,2.6902,2.7299,2.7299,2.7313,2.6575,0.0,0.0,0.0,0.0,0.0,0.0,0.0,0.0,0.0,0.0,0.0,0.0,0.0,0.0,0.0,0.0,0.0,0.0,0.0,0.0,0.0,0.0,0.0,0.0,0.0,0.0,0.0,0.0,0.0,0.0,0.0,0.0,0.0,0.0,0.0,0.0,0.0,0.0,0.0,0.0,0.0,0.0,0.0,0.0,0.0,0.0,0.0,0.0,0.0,0.0,0.0,0.0,0.0,0.0,0.0,0.0,0.0,0.0,0.0,0.0,0.0,0.0,0.0,0.0,0.0,0.0,0.0,0.0,0.0,0.0,0.0,0.0,0.0,0.0,0.0,0.0,0.0,0.0,0.0,0.0,0.0,0.0,0.0,0.0,0.0,0.0,0.0,0.0,0.0,0.0,0.0,0.0,0.0,0.0,0.0,0.0,0.0,0.0,0.0,0.0,0.0,0.0,0.0,0.0,0.0,0.0,0.0,0.0,0.0,2.6161,2.6885,2.7299,2.7282,2.6799,2.6057,0.0,0.0,0.0,0.0,0.0,0.0,0.0,0.0,0.0,0.0,0.0,0.0,0.0,0.0,0.0,0.0,0.0,0.0,0.0,0.0,0.0,0.0,0.0,0.0,0.0,0.0,0.0,0.0,0.0,0.0,0.0,0.0,0.0,0.0,0.0,0.0,0.0,0.0,0.0,0.0,0.0,0.0,0.0,0.0,0.0,0.0,0.0,0.0,0.0,0.0,0.0,0.0,0.0,0.0,0.0,0.0,0.0,0.0,0.0,0.0,0.0,0.0,0.0,0.0,0.0,0.0,0.0,0.0,0.0,0.0,0.0,0.0,0.0,0.0,0.0,0.0,0.0,0.0,0.0,0.0,0.0,0.0,0.0,0.0,0.0,0.0,0.0,0.0,0.0,0.0,0.0,0.0,0.0,0.0,0.0,0.0,0.0,0.0,0.0,0.0,0.0,0.0,0.0,0.0,0.0,0.0,0.0,0.0,0.0,2.6488,0.0,2.7299,2.7282,2.6764,2.604,0.0,0.0,0.0,0.0,0.0,0.0,0.0,0.0,0.0,0.0,0.0,0.0,0.0,0.0,0.0,0.0,0.0,0.0,0.0,0.0,0.0,0.0,0.0,0.0,0.0,0.0,0.0,0.0,0.0,0.0,0.0,0.0,0.0,0.0,0.0,0.0,0.0,0.0,0.0,0.0,0.0,0.0,0.0,0.0,0.0,0.0,0.0,0.0,0.0,0.0,0.0,0.0,0.0,0.0,0.0,0.0,0.0,0.0,0.0,0.0,0.0,0.0,0.0,0.0,0.0,0.0,0.0,0.0,0.0,0.0,0.0,0.0,0.0,0.0,0.0,0.0,0.0,0.0,0.0,0.0,0.0,0.0,0.0,0.0,0.0,0.0,0.0,0.0,0.0,0.0,0.0,0.0,0.0,0.0,0.0,0.0,0.0,0.0,0.0,0.0,0.0,0.0,0.0,0.0,0.0,0.0,0.0,0.0,2.6488,2.7247,2.7282,2.7299,2.7299,2.723,2.654,0.0,0.0,0.0,0.0,0.0,0.0,0.0,0.0,0.0,0.0,0.0,0.0,0.0,0.0,0.0,0.0,0.0,0.0,0.0,0.0,0.0,0.0,0.0,0.0,0.0,0.0,0.0,0.0,0.0,0.0,0.0,0.0,0.0,0.0,0.0,0.0,0.0,0.0,0.0,0.0,0.0,0.0,0.0,0.0,0.0,0.0,0.0,0.0,0.0,0.0,0.0,0.0,0.0,0.0,0.0,0.0,0.0,0.0,0.0,0.0,0.0,0.0,0.0,0.0,0.0,0.0,0.0,0.0,0.0,0.0,0.0,0.0,0.0,0.0,0.0,0.0,0.0,0.0,0.0,0.0,0.0,0.0,0.0,0.0,0.0,0.0,0.0,0.0,0.0,0.0,0.0,0.0,0.0,0.0,0.0,0.0,0.0,0.0,0.0,0.0,0.0,0.0,0.0,0.0,0.0,0.0,0.0,0.0,0.0,2.7264,2.7299,2.7299,2.7282,2.6764,2.6006,0.0,0.0,0.0,0.0,0.0,0.0,0.0,0.0,0.0,0.0,0.0,0.0,0.0,0.0,0.0,0.0,0.0,0.0,0.0,0.0,0.0,0.0,0.0,0.0,0.0,0.0,0.0,0.0,0.0,0.0,0.0,0.0,0.0,0.0,0.0,0.0,0.0,0.0,0.0,0.0,0.0,0.0,0.0,0.0,0.0,0.0,0.0,0.0,0.0,0.0,0.0,0.0,0.0,0.0,0.0,0.0,0.0,0.0,0.0,0.0,0.0,0.0,0.0,0.0,0.0,0.0,0.0,0.0,0.0,0.0,0.0,0.0,0.0,0.0,0.0,0.0,0.0,0.0,0.0,0.0,0.0,0.0,0.0,0.0,0.0,0.0,0.0,0.0,0.0,0.0,0.0,0.0,0.0,0.0,0.0,0.0,0.0,0.0,0.0,0.0,0.0,0.0,0.0,0.0,0.0,0.0,0.0,0.0,0.0,2.7264,2.7299,2.7299,2.7299,2.6816,2.6195,2.5436,0.0,0.0,0.0,0.0,0.0,0.0,0.0,0.0,0.0,0.0,0.0,0.0,0.0,0.0,0.0,0.0,0.0,0.0,0.0,0.0,0.0,0.0,0.0,0.0,0.0,0.0,0.0,0.0,0.0,0.0,0.0,0.0,0.0,0.0,0.0,0.0,0.0,0.0,0.0,0.0,0.0,0.0,0.0,0.0,0.0,0.0,0.0,0.0,0.0,0.0,0.0,0.0,0.0,0.0,0.0,0.0,0.0,0.0,0.0,0.0,0.0,0.0,0.0,0.0,0.0,0.0,0.0,0.0,0.0,0.0,0.0,0.0,0.0,0.0,0.0,0.0,0.0,0.0,0.0,0.0,0.0,0.0,0.0,0.0,0.0,0.0,0.0,0.0,0.0,0.0,0.0,0.0,0.0,0.0,0.0,0.0,0.0,0.0,0.0,0.0,0.0,0.0,0.0,0.0,0.0,0.0,0.0,0.0,2.7282,2.7299,2.7299,2.7299,2.7282,2.6919,0.0,0.0,0.0,0.0,0.0,0.0,0.0,0.0,0.0,0.0,0.0,0.0,0.0,0.0,0.0,0.0,0.0,0.0,0.0,0.0,0.0,0.0,0.0,0.0,0.0,0.0,0.0,0.0,0.0,0.0,0.0,0.0,0.0,0.0,0.0,0.0,0.0,0.0,0.0,0.0,0.0,0.0,0.0,0.0,0.0,0.0,0.0,0.0,0.0,0.0,0.0,0.0,0.0,0.0,0.0,0.0,0.0,0.0,0.0,0.0,0.0,0.0,0.0,0.0,0.0,0.0,0.0,0.0,0.0,0.0,0.0,0.0,0.0,0.0,0.0,0.0,0.0,0.0,0.0,0.0,0.0,0.0,0.0,0.0,0.0,0.0,0.0,0.0,0.0,0.0,0.0,0.0,0.0,0.0,0.0,0.0,0.0,0.0,0.0,0.0,0.0,0.0,0.0,0.0,0.0,0.0,0.0,0.0,0.0,2.7299,2.7299,2.7299,2.7299,2.7299,2.6919,0.0,0.0,0.0,0.0,0.0,0.0,0.0,0.0,0.0,0.0,0.0,0.0,0.0,0.0,0.0,0.0,0.0,0.0,0.0,0.0,0.0,0.0,0.0,0.0,0.0,0.0,0.0,0.0,0.0,0.0,0.0,0.0,0.0,0.0,0.0,0.0,0.0,0.0,0.0,0.0,0.0,0.0,0.0,0.0,0.0,0.0,0.0,0.0,0.0,0.0,0.0,0.0,0.0,0.0,0.0,0.0,0.0,0.0,0.0,0.0,0.0,0.0,0.0,0.0,0.0,0.0,0.0,0.0,0.0,0.0,0.0,0.0,0.0,0.0,0.0,0.0,0.0,0.0,0.0,0.0,0.0,0.0,0.0,0.0,0.0,0.0,0.0,0.0,0.0,0.0,0.0,0.0,0.0,0.0,0.0,0.0,0.0,0.0,0.0,0.0,0.0,0.0,0.0,0.0,0.0,0.0,0.0,0.0,2.823,2.823,2.823,2.8075,2.7764,2.7454,2.7092,0.0,0.0,0.0,0.0,0.0,0.0,0.0,0.0,0.0,0.0,0.0,0.0,0.0,0.0,0.0,0.0,0.0,0.0,0.0,0.0,0.0,0.0,0.0,0.0,0.0,0.0,0.0,0.0,0.0,0.0,0.0,0.0,0.0,0.0,0.0,0.0,0.0,0.0,0.0,0.0,0.0,0.0,0.0,0.0,0.0,0.0,0.0,0.0,0.0,0.0,0.0,0.0,0.0,0.0,0.0,0.0,0.0,0.0,0.0,0.0,0.0,0.0,0.0,0.0,0.0,0.0,0.0,0.0,0.0,0.0,0.0,0.0,0.0,0.0,0.0,0.0,0.0,0.0,0.0,0.0,0.0,0.0,0.0,0.0,0.0,0.0,0.0,0.0,0.0,0.0,0.0,0.0,0.0,0.0,0.0,0.0,0.0,0.0,0.0,0.0,0.0,0.0,0.0,0.0,0.0,0.0,0.0,0.0,2.9506,2.9506,2.9506,2.9196,2.8523,2.7799,2.7368,0.0,0.0,0.0,0.0,0.0,0.0,0.0,0.0,0.0,0.0,0.0,0.0,0.0,0.0,0.0,0.0,0.0,0.0,0.0,0.0,0.0,0.0,0.0,0.0,0.0,0.0,0.0,0.0,0.0,0.0,0.0,0.0,0.0,0.0,0.0,0.0,0.0,0.0,0.0,0.0,0.0,0.0,0.0,0.0,0.0,0.0,0.0,0.0,0.0,0.0,0.0,0.0,0.0,0.0,0.0,0.0,0.0,0.0,0.0,0.0,0.0,0.0,0.0,0.0,0.0,0.0,0.0,0.0,0.0,0.0,0.0,0.0,0.0,0.0,0.0,0.0,0.0,0.0,0.0,0.0,0.0,0.0,0.0,0.0,0.0,0.0,0.0,0.0,0.0,0.0,0.0,0.0,0.0,0.0,0.0,0.0,0.0,0.0,0.0,0.0,0.0,0.0,0.0,0.0,0.0,0.0,0.0,0.0,2.9506,2.9506,2.9506,2.9437,2.9265,2.8558,2.7902,0.0,0.0,0.0,0.0,0.0,0.0,0.0,0.0,0.0,0.0,0.0,0.0,0.0,0.0,0.0,0.0,0.0,0.0,0.0,0.0,0.0,0.0,0.0,0.0,0.0,0.0,0.0,0.0,0.0,0.0,0.0,0.0,0.0,0.0,0.0,0.0,0.0,0.0,0.0,0.0,0.0,0.0,0.0,0.0,0.0,0.0,0.0,0.0,1.9262,0.0,0.0,0.0,0.0,0.0,0.0,0.0,0.0,0.0,0.0,0.0,0.0,0.0,0.0,0.0,0.0,0.0,0.0,0.0,0.0,0.0,0.0,0.0,0.0,0.0,0.0,0.0,0.0,0.0,0.0,0.0,0.0,0.0,0.0,0.0,0.0,0.0,0.0,0.0,0.0,0.0,0.0,0.0,0.0,0.0,0.0,0.0,0.0,0.0,0.0,0.0,0.0,0.0,0.0,0.0,0.0,0.0,0.0,0.0,3.0575,3.0575,3.0593,3.042,3.0075,2.9679,2.911,0.0,0.0,0.0,0.0,0.0,0.0,0.0,0.0,0.0,0.0,0.0,0.0,0.0,0.0,0.0,0.0,0.0,0.0,0.0,0.0,0.0,0.0,0.0,0.0,0.0,0.0,0.0,0.0,0.0,0.0,0.0,0.0,0.0,0.0,0.0,0.0,0.0,0.0,0.0,0.0,0.0,0.0,0.0,0.0,0.0,0.0,0.0,0.0,0.0,0.0,0.0,0.0,0.0,0.0,0.0,0.0,0.0,0.0,0.0,0.0,0.0,0.0,0.0,0.0,0.0,0.0,0.0,0.0,0.0,0.0,0.0,0.0,0.0,0.0,0.0,0.0,0.0,0.0,0.0,0.0,0.0,0.0,0.0,0.0,0.0,0.0,0.0,0.0,0.0,0.0,0.0,0.0,0.0,0.0,0.0,0.0,0.0,0.0,0.0,0.0,0.0,0.0,0.0,0.0,0.0,0.0,0.0,3.1024,3.18,3.18,3.18,3.1489,3.0886,3.0869,3.0541,2.9868,0.0,0.0,0.0,0.0,0.0,0.0,0.0,0.0,0.0,0.0,0.0,0.0,0.0,0.0,0.0,0.0,0.0,0.0,0.0,0.0,0.0,0.0,0.0,0.0,0.0,0.0,0.0,0.0,0.0,0.0,0.0,0.0,0.0,0.0,0.0,0.0,0.0,0.0,2.0799,2.1384,0.0,0.0,0.0,0.0,0.0,0.0,0.0,0.0,2.1553,0.0,0.0,0.0,0.0,0.0,0.0,0.0,0.0,0.0,0.0,0.0,0.0,0.0,0.0,0.0,0.0,0.0,0.0,0.0,0.0,0.0,0.0,0.0,0.0,0.0,0.0,0.0,0.0,0.0,0.0,0.0,0.0,0.0,0.0,0.0,0.0,0.0,0.0,0.0,0.0,0.0,0.0,0.0,0.0,0.0,0.0,0.0,0.0,0.0,0.0,0.0,0.0,0.0,0.0,0.0,0.0,2.9523,3.1007,3.18,3.18,3.18,3.1731,3.1627,3.161,3.1558,3.1351,0.0,0.0,0.0,0.0,0.0,0.0,0.0,0.0,0.0,0.0,0.0,0.0,0.0,0.0,0.0,0.0,0.0,0.0,0.0,0.0,0.0,0.0,0.0,0.0,0.0,0.0,0.0,0.0,0.0,0.0,0.0,0.0,0.0,0.0,0.0,0.0,0.0,0.0,0.0,2.1921,2.2264,0.0,0.0,0.0,0.0,0.0,0.0,0.0,0.0,2.2418,0.0,0.0,0.0,0.0,0.0,0.0,0.0,0.0,0.0,0.0,0.0,0.0,0.0,0.0,0.0,0.0,0.0,0.0,0.0,0.0,0.0,0.0,0.0,0.0,0.0,0.0,0.0,0.0,0.0,0.0,0.0,0.0,0.0,0.0,0.0,0.0,0.0,0.0,0.0,0.0,0.0,0.0,0.0,0.0,0.0,0.0,0.0,0.0,0.0,0.0,0.0,0.0,0.0,0.0,0.0,2.9592,3.1007,3.18,3.18,3.18,3.1763,3.1709,3.1709,3.1688,0.0,0.0,0.0,0.0,0.0,0.0,0.0,0.0,0.0,0.0,0.0,0.0,0.0,0.0,0.0,0.0,0.0,0.0,0.0,0.0,0.0,0.0,0.0,0.0,0.0,0.0,0.0,0.0,0.0,0.0,0.0,0.0,0.0,0.0,0.0,0.0,0.0,0.0,0.0,0.0,2.2541,2.2876,2.2808,0.0,0.0,0.0,0.0,0.0,0.0,2.3175,2.3248,0.0,0.0,0.0,0.0,0.0,0.0,0.0,0.0,0.0,0.0,0.0,0.0,0.0,0.0,0.0,0.0,0.0,0.0,0.0,0.0,0.0,0.0,0.0,0.0,0.0,0.0,0.0,0.0,0.0,0.0,0.0,0.0,0.0,0.0,0.0,0.0,0.0,0.0,0.0,0.0,0.0,0.0,0.0,0.0,0.0,0.0,0.0,0.0,0.0,0.0,0.0,0.0,0.0,0.0,0.0,2.9558,3.0971,3.1763,3.1746,3.1763,3.1688,3.1596,3.1596,3.1559,0.0,0.0,0.0,0.0,0.0,0.0,0.0,0.0,0.0,0.0,0.0,0.0,0.0,0.0,0.0,0.0,0.0,0.0,0.0,0.0,0.0,0.0,0.0,0.0,0.0,0.0,0.0,0.0,0.0,0.0,0.0,0.0,0.0,0.0,0.0,0.0,0.0,0.0,0.0,0.0,0.0,2.3462,2.3481,2.2876,0.0,0.0,0.0,0.0,2.3711,2.4083,0.0,0.0,0.0,0.0,0.0,0.0,0.0,0.0,0.0,0.0,0.0,0.0,0.0,0.0,0.0,0.0,0.0,0.0,0.0,0.0,0.0,0.0,0.0,0.0,0.0,0.0,0.0,0.0,0.0,0.0,0.0,0.0,0.0,0.0,0.0,0.0,0.0,0.0,0.0,0.0,0.0,0.0,0.0,0.0,0.0,0.0,0.0,0.0,0.0,0.0,0.0,0.0,0.0,0.0,0.0,0.0,2.9575,3.0898,3.1617,3.1617,3.1593,3.1517,3.1517,3.1517,3.15,0.0,0.0,0.0,0.0,0.0,0.0,0.0,0.0,0.0,0.0,0.0,0.0,0.0,0.0,0.0,0.0,0.0,0.0,0.0,0.0,0.0,0.0,0.0,0.0,0.0,0.0,0.0,0.0,0.0,0.0,0.0,0.0,0.0,0.0,0.0,0.0,0.0,0.0,0.0,0.0,0.0,2.4037,2.3872,2.3861,2.3623,0.0,0.0,2.3696,2.3907,2.4815,0.0,0.0,0.0,0.0,0.0,0.0,0.0,0.0,0.0,0.0,0.0,0.0,0.0,0.0,0.0,0.0,0.0,0.0,0.0,0.0,0.0,0.0,0.0,0.0,0.0,0.0,0.0,0.0,0.0,0.0,0.0,0.0,0.0,0.0,0.0,0.0,0.0,0.0,0.0,0.0,0.0,0.0,0.0,0.0,0.0,0.0,0.0,0.0,0.0,0.0,0.0,0.0,0.0,0.0,0.0,2.9316,2.9368,3.0788,3.1538,3.1521,3.1517,3.1462,3.1389,3.1346,3.1269,0.0,0.0,0.0,0.0,0.0,0.0,0.0,0.0,0.0,0.0,0.0,0.0,0.0,0.0,0.0,0.0,0.0,0.0,0.0,0.0,0.0,0.0,0.0,0.0,0.0,0.0,0.0,0.0,0.0,0.0,0.0,0.0,0.0,0.0,0.0,0.0,0.0,0.0,0.0,0.0,0.0,0.0,2.4507,2.4214,0.0,0.0,0.0,2.4312,2.4406,0.0,0.0,0.0,0.0,0.0,0.0,0.0,0.0,0.0,0.0,0.0,0.0,0.0,0.0,0.0,0.0,0.0,0.0,0.0,0.0,0.0,0.0,0.0,0.0,0.0,0.0,0.0,0.0,0.0,0.0,0.0,0.0,0.0,0.0,0.0,0.0,0.0,0.0,0.0,0.0,0.0,0.0,0.0,0.0,0.0,0.0,0.0,0.0,0.0,0.0,0.0,0.0,0.0,0.0,0.0,0.0,0.0,2.9245,3.0677,3.1445,3.1445,3.144,3.1385,3.1274,3.1213,0.0,0.0,0.0,0.0,0.0,0.0,0.0,0.0,0.0,0.0,0.0,0.0,0.0,0.0,0.0,0.0,0.0,0.0,0.0,0.0,0.0,0.0,0.0,0.0,0.0,0.0,0.0,2.2755,0.0,0.0,0.0,0.0,0.0,0.0,0.0,0.0,0.0,0.0,0.0,0.0,0.0,0.0,2.4982,2.4966,2.4523,2.4365,0.0,0.0,2.4686,2.4742,2.5155,2.5273,0.0,0.0,0.0,0.0,0.0,0.0,0.0,0.0,0.0,0.0,0.0,0.0,0.0,0.0,0.0,0.0,0.0,0.0,0.0,0.0,0.0,0.0,0.0,0.0,0.0,0.0,0.0,0.0,0.0,0.0,0.0,0.0,0.0,0.0,0.0,0.0,0.0,0.0,0.0,0.0,0.0,0.0,0.0,0.0,0.0,0.0,0.0,0.0,0.0,0.0,0.0,0.0,0.0,0.0,2.9211,2.9262,3.0605,3.1295,3.1312,3.1269,3.123,3.123,3.119,3.1151,0.0,0.0,0.0,0.0,0.0,0.0,0.0,0.0,0.0,0.0,0.0,0.0,0.0,0.0,0.0,0.0,0.0,0.0,0.0,0.0,0.0,0.0,0.0,0.0,0.0,0.0,0.0,0.0,0.0,0.0,0.0,0.0,0.0,0.0,0.0,0.0,0.0,0.0,0.0,0.0,0.0,2.4966,2.4822,2.4895,2.4863,0.0,2.4726,2.4726,2.463,2.5098,2.5304,2.4606,0.0,0.0,0.0,0.0,0.0,0.0,0.0,0.0,0.0,0.0,0.0,0.0,0.0,0.0,0.0,0.0,0.0,0.0,0.0,0.0,0.0,0.0,0.0,0.0,0.0,0.0,0.0,0.0,0.0,0.0,0.0,0.0,0.0,0.0,0.0,0.0,0.0,0.0,0.0,0.0,0.0,0.0,0.0,0.0,0.0,0.0,0.0,0.0,0.0,0.0,0.0,0.0,0.0,2.9066,2.9083,3.0506,3.1252,3.1235,3.123,3.119,3.119,3.1112,3.1032,0.0,0.0,0.0,0.0,0.0,0.0,0.0,0.0,0.0,0.0,0.0,0.0,0.0,0.0,0.0,0.0,0.0,0.0,0.0,0.0,0.0,0.0,0.0,0.0,0.0,0.0,0.0,0.0,2.3967,2.388,2.3288,0.0,0.0,0.0,0.0,0.0,0.0,0.0,0.0,0.0,0.0,2.4822,2.4686,2.471,0.0,0.0,2.4963,2.5046,2.4585,2.5014,2.513,2.4467,2.4533,0.0,0.0,0.0,0.0,0.0,0.0,0.0,0.0,0.0,0.0,0.0,0.0,0.0,0.0,0.0,0.0,0.0,0.0,0.0,0.0,0.0,0.0,0.0,0.0,0.0,0.0,0.0,0.0,0.0,0.0,0.0,0.0,0.0,0.0,0.0,0.0,0.0,0.0,0.0,0.0,0.0,0.0,0.0,0.0,0.0,0.0,0.0,0.0,0.0,0.0,0.0,0.0,2.8921,2.8938,3.0446,3.1151,3.0958,3.1015,3.0918,3.0797,3.0838,3.0814,0.0,0.0,0.0,0.0,0.0,0.0,0.0,0.0,0.0,0.0,0.0,0.0,0.0,0.0,0.0,0.0,0.0,0.0,0.0,0.0,0.0,0.0,0.0,0.0,0.0,0.0,0.0,0.0,2.4259,2.3861,2.3036,0.0,0.0,0.0,0.0,0.0,0.0,0.0,0.0,0.0,0.0,2.4686,2.4605,2.4589,2.4574,2.4508,2.4885,2.504,2.4519,2.476,2.4856,2.4379,0.0,0.0,0.0,0.0,0.0,0.0,0.0,0.0,0.0,0.0,0.0,0.0,0.0,0.0,0.0,0.0,0.0,0.0,0.0,0.0,0.0,0.0,0.0,0.0,0.0,0.0,0.0,2.4923,0.0,0.0,2.5897,0.0,0.0,0.0,0.0,0.0,0.0,0.0,0.0,0.0,0.0,0.0,0.0,0.0,0.0,0.0,0.0,0.0,0.0,0.0,0.0,0.0,0.0,2.8827,2.8844,3.0408,3.0958,3.0576,3.0518,3.0351,2.9881,3.0267,3.0435,3.0276,0.0,0.0,0.0,0.0,0.0,0.0,0.0,0.0,0.0,0.0,0.0,0.0,0.0,0.0,0.0,0.0,0.0,0.0,0.0,0.0,0.0,0.0,0.0,0.0,0.0,0.0,2.4127,2.3961,2.3638,0.0,0.0,0.0,0.0,0.0,0.0,0.0,0.0,0.0,0.0,2.4701,2.458,2.4529,2.458,2.4585,2.4405,2.4462,2.4488,2.4364,2.4364,2.4317,0.0,0.0,0.0,0.0,0.0,0.0,0.0,0.0,0.0,0.0,0.0,0.0,0.0,0.0,0.0,0.0,0.0,0.0,0.0,0.0,0.0,0.0,0.0,0.0,0.0,0.0,0.0,2.8115,2.7858,0.0,0.0,0.0,0.0,0.0,0.0,0.0,0.0,0.0,0.0,0.0,2.9263,2.9157,0.0,0.0,0.0,0.0,0.0,0.0,0.0,0.0,0.0,0.0,0.0,0.0,2.9046,2.9568,3.0644,3.1112,3.0975,3.0975,3.0757,3.0251,3.0435,3.0037,2.9054,0.0,0.0,0.0,0.0,0.0,0.0,0.0,0.0,0.0,0.0,0.0,0.0,0.0,0.0,0.0,0.0,0.0,0.0,0.0,0.0,0.0,0.0,0.0,0.0,0.0,2.4223,0.0,0.0,0.0,0.0,0.0,0.0,0.0,0.0,0.0,0.0,0.0,2.5347,2.5264,2.561,2.5846,2.5775,2.579,2.5775,0.0,0.0,0.0,0.0,0.0,0.0,0.0,0.0,0.0,0.0,0.0,0.0,0.0,0.0,2.4702,2.3794,2.3271,2.2963,2.2963,0.0,0.0,0.0,0.0,0.0,0.0,0.0,0.0,0.0,0.0,0.0,0.0,0.0,0.0,2.9315,0.0,2.8784,0.0,0.0,0.0,0.0,0.0,0.0,0.0,0.0,2.9841,2.996,2.9907,2.9904,2.9847,0.0,2.9773,2.9753,0.0,0.0,0.0,0.0,0.0,0.0,0.0,0.0,2.9264,2.9671,3.0684,3.0975,3.0493,3.0617,3.041,2.9777,2.9924,2.9654,2.8914,2.9011,2.8646,0.0,0.0,0.0,0.0,0.0,0.0,0.0,0.0,0.0,0.0,0.0,0.0,0.0,0.0,0.0,0.0,0.0,0.0,0.0,0.0,0.0,0.0,0.0,2.4439,0.0,0.0,0.0,0.0,0.0,0.0,0.0,0.0,0.0,2.4523,2.5347,2.5979,2.5861,2.6145,2.6454,2.638,0.0,0.0,0.0,0.0,0.0,0.0,0.0,2.6472,2.6703,2.6749,2.6888,2.7319,2.7396,2.7165,2.6503,0.0,0.0,2.5164,2.4671,2.4364,2.4379,2.4364,2.4379,2.4364,2.4718,2.5164,0.0,0.0,0.0,0.0,0.0,0.0,0.0,0.0,2.9204,2.9238,0.0,2.9187,0.0,0.0,0.0,0.0,2.9096,2.9813,0.0,0.0,3.1066,3.1389,3.1278,3.1261,3.1274,3.1173,3.1157,3.1173,3.114,2.9786,0.0,0.0,0.0,0.0,0.0,0.0,2.9473,2.9256,3.0503,3.0535,2.9303,2.9617,2.9364,2.8493,2.8873,2.9303,2.9705,2.9496,2.9102,2.8419,2.812,0.0,0.0,0.0,0.0,0.0,0.0,0.0,0.0,0.0,0.0,0.0,0.0,0.0,0.0,0.0,0.0,0.0,0.0,0.0,0.0,2.4648,0.0,0.0,0.0,0.0,0.0,0.0,0.0,0.0,0.0,0.0,2.5866,2.6231,2.653,2.6576,0.0,0.0,0.0,0.0,2.6534,2.6565,2.6534,2.6534,2.6503,2.6534,2.678,2.7411,0.0,0.0,2.7519,2.7534,2.7396,2.6657,2.6657,2.6503,2.6503,2.6364,2.6287,2.6243,2.6272,2.6395,2.635,2.6259,2.6351,3.1901,0.0,0.0,0.0,0.0,3.0345,3.0624,3.0683,3.0666,3.0683,3.0632,3.0122,0.0,0.0,0.0,0.0,0.0,0.0,3.04,3.0908,3.1184,3.1269,3.1213,3.1213,3.123,3.119,3.119,3.1461,3.1935,3.1546,3.0723,2.952,0.0,0.0,0.0,0.0,2.9882,3.0423,3.064,3.0658,3.0601,3.0054,2.9528,2.8904,2.87,2.8668,2.8811,2.9044,2.8995,2.8545,2.83,0.0,0.0,0.0,0.0,0.0,0.0,0.0,0.0,0.0,0.0,0.0,0.0,0.0,0.0,0.0,0.0,0.0,0.0,0.0,2.454,2.4641,2.4523,0.0,0.0,0.0,0.0,0.0,0.0,0.0,0.0,0.0,2.7643,2.7319,2.7319,0.0,0.0,2.8704,2.9196,2.9273,2.9273,2.9273,2.9258,0.0,2.9258,2.9258,2.9319,2.952,2.9935,3.0104,2.9627,2.992,3.0027,2.9366,2.9273,2.9273,2.915,2.7642,2.6352,2.594,2.6443,2.6918,2.6542,2.6778,2.716,3.3271,3.1444,3.1884,3.1816,3.1461,3.1884,3.2093,3.2156,3.2116,3.2116,3.21,3.1642,3.1433,3.1393,3.0937,0.0,0.0,0.0,3.1647,3.207,3.207,3.207,3.207,3.207,3.207,3.207,3.207,3.229,3.2713,3.2705,3.2085,3.0883,0.0,0.0,3.0667,3.065,3.0754,3.0959,3.0975,3.0991,3.0859,3.0044,2.9374,2.8842,2.8525,2.8411,2.8411,2.8653,2.8748,2.8525,2.8389,2.8091,0.0,0.0,0.0,0.0,0.0,0.0,0.0,0.0,0.0,0.0,0.0,2.1894,2.2165,0.0,0.0,0.0,2.3755,2.4351,2.4695,2.4895,0.0,0.0,0.0,0.0,0.0,0.0,0.0,2.7211,2.8446,2.9231,2.9181,2.8842,2.875,2.915,2.9566,2.9966,3.0366,0.0,3.0376,3.0376,3.0376,3.0376,3.0376,3.0376,3.0505,3.0766,3.1336,3.1428,3.0616,3.0815,3.0691,2.9931,2.9627,2.9574,2.9342,2.8136,2.7255,2.7126,2.764,2.8026,2.7643,2.8126,2.8546,3.4438,3.3761,3.3761,3.3677,3.3508,3.3558,3.3575,3.3575,3.3525,3.3491,3.3491,3.3423,3.3389,3.3389,3.3389,0.0,3.3389,3.3389,3.3372,3.3389,3.3389,3.3389,3.3389,3.3389,3.3389,3.3389,3.3474,3.3525,3.3592,3.3609,3.3322,3.2875,3.3223,3.3062,3.2364,3.2348,3.1931,3.1045,3.1566,3.1356,3.0397,2.975,2.9169,2.8519,2.8427,2.8411,2.8411,2.8411,2.8411,2.8411,2.8411,2.8119,2.7503,0.0,0.0,0.0,0.0,0.0,0.0,0.0,0.0,0.0,0.0,0.0,0.0,0.0,0.0,0.0,2.4262,0.0,2.4745,2.5368,0.0,0.0,0.0,2.6653,2.6653,2.7781,2.8565,2.8565,0.0,0.0,3.0489,3.0551,3.0582,3.0582,3.0535,3.052,3.0582,3.0628,3.0582,3.0658,3.0612,3.0582,3.072,3.0689,3.0874,3.1382,3.1997,3.1885,3.0885,3.0653,3.0104,2.9085,2.8669,2.8569,2.7949,2.834,2.8768,2.9167,2.9357,2.9342,2.9188,2.9619,2.99,3.7499,3.6823,3.684,3.5842,3.4303,3.4861,3.5098,3.5047,3.4472,3.4235,3.4201,3.366,3.3389,3.3389,3.3389,3.3389,3.3389,3.3389,3.3389,3.3389,3.3389,3.3389,3.3389,3.3389,3.3389,3.344,3.3981,3.4539,3.5115,3.5707,3.6173,3.6555,3.6269,3.4835,3.2475,3.2724,3.268,3.2194,3.1992,3.1389,3.0464,3.012,2.9684,2.9166,2.8658,2.8411,2.8411,2.8411,2.8411,2.8411,2.8411,2.8334,2.8165,2.7519,0.0,0.0,0.0,0.0,0.0,0.0,0.0,0.0,0.0,2.2446,2.3126,0.0,2.3983,0.0,2.4729,2.5346,2.5929,2.6114,0.0,0.0,2.7226,2.7966,2.7966,2.9119,2.9935,2.9935,3.0674,3.1166,3.1166,3.1613,3.1921,3.1921,3.1474,3.1336,3.1828,3.1921,3.1921,3.1905,3.1905,3.1921,3.1921,3.1921,3.1982,3.2121,3.2305,3.2099,3.1384,3.1255,3.0951,3.0207,3.0015,2.9941,2.9763,2.9568,2.9298,2.9451,2.9478,2.9319,2.884,2.9256,2.954,3.8565,3.7939,3.8261,3.7652,3.6502,3.6603,3.6637,3.6603,3.6197,3.6011,3.5977,3.5588,3.5402,3.5419,3.5402,3.5402,3.5419,3.5419,3.5402,3.5402,3.5419,3.5402,3.5402,3.5402,3.5419,3.5419,3.5825,3.6231,3.6591,3.6807,3.6951,3.7153,3.6765,3.5654,3.379,3.3958,3.3859,3.3457,3.2898,3.2132,3.1223,3.0853,3.0425,2.9858,2.9212,2.8858,2.8858,2.855,2.8411,2.8411,2.8411,2.8411,2.8396,2.7765,2.7226,0.0,0.0,0.0,0.0,0.0,0.0,0.0,0.0,0.0,0.0,0.0,2.5241,2.5241,2.5549,2.5933,2.6349,2.6919,2.7257,2.7257,2.8473,2.9304,2.9304,3.0228,3.0843,3.0859,3.1428,3.1828,3.1844,3.2413,3.2844,3.2859,3.2798,3.2659,3.2428,3.2398,3.249,3.2782,3.2844,3.2854,3.2871,3.2816,3.2758,3.2435,3.2317,3.2139,3.1535,3.1427,3.118,3.0567,3.0453,3.0453,3.0467,3.0197,2.9868,2.9614,2.9512,2.9378,2.9069,2.945,2.978,3.8903,3.8396,3.8903,3.9123,3.9073,3.8447,3.8193,3.8176,3.8091,3.799,3.7922,3.7922,3.7922,3.7922,3.7922,3.7922,3.7922,3.7922,3.7922,3.7922,3.7922,3.7922,3.7922,3.7922,3.7922,3.7922,3.799,3.7993,3.7896,3.7486,3.6992,3.6465,3.6341,3.6014,3.56,3.5471,3.5196,3.4577,3.3809,3.3091,3.2348,3.1725,3.1105,3.0551,2.9889,2.9489,2.9412,2.8842,2.8488,2.8411,2.8411,2.8411,2.8396,2.7857,2.7488,0.0,2.6842,0.0,0.0,0.0,0.0,0.0,0.0,0.0,0.0,2.6364,2.6457,2.6611,2.6611,2.6672,2.6888,2.7965,2.8673,2.8704,2.9781,3.0551,3.0566,3.1197,3.1643,3.1643,3.2244,3.2659,3.2705,3.3183,3.3537,3.3567,3.3967,3.3906,3.2967,3.2752,3.2967,3.3475,3.3537,3.3548,3.3367,3.3365,3.3104,3.2494,3.2309,3.2091,3.1434,3.1331,3.1093,3.0556,3.0378,3.0405,3.0405,3.0364,3.0188,2.9686,2.963,2.957,2.9358,2.96,3.0025,4.0696,4.0544,4.0054,3.9868,3.9851,3.9732,3.9665,3.9614,3.9039,3.8464,3.7922,3.7922,3.7922,3.7922,3.7922,3.7922,3.7922,3.7922,3.7922,3.7922,3.7922,3.7922,3.7922,3.7922,3.7922,3.7956,3.8514,3.8571,3.8068,3.8562,3.8525,3.789,3.7396,3.7123,3.6963,0.0,0.0,0.0,3.4166,3.3475,3.3166,3.2114,3.1458,3.1197,3.0566,0.0,2.9443,2.9289,2.8965,2.8442,2.8411,0.0,0.0,0.0,0.0,0.0,0.0,0.0,0.0,0.0,0.0,0.0,2.7888,2.7426,2.6472,2.638,2.6842,2.7904,2.8011,2.8473,2.955,2.9874,2.9992,3.0074,3.0735,3.1213,3.1243,3.2275,3.3013,3.3029,3.3644,3.406,3.4029,3.4214,3.4275,3.4275,3.4398,3.4368,3.4137,3.4044,3.4106,3.4245,3.4291,3.4071,3.3486,3.3423,3.3111,3.2538,3.2269,3.2055,3.1523,3.131,3.1096,3.0583,3.0405,3.0432,3.0432,3.0405,3.0363,3.0023,2.9982,2.9659,2.8777,2.8597,2.8675,4.1137,4.1083,4.0695,4.0375,0.0,4.0087,4.0087,4.0054,3.9681,3.9326,3.8971,3.8988,3.8971,3.8971,3.8971,3.8988,3.8988,3.8988,3.8988,3.8971,3.8971,3.8971,3.8988,3.8971,3.8971,3.9005,3.9076,3.892,3.8659,3.8411,3.8124,3.7838,3.7222,3.6952,3.6952,3.6662,3.6273,3.5796,3.5007,3.4508,3.4275,3.3144,3.2437,3.2351,3.1413,0.0,0.0,0.0,0.0,0.0,0.0,0.0,0.0,2.8411,0.0,2.7934,2.7904,2.7904,2.7888,2.7904,2.8196,2.8858,2.9212,2.8981,2.795,2.7873,2.8304,2.9289,2.9396,2.9673,3.0335,3.0705,3.0889,3.0951,3.1797,3.2382,3.2475,3.329,3.3921,3.3952,3.4229,3.446,3.4491,3.4783,3.4968,3.4999,3.526,3.5445,3.5399,3.4876,3.4568,3.4922,3.4958,3.4678,3.4016,3.3485,3.3077,3.2436,3.2246,3.2123,3.1792,3.1723,3.1667,3.1344,3.1287,3.1273,3.1287,3.1287,3.1192,3.0767,3.0616,3.0194,2.9241,2.904,2.9053,4.116,4.0966,4.0956,4.0626,4.007,4.0087,4.007,4.0087,0.0,0.0,0.0,4.0087,4.0087,4.0087,4.0087,4.0087,4.0087,4.0087,4.0087,4.0087,4.0087,4.0087,4.0087,4.0087,4.002,3.9901,3.9435,3.9098,3.8865,3.7854,3.7358,3.7194,3.6739,3.6492,3.6492,3.6492,3.6445,3.6346,3.5838,3.5481,3.5294,3.4224,3.3537,3.3398,3.2321,3.1628,3.1382,3.0351,2.9704,2.9581,2.9058,2.875,2.8765,2.8658,2.8627,2.875,2.8658,2.8642,2.875,2.875,2.8996,2.9566,3.0104,3.0181,2.9627,2.9597,2.9874,3.0535,3.0597,3.0643,3.0766,3.1366,3.1736,3.1751,3.2859,3.3583,3.3629,3.4214,3.466,3.466,3.4783,3.4829,3.4906,3.5337,3.566,3.5722,3.6061,3.6492,3.6368,3.5568,3.5122,3.5599,3.5488,3.513,3.4418,3.3696,3.296,3.2349,3.2173,3.2169,3.2169,3.2169,3.2169,3.2074,3.2169,3.2128,3.2155,3.2087,3.2006,3.1473,3.1236,3.0873,3.0206,2.9989,2.991,4.1435,4.0828,4.0855,4.0469,3.9952,3.9935,4.0003,4.0087,4.0087,4.0087,4.0087,4.0087,4.0087,4.0087,4.0087,4.0087,4.0087,4.0087,4.0087,4.0087,4.0087,4.0087,4.0087,4.0087,3.9816,3.9365,3.9259,3.8645,3.7754,3.746,3.7118,3.6662,3.6554,3.6492,3.6492,3.6492,3.6507,3.6446,3.595,3.561,3.5442,3.4837,3.4129,3.3429,3.3213,3.2552,3.1428,3.1197,3.0843,3.0304,3.0197,3.0135,3.012,2.9581,2.9535,3.0058,2.9597,2.952,3.0089,3.0151,3.0181,3.0274,3.0381,3.033,3.0289,3.0289,3.0551,3.1166,3.1289,3.149,3.2059,3.2705,3.3075,3.3136,3.3829,3.4306,3.4321,3.4937,3.5353,3.5353,3.5861,3.6153,3.6107,3.6215,3.6292,3.6338,3.6399,3.6492,3.6461,3.6353,3.6245,3.626,3.5804,3.5124,3.4312,3.3699,3.296,3.23,3.2169,3.2169,3.2169,3.2169,3.2169,3.2169,3.2169,3.2169,3.2169,3.2169,3.1969,3.1629,3.1469,3.1282,3.0829,3.0782,3.0532,4.1039,4.0688,4.0705,4.0354,3.9806,3.9792,3.9884,3.9986,4.0003,4.0037,4.0087,4.0087,4.0087,4.0087,4.0087,4.0087,4.0087,4.0087,4.0087,4.0087,4.0087,4.0087,4.007,3.9731,3.947,3.9152,3.8535,3.7927,3.7417,3.7074,3.6769,3.6492,3.6492,3.6492,3.6492,3.6492,3.6492,3.6492,3.6245,3.6076,3.6014,3.5428,3.4979,3.4522,3.3829,3.3136,3.249,3.1782,3.1243,3.0951,3.0612,3.0376,3.036,3.0135,3.0104,3.0397,3.0135,3.0089,3.0397,3.0751,3.0951,3.0951,3.1289,3.1659,3.2013,3.1366,3.1382,3.2351,3.2475,3.2752,3.3444,3.3798,3.3983,3.3983,3.4614,3.5014,3.5091,3.5614,3.6014,3.6045,3.6292,3.6492,3.6492,3.6492,3.6492,3.6492,3.6492,3.6492,3.6492,3.6492,3.6352,3.5879,3.4927,3.4177,3.3768,3.3101,3.2574,3.2241,3.2169,3.2169,3.2169,3.2169,3.2169,3.2169,3.2169,3.2169,3.2169,3.2109,3.1963,3.1817,3.1522,3.136,3.1198,3.1061,3.079,4.0411,4.0087,4.0264,3.9972,3.9486,3.9631,3.9729,3.9833,3.9849,3.9935,4.0037,4.007,4.0087,4.0087,4.0087,4.0087,4.0087,4.0087,4.0087,4.0087,4.0087,4.0087,4.007,3.9627,3.9276,3.892,3.8026,3.746,3.7178,3.6723,3.6492,3.6492,3.6492,3.6492,3.6492,3.6492,3.6492,3.6492,3.6492,3.6492,3.6476,3.5968,3.5645,3.5414,3.4445,3.3814,3.3598,3.2475,3.1828,3.1813,3.1228,3.0859,3.0806,3.072,3.0705,3.0828,3.072,3.0782,3.1105,3.1551,3.1905,3.2074,3.2567,3.3075,3.3475,3.2705,3.249,3.346,3.3614,3.386,3.4321,3.4614,3.4691,3.4737,3.5306,3.5691,3.5753,3.6184,3.6492,3.6492,3.6492,3.6492,3.6492,3.6492,3.6492,3.6492,3.6492,3.6492,3.6476,3.6289,3.5737,3.519,3.4177,3.3492,3.3227,3.2646,3.2314,3.2169,3.2169,3.2169,3.2169,3.2169,3.2169,3.2169,3.2169,3.2169,3.2169,3.2109,3.1977,3.1817,3.1596,3.136,3.1198,3.1136,3.0973,3.9791,3.8797,3.9314,3.915,3.8753,3.9362,3.9677,3.9729,3.9729,3.9781,3.9935,4.0037,4.0087,4.0087,4.0087,4.0087,4.0087,4.0087,4.0087,4.0087,4.0087,4.0087,4.0087,4.002,3.9454,3.8502,3.8165,3.7562,3.6662,3.6554,3.6492,3.6492,3.6492,3.6492,3.6492,3.6492,3.6492,3.6492,3.6492,3.6492,3.6492,3.643,3.6107,3.5491,3.5368,3.4999,3.4383,3.3614,3.3213,3.3167,3.2567,3.2213,3.2167,3.1643,3.1582,3.2136,3.1659,3.1813,3.2967,3.3183,3.346,3.4121,3.4137,3.426,3.4352,3.4303,3.4214,3.4398,3.4398,3.4429,3.4506,3.5029,3.5383,3.5414,3.5953,3.6384,3.6368,3.6461,3.6492,3.6492,3.6492,3.6492,3.6492,3.6492,3.6492,3.6492,3.6492,3.6429,3.6289,3.5529,3.4728,3.4514,3.4177,3.3837,3.3213,3.2632,3.2241,3.2169,3.2169,3.2169,3.2169,3.2169,3.2169,3.2169,3.2169,3.2169,3.2169,3.2182,3.2036,3.1743,3.1535,3.1447,3.1136,3.0986,3.0986,3.9506,3.9031,3.9267,3.925,3.8974,3.8952,3.9169,3.959,3.959,3.9694,3.9901,3.9952,4.0037,4.007,4.0087,4.0087,4.0087,4.0087,4.0087,4.0087,4.0087,3.9918,3.9575,3.9189,3.8557,3.7796,3.7385,3.6982,3.6616,3.6492,3.6492,3.6492,3.6492,3.6492,3.6492,3.6492,3.6492,3.6492,3.6492,3.6492,3.6492,3.6492,3.6353,3.6076,3.5691,3.5368,3.5045,3.4398,3.4029,3.4014,3.3767,3.3614,3.3629,3.3352,3.3321,3.3583,3.3383,3.3444,3.3998,3.4029,3.4152,3.4445,3.446,3.4629,3.5029,3.506,3.5214,3.5553,3.5291,3.5214,3.5599,3.5922,3.6076,3.6122,3.6338,3.6492,3.6492,3.6492,3.6492,3.6492,3.6492,3.6492,3.6492,3.6492,3.6492,3.6492,3.6492,3.6367,3.5879,3.532,3.4647,3.3905,3.363,3.3367,3.2761,3.2444,3.2241,3.2169,3.2169,3.2169,3.2169,3.2169,3.2169,3.2169,3.2169,3.2169,3.2169,3.1963,3.1743,3.1535,3.1373,3.1224,3.1061,3.0986,3.0986,3.9454,3.9193,3.9342,3.9361,3.9328,3.9024,3.9177,3.9644,3.9531,3.9606,3.9746,3.9798,3.9884,4.0037,4.0087,4.0087,4.0087,4.0087,4.0087,4.0087,3.9969,3.9627,3.9152,3.8574,3.7953,3.7417,3.7013,3.6662,3.6554,3.6492,3.6492,3.6492,3.6492,3.6492,3.6492,3.6492,3.6492,3.6492,3.6492,3.6492,3.6492,3.6492,3.6492,3.6445,3.603,3.5768,3.5737,3.5122,3.4752,3.4752,3.4568,3.446,3.446,3.446,3.446,3.446,3.446,3.4568,3.4737,3.4752,3.4829,3.4999,3.5029,3.5245,3.563,3.5753,3.5968,3.6322,3.6061,3.5984,3.6384,3.6492,3.6492,3.6492,3.6492,3.6492,3.6492,3.6492,3.6492,3.6492,3.6492,3.6492,3.6492,3.6492,3.6492,3.6492,3.6289,3.607,3.5464,3.5059,3.4312,3.3353,3.3087,3.2761,3.2314,3.2169,3.2169,3.2169,3.2169,3.2169,3.2169,3.2169,3.2169,3.2169,3.2169,3.2169,3.2169,3.1963,3.1669,3.1535,3.1299,3.1061,3.0986,3.0986,3.0986,3.9619,3.8632,3.9147,3.9377,3.9453,3.9928,4.0244,4.0271,3.9624,3.9379,3.9537,3.9554,3.9642,3.9901,4.0037,4.0087,4.0087,4.0087,4.0087,4.007,3.9592,3.9259,3.9152,3.8574,3.801,3.7417,3.7254,3.6952,3.6492,3.6492,3.6492,3.6492,3.6492,3.6492,3.6492,3.6492,3.6492,3.6492,3.6492,3.6492,3.6492,3.6492,3.6492,3.6492,3.6445,3.6399,3.6338,3.5784,3.543,3.543,3.4891,3.4522,3.4565,3.458,3.4552,3.4537,3.4522,3.4799,3.5337,3.543,3.566,3.6215,3.623,3.6368,3.6322,3.6353,3.6384,3.6492,3.643,3.6415,3.6476,3.6492,3.6492,3.6492,3.6492,3.6492,3.6492,3.6492,3.6492,3.6492,3.6492,3.6492,3.6492,3.6492,3.6492,3.6352,3.5943,3.5529,3.527,3.4312,3.3561,3.3157,3.2761,3.2241,3.2169,3.2169,3.2169,3.2169,3.2169,3.2169,3.2169,3.2169,3.2169,3.2169,3.2169,3.2169,3.2169,3.2109,3.189,3.1669,3.1286,3.1061,3.0986,3.0986,3.0986,3.9873,3.9062,3.8827,3.9261,3.9977,3.9406,3.9585,4.0299,3.9603,3.9395,3.9501,3.9484,3.959,3.9781,3.9901,4.0037,4.0087,4.0087,4.0087,4.0087,3.985,3.9348,3.8629,3.839,3.8026,3.7417,3.7013,3.6723,3.6554,3.6492,3.6492,3.6492,3.6492,3.6492,3.6492,3.6492,3.6492,3.6492,3.6492,3.6492,3.6492,3.6492,3.6492,3.6492,3.6492,3.6492,3.6492,3.6261,3.6138,3.6138,3.5876,3.5768,3.5768,3.5768,3.5768,3.5768,3.5753,3.5861,3.6076,3.6122,3.623,3.6445,3.6492,3.6492,3.6492,3.6492,3.6492,3.6492,3.6492,3.6492,3.6492,3.6492,3.6492,3.6492,3.6492,3.6492,3.6492,3.6492,3.6492,3.6492,3.6492,3.6492,3.6492,3.6492,3.6492,3.6492,3.6226,3.5879,3.5335,3.4514,3.363,3.3213,3.2632,3.2169,3.2169,3.2169,3.2169,3.2169,3.2169,3.2169,3.2169,3.2169,3.2169,3.2169,3.2169,3.2169,3.2169,3.2036,3.189,3.1582,3.1211,3.1061,3.1061,3.0986,3.0986,3.9828,3.9379,3.9169,3.9702,4.0576,3.9531,3.9822,4.0895,3.9802,3.9458,3.9714,3.9548,3.9537,3.9642,3.9746,3.9901,4.0037,4.0087,4.0087,4.007,3.9918,3.9365,3.8629,3.8181,3.778,3.7342,3.6785,3.6584,3.6769,3.6599,3.6599,3.6815,3.6615,3.6492,3.6492,3.6492,3.6492,3.6492,3.6492,3.6492,3.6492,3.6492,3.6492,3.6492,3.6492,3.6492,3.6492,3.6492,3.6492,3.6492,3.6492,3.6492,3.6492,3.6492,3.6492,3.6492,3.6476,3.6492,3.6492,3.6492,3.6492,3.6492,3.6492,3.6492,3.6492,3.6492,3.6492,3.6492,3.6492,3.6492,3.6492,3.6492,3.6492,3.6492,3.6492,3.6492,3.6492,3.6492,3.6492,3.6492,3.6492,3.6492,3.6492,3.6492,3.6492,3.6492,3.6148,3.5529,3.5059,3.4177,3.3506,3.296,3.2516,3.2241,3.2169,3.2169,3.2169,3.2169,3.2169,3.2169,3.2169,3.2169,3.2169,3.2169,3.2169,3.2169,3.2109,3.1963,3.1743,3.1434,3.1211,3.1061,3.1061,3.0986,3.0986,3.9439,3.9481,4.0146,4.0727,4.1257,4.0571,4.1135,4.1815,4.0183,3.974,4.0038,3.9607,3.9379,3.9484,3.9554,3.9642,3.9849,4.0037,4.007,4.007,3.9592,3.9312,3.9098,3.8124,3.7578,3.7433,3.6862,3.6955,3.7388,3.6971,3.6986,3.7309,3.6831,3.66,3.6585,3.66,3.6492,3.6492,3.6492,3.6492,3.6492,3.6492,3.6492,3.6492,3.6492,3.6492,3.6492,3.6492,3.6492,3.6492,3.6492,3.6492,3.6492,3.6492,3.6492,3.6492,3.6492,3.6492,3.6492,3.6492,3.6492,3.6492,3.6492,3.6492,3.6492,3.6492,3.6492,3.6492,3.6492,3.6492,3.6492,3.6492,3.6492,3.6492,3.6492,3.6492,3.6492,3.6492,3.6492,3.6492,3.6492,3.6492,3.6492,3.6492,3.6492,3.6289,3.5593,3.4846,3.4647,3.3644,3.2574,3.23,3.2314,3.2241,3.2169,3.2169,3.2169,3.2169,3.2169,3.2169,3.2169,3.2169,3.2169,3.2169,3.2169,3.2169,3.2182,3.2036,3.183,3.1522,3.1299,3.1136,3.1061,3.0986,3.0986,3.9424,3.9424,3.961,4.0409,4.1349,4.0722,4.0926,4.16,4.0481,3.9901,3.962,3.9371,3.9325,3.9379,3.9432,3.9537,3.9659,3.9849,3.9986,4.002,3.9918,3.9592,3.9206,3.881,3.8214,3.7716,3.8624,3.8456,3.7679,3.7759,3.8194,3.8435,3.725,3.7049,3.7745,3.6971,3.6492,3.6492,3.6492,3.6492,3.6492,3.6492,3.6492,3.6492,3.6492,3.6492,3.6492,3.6492,3.6492,3.6492,3.6492,3.6492,3.6492,3.6492,3.6492,3.6492,3.6492,3.6492,3.6492,3.6492,3.6492,3.6492,3.6492,3.6492,3.6492,3.6492,3.6492,3.6492,3.6492,3.6492,3.6492,3.6492,3.6492,3.6492,3.6492,3.6492,3.6492,3.6492,3.6492,3.6492,3.6492,3.6492,3.6492,3.6492,3.6492,3.6492,3.6006,3.5529,3.4978,3.4109,3.3437,3.303,3.2704,3.2241,3.2169,3.2169,3.2169,3.2169,3.2169,3.2169,3.2169,3.2169,3.2169,3.2169,3.2169,3.2182,3.2182,3.205,3.183,3.1683,3.1447,3.1299,3.1061,3.0986,3.0986,3.9424,3.9424,3.9424,4.0076,4.1017,4.032,4.0732,4.1566,4.0823,4.0398,4.0382,3.9918,3.9723,3.969,3.9511,3.9432,3.9537,3.9746,3.9884,4.0037,4.0087,3.9867,3.959,3.9611,3.9149,3.8541,3.9642,3.9886,3.8978,3.9122,3.9585,3.9785,3.842,3.7865,3.8378,3.7433,3.6785,3.6554,3.6492,3.6492,3.6492,3.6492,3.6492,3.6492,3.6492,3.6492,3.6492,3.6492,3.6492,3.6492,3.6492,3.6492,3.6492,3.6492,3.6492,3.6492,3.6492,3.6492,3.6492,3.6492,3.6492,3.6492,3.6492,3.6492,3.6492,3.6492,3.6492,3.6492,3.6492,3.6492,3.6492,3.6492,3.6492,3.6492,3.6492,3.6492,3.6492,3.6492,3.6492,3.6492,3.6492,3.6492,3.6492,3.6492,3.6492,3.6492,3.6274,3.6006,3.54,3.4714,3.4027,3.3422,3.296,3.2574,3.2241,3.2169,3.2169,3.2169,3.2169,3.2169,3.2169,3.2169,3.2169,3.2169,3.2169,3.2109,3.2109,3.2036,3.189,3.1743,3.1596,3.136,3.1123,3.1061,3.0986,3.9424,3.9424,3.9424,3.9879,4.0529,3.9908,4.0767,4.2154,4.1231,4.1226,4.1806,4.0812,4.0315,4.0183,3.964,3.9379,3.9484,3.9642,3.9781,3.9884,4.0037,4.002,4.0037,4.0227,3.9952,3.9536,4.0368,4.0929,4.0989,4.0745,4.0951,4.1336,4.0086,3.9226,3.8962,3.8011,3.7364,3.6986,3.6724,3.6616,3.6616,3.6492,3.6492,3.6492,3.6492,3.6492,3.6492,3.6492,3.6492,3.6492,3.6492,3.6492,3.6492,3.6492,3.6492,3.6492,3.6492,3.6492,3.6492,3.6492,3.6492,3.6492,3.6492,3.6492,3.6492,3.6492,3.6492,3.6492,3.6492,3.6492,3.6492,3.6492,3.6492,3.6492,3.6492,3.6492,3.6492,3.6492,3.6492,3.6492,3.6492,3.6492,3.6492,3.6492,3.6492,3.6429,3.6006,3.5737,3.5335,3.478,3.4027,3.3492,3.303,3.2632,3.2241,3.2169,3.2169,3.2169,3.2169,3.2169,3.2169,3.2169,3.2169,3.2169,3.2169,3.2109,3.2036,3.2036,3.189,3.1669,3.1522,3.1347,3.1198,3.1061,3.0986,3.9424,3.9424,3.9424,4.0076,4.1162,4.1018,4.1483,4.2456,4.2121,4.1823,4.1624,4.0779,4.0431,4.0299,3.962,3.9325,3.9432,3.9573,3.9729,3.9781,3.9986,4.0087,4.0223,4.0676,4.0625,4.0321,4.1677,4.2216,4.1519,4.1832,4.2311,4.2819,4.1173,4.0678,4.1072,3.9622,3.8846,3.8467,3.7563,3.7178,3.7118,3.6723,3.6492,3.6492,3.6492,3.6492,3.6492,3.6492,3.6492,3.6492,3.6492,3.6492,3.6492,3.6492,3.6492,3.6492,3.6492,3.6492,3.6492,3.6492,3.6492,3.6492,3.6492,3.6492,3.6492,3.6492,3.6492,3.6492,3.6492,3.6492,3.6492,3.6492,3.6492,3.6492,3.6492,3.6492,3.6492,3.6492,3.6492,3.6492,3.6492,3.6492,3.6492,3.6492,3.6492,3.6492,3.6289,3.5943,3.54,3.4912,3.423,3.3367,3.2832,3.2503,3.2241,3.2241,3.2169,3.2169,3.2169,3.2169,3.2169,3.2169,3.2169,3.2169,3.2169,3.2109,3.2109,3.205,3.183,3.1669,3.1508,3.1347,3.1136,3.0986,3.0986,3.9424,3.9409,3.9753,4.0339,4.1095,4.1404,4.1911,4.2425,4.2518,4.2502,4.2121,4.1243,4.0812,4.0713,3.9769,3.9288,3.9325,3.9573,3.9862,4.0266,4.0796,4.0696,4.051,4.1085,4.1334,4.0966,4.285,4.3149,4.259,4.3042,4.3564,4.3608,4.2415,4.1922,4.1699,4.0614,3.9487,3.8893,3.8146,3.7796,3.7738,3.7445,3.7118,3.6937,3.6892,3.6785,3.6554,3.6492,3.6492,3.6492,3.6492,3.6492,3.6492,3.6492,3.6492,3.6492,3.6492,3.6492,3.6492,3.6492,3.6492,3.6492,3.6492,3.6492,3.6492,3.6492,3.6492,3.6492,3.6492,3.6492,3.6492,3.6492,3.6492,3.6492,3.6492,3.6492,3.6492,3.6492,3.6492,3.6492,3.6492,3.6492,3.6492,3.6492,3.6492,3.6492,3.6492,3.6022,3.5544,3.4993,3.4365,3.3492,3.296,3.2704,3.2386,3.2241,3.2241,3.2241,3.2169,3.2169,3.2169,3.2169,3.2169,3.2169,3.2169,3.2182,3.2109,3.2036,3.189,3.1743,3.1508,3.136,3.1211,3.0986,3.0986,3.9424,3.9496,4.0076,4.0409,4.0644,4.1215,4.1927,4.2499,4.2637,4.2999,4.3115,4.2104,4.1558,4.1425,4.015,3.9471,3.9607,3.9874,4.033,4.1026,4.1606,4.1559,4.0798,4.1847,4.2047,4.1893,4.3673,4.3995,4.363,4.4108,4.4434,4.4181,4.3567,4.2824,4.2128,4.1012,3.982,3.9191,3.8681,3.8407,3.8294,3.8067,3.7738,3.7504,3.7298,3.7118,3.6785,3.6538,3.6492,3.6492,3.6492,3.6492,3.6492,3.6492,3.6492,3.6492,3.6492,3.6492,3.6492,3.6492,3.6492,3.6492,3.6492,3.6492,3.6492,3.6492,3.6492,3.6492,3.6492,3.6492,3.6492,3.6492,3.6492,3.6492,3.6492,3.6492,3.6492,3.6492,3.6492,3.6492,3.6492,3.6492,3.6492,3.6492,3.6492,3.6492,3.6492,3.6289,3.5816,3.54,3.4647,3.3685,3.3297,3.303,3.2632,3.2314,3.2241,3.2228,3.2241,3.2169,3.2169,3.2169,3.2169,3.2169,3.2169,3.2182,3.2036,3.1963,3.189,3.1817,3.1582,3.1434,3.136,3.1136,3.0986,3.9424,3.9409,3.9553,3.995,4.0585,4.1236,4.1901,4.2615,4.3131,4.3446,4.338,4.2651,4.2253,4.217,4.0763,4.0415,4.0768,4.0758,4.1057,4.1893,4.2115,4.2185,4.1965,4.2777,4.3031,4.3132,4.3961,4.4418,4.4282,4.3944,4.4012,4.4333,4.342,4.2993,4.3423,4.1749,4.1247,4.1033,3.9839,3.9028,3.8794,3.8197,3.7911,3.7953,3.7637,3.7342,3.7134,3.6723,3.6492,3.6492,3.6492,3.6492,3.6492,3.6492,3.6492,3.6492,3.6492,3.6492,3.6492,3.6492,3.6492,3.6492,3.6492,3.6492,3.6492,3.6492,3.6492,3.6492,3.6492,3.6492,3.6492,3.6492,3.6492,3.6492,3.6492,3.6492,3.6492,3.6492,3.6492,3.6492,3.6492,3.6492,3.6492,3.6492,3.6492,3.6492,3.6492,3.6414,3.6085,3.5672,3.4795,3.3754,3.3561,3.3227,3.2574,3.2314,3.2314,3.2241,3.2241,3.2169,3.2169,3.2169,3.2169,3.2169,3.2169,3.2109,3.2109,3.1963,3.189,3.1743,3.1582,3.1434,3.1272,3.1136,3.0986,3.9424,3.9424,3.9737,4.0339,4.0992,4.1738,4.2443,4.3035,4.3432,4.3645,4.338,4.2518,4.2204,4.2336,4.0796,4.0382,4.1316,4.1777,4.1967,4.2469,4.2912,4.3183,4.298,4.342,4.3724,4.325,4.4062,4.4367,4.4062,4.3978,4.4028,4.3995,4.3149,4.2997,4.3301,4.1999,4.1422,4.1371,4.0421,3.9627,3.947,3.9082,3.8367,3.8238,3.7738,3.7401,3.7342,3.6846,3.6723,3.6785,3.6677,3.6492,3.6492,3.6492,3.6492,3.6492,3.6492,3.6492,3.6492,3.6492,3.6492,3.6492,3.6492,3.6492,3.6492,3.6492,3.6492,3.6492,3.6492,3.6492,3.6492,3.6492,3.6492,3.6492,3.6492,3.6492,3.6492,3.6492,3.6492,3.6492,3.6492,3.6492,3.6492,3.6492,3.6492,3.6492,3.6492,3.6414,3.5864,3.54,3.4714,3.3973,3.3768,3.3311,3.2574,3.2314,3.2386,3.2314,3.2169,3.2169,3.2169,3.2169,3.2169,3.2169,3.2169,3.2169,3.2109,3.2036,3.189,3.1817,3.1656,3.1495,3.1272,3.1198,3.1061,3.9424,3.9424,4.0091,4.0752,4.1393,4.2061,4.2726,4.3372,4.3568,4.3645,4.3396,4.2154,4.2187,4.2137,4.0498,4.0332,4.1477,4.2645,4.3009,4.3064,4.3876,4.3978,4.3842,4.4045,4.3995,4.2895,4.3961,4.4164,4.3826,4.3876,4.3707,4.342,4.3064,4.3014,4.254,4.1677,4.1457,4.1642,4.0662,4.0172,4.0138,3.9933,3.9242,3.8629,3.8124,3.7738,3.7562,3.7118,3.6831,3.7178,3.6785,3.6554,3.6492,3.6492,3.6492,3.6492,3.6492,3.6492,3.6492,3.6492,3.6492,3.6492,3.6492,3.6492,3.6492,3.6492,3.6492,3.6492,3.6492,3.6492,3.6492,3.6492,3.6492,3.6492,3.6492,3.6492,3.6492,3.6492,3.6492,3.6492,3.6492,3.6492,3.6492,3.6492,3.6492,3.6492,3.6492,3.6352,3.58,3.54,3.4861,3.4447,3.4245,3.3973,3.3311,3.2632,3.2646,3.2574,3.2444,3.2314,3.2314,3.2169,3.2169,3.2169,3.2169,3.2169,3.2182,3.2109,3.1963,3.189,3.1743,3.1508,3.1347,3.1272,3.1123,3.9424,3.9424,3.9553,4.0021,4.0737,4.1393,4.211,4.2772,4.3372,4.3611,4.3462,4.2734,4.2634,4.2634,4.1143,4.0895,4.1861,4.2992,4.3849,4.3939,4.4434,4.4299,4.4384,4.4418,4.435,4.4333,4.4502,4.4147,4.3436,4.298,4.32,4.3098,4.232,4.232,4.2946,4.2422,4.1779,4.2219,4.1102,4.0476,4.0628,3.9998,3.9365,3.8957,3.8739,3.8518,3.8124,3.7578,3.7074,3.6723,3.6538,3.6554,3.6554,3.6554,3.6554,3.6492,3.6492,3.6492,3.6492,3.6492,3.6492,3.6492,3.6492,3.6492,3.6492,3.6492,3.6492,3.6492,3.6492,3.6492,3.6492,3.6492,3.6492,3.6492,3.6492,3.6492,3.6492,3.6492,3.6492,3.6492,3.6492,3.6492,3.6492,3.6492,3.6492,3.6492,3.6492,3.6492,3.6226,3.5879,3.5608,3.5204,3.4861,3.4581,3.4177,3.3492,3.3157,3.303,3.2903,3.2574,3.2516,3.2241,3.2241,3.2574,3.2444,3.2241,3.2182,3.2182,3.2109,3.1963,3.1743,3.1522,3.1434,3.136,3.1123,3.9424,3.9424,3.9424,3.9824,4.0547,4.1194,4.1917,4.2648,4.3295,4.3396,4.2916,4.2336,4.2369,4.2319,4.0779,4.0579,4.1861,4.2942,4.3826,4.4288,4.4142,4.4248,4.4519,4.457,4.457,4.4553,4.4519,4.4147,4.3521,4.3572,4.2997,4.2236,4.1796,4.2202,4.2472,4.1779,4.1863,4.2269,4.1474,4.0781,4.1085,4.0134,3.9625,3.9259,3.9206,3.9044,3.8756,3.8181,3.7911,3.7854,3.7621,3.7282,3.7074,3.6907,3.6846,3.6616,3.6492,3.6492,3.6492,3.6492,3.6492,3.6492,3.6492,3.6492,3.6492,3.6492,3.6492,3.6492,3.6492,3.6492,3.6492,3.6492,3.6492,3.6492,3.6492,3.6492,3.6492,3.6492,3.6492,3.6492,3.6492,3.6492,3.6492,3.6492,3.6492,3.6492,3.6492,3.6492,3.6492,3.6289,3.6022,3.54,3.4927,3.4647,3.4447,3.4027,3.3754,3.363,3.3437,3.3185,3.3044,3.2903,3.3115,3.3451,3.3115,3.2588,3.2372,3.2444,3.2241,3.2036,3.1817,3.1596,3.1447,3.1373,3.1136,3.9424,3.9424,3.9424,3.9809,4.0547,4.106,4.1787,4.2553,4.2993,4.2871,4.2452,4.169,4.1707,4.1922,4.1094,4.0657,4.1672,4.254,4.3423,4.3912,4.3956,4.4079,4.4418,4.457,4.457,4.4553,4.4265,4.4028,4.3572,4.3589,4.2895,4.2151,4.2049,4.1948,4.1593,4.1441,4.1728,4.1813,4.1407,4.1001,4.0815,4.0426,3.9918,3.9418,3.9365,3.9365,3.9098,3.8739,3.8574,3.8574,3.8407,3.8067,3.7637,3.7476,3.7194,3.6785,3.66,3.6492,3.6492,3.6492,3.6492,3.6492,3.6492,3.6492,3.6492,3.6492,3.6492,3.6492,3.6492,3.6492,3.6492,3.6492,3.6492,3.6492,3.6492,3.6492,3.6492,3.6492,3.6492,3.6492,3.6492,3.6492,3.6492,3.6492,3.6492,3.6492,3.6492,3.6492,3.6492,3.6492,3.6148,3.5464,3.4912,3.4647,3.4499,3.4447,3.4312,3.4447,3.4177,3.3851,3.3768,3.3699,3.3973,3.4109,3.3575,3.3115,3.2917,3.2775,3.2632,3.2431,3.195,3.1743,3.179,3.1495,3.1272,3.9424,3.9424,3.9424,3.9809,4.0424,4.0615,4.1393,4.2409,4.2061,4.2054,4.227,4.121,4.1259,4.1922,4.217,4.1577,4.1527,4.2155,4.3026,4.3445,4.3893,4.4164,4.4536,4.457,4.4485,4.4367,4.3876,4.3572,4.3267,4.2912,4.2506,4.1948,4.1542,4.1491,4.166,4.1373,4.1593,4.1897,4.095,4.029,4.0257,4.0189,4.0037,3.9969,3.9901,3.9731,3.9418,3.9135,3.9028,3.8574,3.8446,3.8294,3.8124,3.7695,3.7476,3.7178,3.6831,3.6492,3.6554,3.6554,3.6554,3.6616,3.6554,3.6492,3.6492,3.6492,3.6492,3.6492,3.6492,3.6492,3.6492,3.6492,3.6492,3.6492,3.6492,3.6492,3.6492,3.6492,3.6492,3.6492,3.6492,3.6492,3.6492,3.6492,3.6492,3.6492,3.6492,3.6476,3.6492,3.6492,3.6429,3.58,3.5464,3.519,3.5124,3.4993,3.4949,3.516,3.4963,3.4566,3.4581,3.4647,3.4633,3.4581,3.4109,3.3887,3.3922,3.3665,3.331,3.296,3.2618,3.2417,3.2273,3.1909,3.1381,3.9424,3.9424,3.9424,3.9538,3.9879,4.0285,4.0825,4.131,4.1461,4.1422,4.1269,4.0729,4.0547,4.0912,4.1515,4.151,4.1009,4.1573,4.2186,4.2686,4.3179,4.3589,4.3961,4.4299,4.4418,4.3927,4.3572,4.3166,4.2828,4.2422,4.1999,4.117,4.1153,4.1035,4.1271,4.1187,4.1356,4.1424,4.1035,4.051,4.0256,4.0205,4.0205,4.0188,4.0188,4.002,3.9867,3.9747,3.9644,3.9348,3.9348,3.9119,3.8865,3.8535,3.8311,3.7895,3.7663,3.7385,3.7074,3.6723,3.6723,3.6846,3.6723,3.6492,3.6492,3.6492,3.6492,3.6492,3.6492,3.6492,3.6492,3.6492,3.6492,3.6492,3.6492,3.6492,3.6492,3.6492,3.6492,3.6492,3.6492,3.6492,3.6492,3.6492,3.6492,3.6476,3.6415,3.6338,3.6415,3.6492,3.6429,3.6226,3.6022,3.5816,3.5879,3.5879,3.5695,3.5821,3.5852,3.5597,3.5529,3.5529,3.519,3.5185,3.508,3.4946,3.4852,3.4391,3.3815,3.3559,3.3437,3.3087,3.2681,3.215,3.1729,3.8916,3.8945,3.9275,3.9391,3.944,4.0025,4.0286,4.0499,4.0756,4.0736,4.0502,4.0365,3.9984,3.974,4.0712,4.1,4.0458,4.0822,4.1449,4.2011,4.2486,4.2997,4.3504,4.3978,4.3961,4.3369,4.2844,4.2625,4.2354,4.1847,4.1119,4.0358,4.073,4.0629,4.0409,4.0612,4.0951,4.0917,4.0883,4.0561,4.0222,4.0255,4.0305,4.0305,4.0337,4.0337,4.0355,4.0238,4.0188,4.0138,4.0121,3.9901,3.9558,3.9295,3.9028,3.8668,3.843,3.8206,3.7895,3.7562,3.7222,3.7058,3.6892,3.6492,3.6492,3.6492,3.6492,3.6492,3.6492,3.6492,3.6492,3.6492,3.6492,3.6492,3.6492,3.6492,3.6492,3.6492,3.6492,3.6492,3.6492,3.6492,3.6492,3.6492,3.6492,3.6461,3.6368,3.6199,3.6107,3.6076,3.5876,3.56,3.5307,3.523,3.5538,3.5769,3.5922,3.6091,3.6107,3.5938,3.5507,3.5322,3.5093,3.529,3.5501,3.523,3.4667,3.4475,3.4193,3.3871,3.3522,3.3379,3.3033,3.25,3.1918,3.7554,3.7659,3.8901,3.9345,3.9321,3.9471,3.9781,4.0135,3.9688,3.9879,4.0282,4.0315,3.9939,3.969,4.0167,4.0408,3.9828,4.0639,4.1283,4.2115,4.2929,4.3014,4.3234,4.3284,4.3386,4.3031,4.2303,4.1982,4.1813,4.095,4.0832,4.0984,4.051,4.0223,4.0189,4.0375,4.051,4.051,4.0493,4.0391,4.0205,4.0238,4.0355,4.0355,4.0436,4.0468,4.0468,4.0436,4.0436,4.0436,4.0436,4.0436,4.0154,3.9817,3.9558,3.9437,3.9102,3.9032,3.8995,3.8446,3.7895,3.7401,3.6952,3.6723,3.6708,3.6554,3.6492,3.6554,3.6554,3.6554,3.6492,3.6492,3.6554,3.6492,3.6492,3.6492,3.6492,3.6492,3.6492,3.6492,3.6492,3.6492,3.6353,3.6322,3.6199,3.6153,3.5676,3.5491,3.5168,3.5076,3.4922,3.468,3.4167,3.4137,3.4513,3.4785,3.4972,3.5154,3.5199,3.5029,3.477,3.4695,3.4865,3.4804,3.4957,3.4755,3.4539,3.4212,3.3931,3.3817,3.3587,3.3427,3.305,3.2473,3.1887,3.7571,3.7616,3.8057,3.8157,3.8175,3.8175,3.8577,3.9055,3.8858,3.9136,3.9719,3.974,3.9591,3.9598,3.979,3.9995,3.9883,4.0222,4.0679,4.1068,4.161,4.1999,4.2168,4.2439,4.2489,4.2083,4.1424,4.095,4.0747,4.0324,4.029,4.0307,4.0256,4.0239,4.0255,4.0305,4.0305,4.0305,4.0305,4.0288,4.0387,4.0502,4.0551,4.0534,4.06,4.0648,4.0583,4.0534,4.0534,4.0534,4.0534,4.0534,4.0534,4.0254,4.0137,4.0154,3.9817,3.9919,3.9817,3.9193,3.843,3.8206,3.7706,3.7251,3.7207,3.7013,3.6877,3.6816,3.6723,3.6769,3.6662,3.66,3.6616,3.6554,3.6538,3.6538,3.6554,3.6492,3.6492,3.6492,3.6492,3.6492,3.6292,3.6091,3.5953,3.5784,3.5245,3.4737,3.4398,3.4214,3.4121,3.4106,3.3693,3.3651,3.4094,3.4158,3.4103,3.4219,3.4306,3.4214,3.4121,3.4475,3.457,3.4475,3.4275,3.4152,3.4002,3.3768,3.3649,3.3634,3.3622,3.3514,3.3037,3.2421,3.1954,3.7186,3.7186,3.7207,3.7313,3.7428,3.7643,3.7946,3.8372,3.8649,3.8902,3.9288,3.9325,3.9395,3.9484,3.9642,3.9815,3.9901,4.0104,4.0273,4.0663,4.1085,4.1187,4.139,4.1593,4.1762,4.1238,4.0916,4.0595,4.0646,4.024,4.0206,4.0239,4.0188,4.0238,4.0305,4.0404,4.0387,4.0404,4.0453,4.0387,4.0534,4.0648,4.0714,4.0697,4.0745,4.0745,4.0745,4.068,4.0631,4.0631,4.0631,4.0631,4.0631,4.0631,4.0631,4.0614,4.0614,4.0631,4.0353,3.9697,3.9032,3.887,3.8358,3.8149,3.7994,3.7738,3.7637,3.7578,3.7445,3.7222,3.7103,3.7058,3.6769,3.6708,3.6538,3.6554,3.6492,3.6492,3.6492,3.6492,3.6476,3.6399,3.5707,3.5368,3.4876,3.4737,3.4445,3.3937,3.3552,3.3444,3.3521,3.3506,3.3479,3.3587,3.3783,3.3571,3.3303,3.3315,3.3429,3.3552,3.3629,3.3921,3.3906,3.3567,3.3429,3.3506,3.3387,3.3135,3.3345,3.366,3.3432,3.3079,3.281,3.2228,3.2082,3.608,3.6131,3.6647,3.708,3.743,3.8091,3.8321,3.8416,3.8958,3.9301,3.9342,3.9325,3.9395,3.9537,3.9677,3.9781,3.9935,4.0054,4.0324,4.0815,4.0882,4.1102,4.1119,4.1153,4.1136,4.1018,4.0663,4.0544,4.095,4.0426,4.0239,4.0305,4.0305,4.0288,4.0355,4.0551,4.0648,4.0697,4.0648,4.06,4.0583,4.0697,4.0745,4.0745,4.0793,4.084,4.084,4.084,4.0776,4.0823,4.0823,4.0823,4.0823,4.0823,4.0823,4.0823,4.0823,4.0871,4.0823,4.002,3.9697,3.9577,3.9123,3.8783,3.8745,3.8652,3.8486,3.8334,3.8414,3.8149,3.7879,3.7546,3.7163,3.6831,3.6662,3.66,3.66,3.6554,3.6554,3.6492,3.643,3.6199,3.5306,3.4537,3.3844,3.3552,3.346,3.3198,3.2859,3.2829,3.2982,3.3013,3.3044,3.3044,3.3075,3.2752,3.2582,3.2536,3.2659,3.2906,3.2921,3.2982,3.2859,3.2628,3.2736,3.2952,3.2736,3.249,3.2798,3.3075,3.2716,3.2455,3.2262,3.2167,3.2049,3.6148,3.6148,3.6258,3.6631,3.711,3.7717,3.8146,3.8551,3.9169,3.9573,3.959,3.9573,3.9642,3.9746,3.9781,3.9901,4.0037,4.0037,4.0358,4.0426,4.051,4.0443,4.0476,4.0544,4.0493,4.0409,4.0155,4.0155,4.0392,4.0273,4.0272,4.0288,4.0485,4.0502,4.0485,4.0583,4.0697,4.0714,4.0697,4.0697,4.0793,4.0793,4.084,4.0823,4.0871,4.0871,4.0871,4.0871,4.0871,4.0871,4.0871,4.0871,4.0871,4.0871,4.0871,4.0871,4.0871,4.0871,4.0888,4.0566,4.0517,4.0237,3.9902,3.956,3.956,3.9209,3.9102,3.9049,3.9016,3.8652,3.8084,3.7969,3.7637,3.7089,3.6862,3.6846,3.6769,3.6662,3.6662,3.6554,3.6445,3.5722,3.4876,3.4044,3.3321,3.2952,3.2921,3.2859,3.2582,3.2536,3.2613,3.2582,3.2582,3.2505,3.2398,3.2398,3.2398,3.2459,3.2475,3.2536,3.2459,3.2398,3.2428,3.2521,3.2459,3.2398,3.2398,3.2398,3.2398,3.2444,3.2358,3.2302,3.2293,3.2267,3.219,3.6399,3.6631,3.6738,3.7131,3.7589,3.7764,3.8222,3.8903,3.9451,3.9677,3.9677,3.9677,3.9798,3.9849,3.9901,4.0003,4.0087,4.0087,4.0087,4.0087,4.0087,4.0138,4.0121,4.0121,4.0172,4.0138,4.0121,4.0155,4.0256,4.0272,4.0355,4.0534,4.0789,4.0931,4.0884,4.0853,4.0793,4.0793,4.0793,4.0793,4.0823,4.0871,4.0871,4.0871,4.0871,4.0871,4.0871,4.0918,4.0918,4.0918,4.0918,4.0918,4.0871,4.0871,4.0871,4.0871,4.0871,4.0871,4.0888,4.0888,4.0776,4.0776,4.05,4.0336,4.0269,4.0037,3.9919,3.9817,3.9577,3.9209,3.8794,3.8684,3.8084,3.7578,3.715,3.7134,3.6968,3.6907,3.6754,3.6646,3.606,3.529,3.4472,3.3629,3.2844,3.2628,3.2428,3.2398,3.2398,3.2398,3.2398,3.2398,3.2398,3.2398,3.2398,3.2398,3.2398,3.2398,3.2398,3.2398,3.2398,3.2398,3.2398,3.2398,3.2398,3.2398,3.2398,3.2398,3.2398,3.2398,3.2398,3.2398,3.2398,3.2342,3.2247,3.6831,3.746,3.801,3.8463,3.8794,3.8278,3.8629,3.9677,3.9713,3.9729,3.9729,3.9729,3.9833,3.9901,3.9884,3.9986,4.0087,4.0087,4.0087,4.0087,4.0087,4.0121,4.0171,4.0204,4.0254,4.0221,4.0221,4.0303,4.0337,4.0645,4.0741,4.0901,4.1328,4.1445,4.1401,4.1283,4.1134,4.118,4.1163,4.1134,4.1088,4.0995,4.1041,4.1041,4.1041,4.1071,4.1134,4.1134,4.1041,4.0995,4.0982,4.0935,4.0935,4.0871,4.0871,4.0871,4.0871,4.0871,4.0871,4.0871,4.0871,4.0871,4.0871,4.0871,4.0776,4.0614,4.0566,4.0566,4.0434,4.0153,3.9834,3.9246,3.8707,3.8124,3.7594,3.7373,3.7225,3.7074,3.6906,3.652,3.5778,3.5019,3.3975,3.3116,3.2755,3.2576,3.2453,3.2398,3.2398,3.2398,3.2398,3.2398,3.2398,3.2398,3.2398,3.2398,3.2398,3.2398,3.2398,3.2398,3.2398,3.2398,3.2398,3.2398,3.2398,3.2398,3.2398,3.2398,3.2398,3.2398,3.2398,3.2398,3.2398,3.2398,3.2342,3.6831,3.7401,3.7562,3.8238,3.9082,3.9348,3.9696,3.9969,3.9986,3.9986,3.9986,3.9969,3.9986,4.0037,4.002,4.0087,4.0087,4.0087,4.0087,4.0087,4.0121,4.0303,4.0483,4.0531,4.0563,4.058,4.0628,4.0659,4.0861,4.1122,4.1499,4.1821,4.1881,4.199,4.1966,4.1881,4.1839,4.1778,4.1753,4.1534,4.1418,4.1328,4.1328,4.1311,4.1328,4.1445,4.1622,4.1709,4.1622,4.1373,4.1328,4.1237,4.0871,4.0871,4.0871,4.0871,4.0871,4.0871,4.0871,4.0871,4.0871,4.0871,4.0871,4.0871,4.0871,4.0871,4.0871,4.0871,4.0871,4.0549,4.017,3.968,3.9246,3.8832,3.8278,3.7863,3.7632,3.7243,3.6999,3.5907,3.5241,3.4576,3.3531,3.3168,3.2811,3.2609,3.2508,3.2523,3.2468,3.2453,3.2398,3.2398,3.2398,3.2398,3.2398,3.2398,3.2398,3.2398,3.2398,3.2398,3.2398,3.2398,3.2398,3.2398,3.2398,3.2398,3.2398,3.2398,3.2398,3.2398,3.2398,3.2398,3.2398,3.2398,3.2398,3.7107,3.7633,3.7343,3.7959,3.9089,3.948,3.9783,4.0037,4.0087,4.0087,4.0087,4.0087,4.0087,4.0087,4.007,4.0087,4.0087,4.0087,4.0087,4.0087,4.0121,4.0204,4.0483,4.0754,4.0754,4.0849,4.1065,4.123,4.142,4.1725,4.2098,4.2157,4.2338,4.2476,4.2516,4.2616,4.2732,4.2559,4.236,4.2074,4.1906,4.1778,4.1778,4.176,4.1778,4.199,4.2157,4.2239,4.2032,4.1821,4.1778,4.1692,4.1418,4.1418,4.1418,4.1463,4.1255,4.1209,4.1163,4.0965,4.0918,4.0871,4.0871,4.0871,4.0871,4.0871,4.0871,4.0871,4.0871,4.0758,4.0434,4.012,3.9851,3.9558,3.8999,3.8482,3.7979,3.7527,3.6562,3.5316,3.4591,3.4004,3.3419,3.3115,3.2912,3.2773,3.2718,3.2718,3.2594,3.2523,3.2453,3.2398,3.2398,3.2398,3.2398,3.2398,3.2398,3.2398,3.2398,3.2398,3.2398,3.2398,3.2398,3.2398,3.2398,3.2398,3.2398,3.2398,3.2398,3.2453,3.2508,3.2453,3.2453,3.2398,3.2398,3.7432,3.7911,3.7368,3.782,3.8804,3.8903,3.9292,3.9969,3.9918,4.002,4.0054,4.0087,4.0087,4.0087,4.0087,4.0087,4.0087,4.0087,4.0171,4.0171,4.0271,4.0385,4.0737,4.0754,4.1185,4.123,4.141,4.1785,4.199,4.2279,4.2519,4.2338,4.2711,4.292,4.2995,4.3178,4.325,4.316,4.2808,4.244,4.232,4.2239,4.2239,4.2239,4.2239,4.2338,4.232,4.232,4.2279,4.2279,4.2239,4.2239,4.2115,4.2092,4.2074,4.2032,4.1692,4.1534,4.1373,4.1163,4.0995,4.0918,4.0871,4.0871,4.0871,4.0871,4.0871,4.0871,4.0871,4.0871,4.0645,4.04,4.0169,3.9665,3.9107,3.8355,3.76,3.6851,3.5681,3.4666,3.414,3.3638,3.3349,3.3058,3.3005,3.2951,3.2897,3.2897,3.2788,3.2648,3.2523,3.2453,3.2468,3.2468,3.2398,3.2398,3.2398,3.2398,3.2453,3.2398,3.2398,3.2398,3.2398,3.2398,3.2398,3.2398,3.2398,3.2398,3.2492,3.2656,3.2656,3.2602,3.2547,3.2602,3.2453,3.6698,3.7284,3.7551,3.7928,3.8159,3.8159,3.8582,3.9225,3.9259,3.9546,3.9986,4.0054,4.0087,4.0087,4.0087,4.0121,4.0121,4.0221,4.0353,4.0531,4.0628,4.0972,4.1613,4.1717,4.1931,4.2121,4.2284,4.2382,4.2559,4.2884,4.316,4.316,4.3286,4.3304,4.3304,4.3497,4.3479,4.3479,4.325,4.2902,4.275,4.2729,4.2729,4.2711,4.2711,4.2902,4.2958,4.3124,4.2976,4.2788,4.275,4.2555,4.2239,4.2257,4.2216,4.2157,4.2098,4.1906,4.1692,4.1445,4.1283,4.0995,4.0918,4.0918,4.0871,4.0871,4.0871,4.0871,4.0871,4.0871,4.0836,4.0625,4.0374,3.9759,3.9091,3.8137,3.718,3.5995,3.4848,3.4327,3.3846,3.354,3.3335,3.3219,3.3165,3.3096,3.3043,3.2989,3.2951,3.2827,3.2757,3.2633,3.2594,3.2523,3.2468,3.2453,3.2523,3.2508,3.2492,3.2508,3.2453,3.2656,3.2749,3.2508,3.2398,3.2602,3.2656,3.2437,3.2547,3.2803,3.3002,3.3002,3.3093,3.3198,3.2788,3.6605,3.6883,3.6868,3.7094,3.7381,3.7398,3.7838,3.843,3.8514,3.8734,3.9225,3.9732,4.007,4.007,4.0087,4.0254,4.0353,4.0402,4.0754,4.1019,4.1248,4.1499,4.199,4.2378,4.2382,4.2483,4.2808,4.2976,4.305,4.325,4.3444,4.3479,4.3479,4.3479,4.3479,4.3479,4.3479,4.3479,4.3479,4.3375,4.316,4.316,4.316,4.316,4.3214,4.3339,4.3375,4.3479,4.3375,4.3232,4.3178,4.3105,4.2884,4.2846,4.2808,4.277,4.2655,4.236,4.2115,4.1864,4.1622,4.1328,4.1163,4.1237,4.0918,4.0871,4.0871,4.0871,4.0871,4.0871,4.0681,4.053,4.0156,3.9671,3.8727,3.7701,3.6638,3.5562,3.4915,3.4588,3.4279,3.4078,3.3882,3.3694,3.3607,3.3203,3.3203,3.3203,3.3096,3.3112,3.3043,3.2958,3.2958,3.2812,3.2718,3.2648,3.2633,3.2617,3.2656,3.2964,3.3161,3.3161,3.3161,3.3018,3.3018,3.3214,3.3161,3.2949,3.2841,3.3039,3.3303,3.3563,3.3649,3.3751,3.3459,3.662,3.6518,3.5926,3.6011,3.6586,3.6637,3.706,3.7686,3.7801,3.7916,3.8269,3.9452,3.9881,3.9985,4.0221,4.0483,4.0707,4.0896,4.1185,4.1543,4.1717,4.2056,4.2279,4.248,4.2675,4.2865,4.3142,4.3286,4.341,4.3479,4.3479,4.3479,4.3479,4.3479,4.3479,4.3479,4.3479,4.3479,4.3479,4.3479,4.3479,4.3479,4.3444,4.3444,4.3479,4.3479,4.3479,4.3479,4.3479,4.3479,4.341,4.3375,4.3375,4.3286,4.3321,4.325,4.3087,4.2902,4.2711,4.2458,4.2074,4.1735,4.1648,4.1445,4.1117,4.0995,4.0995,4.0918,4.0918,4.0866,4.0676,4.025,3.9888,3.921,3.8176,3.7175,3.6102,3.5199,3.5017,3.4818,3.4706,3.4545,3.4415,3.4234,3.3933,3.3539,3.3346,3.3346,3.3346,3.345,3.3435,3.3471,3.3559,3.333,3.2989,3.2935,3.285,3.285,3.2926,3.3475,3.3818,3.37,3.37,3.3783,3.3834,3.3767,3.3767,3.3681,3.3563,3.3495,3.3802,3.4119,3.4202,3.4252,3.4169,3.5825,3.5808,3.5673,3.574,3.5842,3.5859,3.6265,3.7017,3.7353,3.7823,3.8287,3.8849,3.9295,3.9274,4.0326,4.078,4.0828,4.1153,4.1743,4.2175,4.232,4.2655,4.2864,4.2939,4.3178,4.3304,4.3375,4.3444,4.3479,4.3479,4.3479,4.3479,4.3479,4.3479,4.3479,4.3479,4.3479,4.3479,4.3479,4.3479,4.3479,4.3479,4.3479,4.3479,4.3479,4.3479,4.3479,4.3479,4.3479,4.3479,4.3479,4.3479,4.3479,4.3479,4.3479,4.3479,4.3339,4.3178,4.2995,4.2882,4.2498,4.2157,4.2032,4.1864,4.1622,4.1401,4.1283,4.0995,4.0965,4.0918,4.0676,3.9991,3.9508,3.8418,3.7331,3.6375,3.5382,3.5155,3.5024,3.4975,3.4911,3.4816,3.4769,3.4593,3.4464,3.4118,3.3933,3.3882,3.3642,3.3745,3.3899,3.3968,3.4052,3.3626,3.3134,3.3187,3.3171,3.3118,3.3351,3.3969,3.4252,3.4137,3.4137,3.4366,3.4235,3.407,3.4119,3.4333,3.4268,3.4219,3.4464,3.4673,3.4752,3.48,3.4673]},{"header":{"parameterUnit":"m.s-1","parameterCategory":1,"la1":31.0,"la2":29.5877,"lo1":-88.7671,"lo2":-86.6584,"dy":0.0162,"dx":0.0185,"nx":115,"ny":88,"refTime":"2023-09-11T06:00:00:Z","depth":0,"parameterNumber":3,"parameterNumberName":"V-component_of_WINDS"},"data":[0.0,0.0,0.0,0.0,0.0,0.0,0.0,0.0,0.0,0.0,0.0,0.0,0.0,0.0,0.0,0.0,0.0,0.0,0.0,0.0,0.0,0.0,0.0,0.0,0.0,0.0,0.0,0.0,0.0,0.0,0.0,0.0,0.0,0.0,0.0,0.0,0.0,0.0,0.0,0.0,0.0,0.0,0.0,0.0,0.0,0.0,0.0,0.0,0.0,0.0,0.0,0.0,0.0,0.0,0.0,0.0,0.0,0.0,0.0,0.0,0.0,0.0,0.0,0.0,0.0,0.0,0.0,0.0,0.0,0.0,0.0,0.0,0.0,0.0,0.0,0.0,0.0,0.0,0.0,0.0,0.0,0.0,0.0,0.0,0.0,0.0,0.0,0.0,0.0,0.0,0.0,0.0,0.0,0.0,0.0,0.0,0.0,0.0,0.0,0.0,0.0,0.0,0.0,0.0,0.0,0.0,0.0,0.0,0.0,0.0,0.0,0.0,0.0,0.0,0.0,0.0,0.0,0.0,0.0,0.0,0.0,0.0,0.0,0.0,0.0,0.0,0.0,0.0,0.0,0.0,0.0,0.0,0.0,0.0,0.0,0.0,0.0,0.0,0.0,0.0,0.0,0.0,0.0,0.0,0.0,0.0,0.0,0.0,0.0,0.0,0.0,0.0,0.0,0.0,0.0,0.0,0.0,0.0,0.0,0.0,0.0,0.0,0.0,0.0,0.0,0.0,0.0,0.0,0.0,0.0,0.0,0.0,0.0,0.0,0.0,0.0,0.0,0.0,0.0,0.0,0.0,0.0,0.0,0.0,0.0,0.0,0.0,0.0,0.0,0.0,0.0,0.0,0.0,0.0,0.0,0.0,0.0,0.0,0.0,0.0,0.0,0.0,0.0,0.0,0.0,0.0,0.0,0.0,0.0,0.0,0.0,0.0,0.0,0.0,0.0,0.0,0.0,0.0,0.0,0.0,0.0,0.0,0.0,0.0,0.0,0.0,0.0,0.0,0.0,0.0,0.0,0.0,0.0,0.0,0.0,0.0,0.0,0.0,0.0,0.0,0.0,0.0,0.0,0.0,0.0,0.0,0.0,0.0,0.0,0.0,0.0,0.0,0.0,0.0,0.0,0.0,0.0,0.0,0.0,0.0,0.0,0.0,0.0,0.0,0.0,0.0,0.0,0.0,0.0,0.0,0.0,0.0,0.0,0.0,0.0,0.0,0.0,0.0,0.0,0.0,0.0,0.0,0.0,0.0,0.0,0.0,0.0,0.0,0.0,0.0,0.0,0.0,0.0,0.0,0.0,0.0,0.0,0.0,0.0,0.0,0.0,0.0,0.0,0.0,0.0,0.0,0.0,0.0,0.0,0.0,0.0,0.0,0.0,0.0,0.0,0.0,0.0,0.0,0.0,0.0,0.0,0.0,0.0,0.0,0.0,0.0,0.0,0.0,0.0,0.0,0.0,0.0,0.0,0.0,0.0,0.0,0.0,0.0,0.0,0.0,0.0,0.0,0.0,0.0,0.0,0.0,0.0,0.0,0.0,0.0,0.0,0.0,0.0,0.0,0.0,0.0,0.0,0.0,0.0,0.0,0.0,0.0,0.0,0.0,0.0,0.0,0.0,0.0,0.0,0.0,0.0,0.0,0.0,0.0,0.0,0.0,0.0,0.0,0.0,0.0,0.0,0.0,0.0,0.0,0.0,0.0,0.0,0.0,0.0,0.0,0.0,0.0,0.0,0.0,0.0,0.0,0.0,0.0,0.0,0.0,0.0,0.0,0.0,0.0,0.0,0.0,0.0,0.0,0.0,0.0,0.0,0.0,0.0,0.0,0.0,0.0,0.0,0.0,0.0,0.0,0.0,0.0,0.0,0.0,0.0,0.0,0.0,0.0,0.0,0.0,0.0,0.0,0.0,0.0,0.0,0.0,0.0,0.0,0.0,0.0,0.0,0.0,0.0,0.0,0.0,0.0,0.0,0.0,0.0,0.0,0.0,0.0,0.0,0.0,0.0,0.0,0.0,0.0,0.0,0.0,0.0,0.0,0.0,0.0,0.0,0.0,0.0,0.0,0.0,0.0,0.0,0.0,0.0,0.0,0.0,0.0,0.0,0.0,0.0,0.0,0.0,0.0,0.0,0.0,0.0,0.0,0.0,0.0,0.0,0.0,0.0,0.0,0.0,0.0,0.0,0.0,0.0,0.0,0.0,0.0,0.0,0.0,0.0,0.0,0.0,0.0,0.0,0.0,0.0,0.0,0.0,0.0,0.0,0.0,0.0,0.0,0.0,0.0,0.0,0.0,0.0,0.0,0.0,0.0,0.0,0.0,0.0,0.0,0.0,0.0,0.0,0.0,0.0,0.0,0.0,0.0,0.0,0.0,0.0,0.0,0.0,0.0,0.0,0.0,0.0,0.0,0.0,0.0,0.0,0.0,0.0,0.0,0.0,0.0,0.0,0.0,0.0,0.0,0.0,0.0,0.0,0.0,0.0,0.0,0.0,0.0,0.0,0.0,0.0,0.0,0.0,0.0,0.0,0.0,0.0,0.0,0.0,0.0,0.0,0.0,0.0,0.0,0.0,0.0,0.0,0.0,0.0,0.0,0.0,0.0,0.0,0.0,0.0,0.0,0.0,0.0,0.0,0.0,0.0,0.0,0.0,0.0,0.0,0.0,0.0,0.0,0.0,0.0,0.0,0.0,0.0,0.0,0.0,0.0,0.0,0.0,0.0,0.0,0.0,0.0,0.0,0.0,0.0,0.0,0.0,0.0,0.0,0.0,0.0,0.0,0.0,0.0,0.0,0.0,0.0,0.0,0.0,0.0,0.0,0.0,0.0,0.0,0.0,0.0,0.0,0.0,0.0,0.0,0.0,0.0,0.0,0.0,0.0,0.0,0.0,0.0,0.0,0.0,0.0,0.0,0.0,0.0,0.0,0.0,0.0,0.0,0.0,0.0,0.0,0.0,0.0,0.0,0.0,0.0,0.0,0.0,0.0,0.0,0.0,0.0,0.0,0.0,0.0,0.0,0.0,0.0,0.0,0.0,0.0,0.0,0.0,0.0,0.0,0.0,0.0,0.0,0.0,0.0,0.0,0.0,0.0,0.0,0.0,0.0,0.0,0.0,0.0,0.0,0.0,0.0,0.0,0.0,0.0,0.0,0.0,0.0,0.0,0.0,0.0,0.0,0.0,0.0,0.0,0.0,0.0,0.0,0.0,0.0,0.0,0.0,0.0,0.0,0.0,0.0,0.0,0.0,0.0,0.0,0.0,0.0,0.0,0.0,0.0,0.0,0.0,0.0,0.0,0.0,0.0,0.0,0.0,0.0,0.0,0.0,0.0,0.0,0.0,0.0,0.0,0.0,0.0,0.0,0.0,0.0,0.0,0.0,0.0,0.0,0.0,0.0,0.0,0.0,0.0,0.0,0.0,0.0,0.0,0.0,0.0,0.0,0.0,0.0,0.0,0.0,0.0,0.0,0.0,0.0,0.0,0.0,0.0,0.0,0.0,0.0,0.0,0.0,0.0,0.0,0.0,0.0,0.0,0.0,0.0,0.0,0.0,0.0,0.0,0.0,0.0,0.0,0.0,0.0,0.0,0.0,0.0,0.0,0.0,0.0,0.0,0.0,0.0,0.0,0.0,0.0,0.0,0.0,0.0,0.0,0.0,0.0,0.0,0.0,0.0,0.0,0.0,0.0,0.0,0.0,0.0,0.0,0.0,0.0,0.0,0.0,0.0,0.0,0.0,0.0,0.0,0.0,0.0,0.0,0.0,0.0,0.0,0.0,0.0,0.0,0.0,0.0,0.0,0.0,0.0,0.0,0.0,0.0,0.0,0.0,0.0,0.0,0.0,0.0,0.0,0.0,0.0,0.0,0.0,0.0,0.0,0.0,0.0,0.0,0.0,0.0,0.0,0.0,0.0,0.0,0.0,0.0,0.0,0.0,0.0,0.0,0.0,0.0,0.0,0.0,0.0,0.0,0.0,0.0,0.0,0.0,0.0,0.0,0.0,0.0,0.0,0.0,0.0,0.0,0.0,0.0,0.0,0.0,0.0,0.0,0.0,0.0,0.0,0.0,0.0,0.0,0.0,0.0,0.0,0.0,0.0,0.0,0.0,0.0,0.0,0.0,0.0,0.0,0.0,0.0,0.0,0.0,0.0,0.0,0.0,0.0,0.0,0.0,0.0,0.0,0.0,0.0,0.0,0.0,0.0,0.0,0.0,0.0,0.0,0.0,0.0,0.0,0.0,0.0,0.0,0.0,0.0,0.0,0.9761,0.0,0.0,0.0,0.0,0.0,0.0,0.0,0.0,0.0,0.0,0.0,0.0,0.0,0.0,0.0,0.0,0.0,0.0,0.0,0.0,0.0,0.0,0.0,0.0,0.0,0.0,0.0,0.0,0.0,0.0,0.0,0.0,0.0,0.0,0.0,0.0,0.0,0.0,0.0,0.0,0.0,0.0,0.0,0.0,0.0,0.0,0.0,0.0,0.0,0.0,0.0,0.0,0.0,0.0,0.0,0.0,0.0,0.0,0.0,0.0,0.0,0.0,0.0,0.0,0.0,0.0,0.0,0.0,0.0,0.0,0.0,0.0,0.0,0.0,0.0,0.0,0.0,0.0,0.0,0.0,0.0,0.0,0.0,0.0,0.0,0.0,0.0,0.0,0.0,0.0,0.0,0.0,0.0,0.0,0.0,0.0,0.0,0.0,0.0,0.0,0.0,0.0,0.0,0.0,0.0,0.0,0.0,0.0,0.0,0.0,1.2777,1.2374,1.1821,1.1328,1.0895,0.0,0.0,0.0,0.0,0.0,0.0,0.0,0.0,0.0,0.0,0.0,0.0,0.0,0.0,0.0,0.0,0.0,0.0,0.0,0.0,0.0,0.0,0.0,0.0,0.0,0.0,0.0,0.0,0.0,0.0,0.0,0.0,0.0,0.0,0.0,0.0,0.0,0.0,0.0,0.0,0.0,0.0,0.0,0.0,0.0,0.0,0.0,0.0,0.0,0.0,0.0,0.0,0.0,0.0,0.0,0.0,0.0,0.0,0.0,0.0,0.0,0.0,0.0,0.0,0.0,0.0,0.0,0.0,0.0,0.0,0.0,0.0,0.0,0.0,0.0,0.0,0.0,0.0,0.0,0.0,0.0,0.0,0.0,0.0,0.0,0.0,0.0,0.0,0.0,0.0,0.0,0.0,0.0,0.0,0.0,0.0,0.0,0.0,0.0,0.0,0.0,0.0,0.0,0.0,0.0,0.0,0.0,0.0,0.0,0.0,0.0,0.0,1.2881,1.2372,1.168,0.0,0.0,0.0,0.0,0.0,0.0,0.0,0.0,0.0,0.0,0.0,0.0,0.0,0.0,0.0,0.0,0.0,0.0,0.0,0.0,0.0,0.0,0.0,0.0,0.0,0.0,0.0,0.0,0.0,0.0,0.0,0.0,0.0,0.0,0.0,0.0,0.0,0.0,0.0,0.0,0.0,0.0,0.0,0.0,0.0,0.0,0.0,0.0,0.0,0.0,0.0,0.0,0.0,0.0,0.0,0.0,0.0,0.0,0.0,0.0,0.0,0.0,0.0,0.0,0.0,0.0,0.0,0.0,0.0,0.0,0.0,0.0,0.0,0.0,0.0,0.0,0.0,0.0,0.0,0.0,0.0,0.0,0.0,0.0,0.0,0.0,0.0,0.0,0.0,0.0,0.0,0.0,0.0,0.0,0.0,0.0,0.0,0.0,0.0,0.0,0.0,0.0,0.0,0.0,0.0,0.0,0.0,0.0,0.0,0.0,1.3769,1.37,1.3236,0.0,1.1609,0.0,0.0,0.0,0.0,0.0,0.0,0.0,0.0,0.0,0.0,0.0,0.0,0.0,0.0,0.0,0.0,0.0,0.0,0.0,0.0,0.0,0.0,0.0,0.0,0.0,0.0,0.0,0.0,0.0,0.0,0.0,0.0,0.0,0.0,0.0,0.0,0.0,0.0,0.0,0.0,0.0,0.0,0.0,0.0,0.0,0.0,0.0,0.0,0.0,0.0,0.0,0.0,0.0,0.0,0.0,0.0,0.0,0.0,0.0,0.0,0.0,0.0,0.0,0.0,0.0,0.0,0.0,0.0,0.0,0.0,0.0,0.0,0.0,0.0,0.0,0.0,0.0,0.0,0.0,0.0,0.0,0.0,0.0,0.0,0.0,0.0,0.0,0.0,0.0,0.0,0.0,0.0,0.0,0.0,0.0,0.0,0.0,0.0,0.0,0.0,0.0,0.0,0.0,0.0,0.0,0.0,0.0,0.0,0.0,0.0,1.4198,1.4079,1.374,1.3213,0.0,0.0,0.0,0.0,0.0,0.0,0.0,0.0,0.0,0.0,0.0,0.0,0.0,0.0,0.0,0.0,0.0,0.0,0.0,0.0,0.0,0.0,0.0,0.0,0.0,0.0,0.0,0.0,0.0,0.0,0.0,0.0,0.0,0.0,0.0,0.0,0.0,0.0,0.0,0.0,0.0,0.0,0.0,0.0,0.0,0.0,0.0,0.0,0.0,0.0,0.0,0.0,0.0,0.0,0.0,0.0,0.0,0.0,0.0,0.0,0.0,0.0,0.0,0.0,0.0,0.0,0.0,0.0,0.0,0.0,0.0,0.0,0.0,0.0,0.0,0.0,0.0,0.0,0.0,0.0,0.0,0.0,0.0,0.0,0.0,0.0,0.0,0.0,0.0,0.0,0.0,0.0,0.0,0.0,0.0,0.0,0.0,0.0,0.0,0.0,0.0,0.0,0.0,0.0,0.0,0.0,0.0,0.0,0.0,0.0,1.4451,1.4455,1.4336,1.4198,1.3821,1.3077,0.0,0.0,0.0,0.0,0.0,0.0,0.0,0.0,0.0,0.0,0.0,0.0,0.0,0.0,0.0,0.0,0.0,0.0,0.0,0.0,0.0,0.0,0.0,0.0,0.0,0.0,0.0,0.0,0.0,0.0,0.0,0.0,0.0,0.0,0.0,0.0,0.0,0.0,0.0,0.0,0.0,0.0,0.0,0.0,0.0,0.0,0.0,0.0,0.0,0.0,0.0,0.0,0.0,0.0,0.0,0.0,0.0,0.0,0.0,0.0,0.0,0.0,0.0,0.0,0.0,0.0,0.0,0.0,0.0,0.0,0.0,0.0,0.0,0.0,0.0,0.0,0.0,0.0,0.0,0.0,0.0,0.0,0.0,0.0,0.0,0.0,0.0,0.0,0.0,0.0,0.0,0.0,0.0,0.0,0.0,0.0,0.0,0.0,0.0,0.0,0.0,0.0,0.0,0.0,0.0,0.0,0.0,0.0,1.3947,1.4304,1.4515,1.4515,1.4446,1.413,0.0,0.0,0.0,0.0,0.0,0.0,0.0,0.0,0.0,0.0,0.0,0.0,0.0,0.0,0.0,0.0,0.0,0.0,0.0,0.0,0.0,0.0,0.0,0.0,0.0,0.0,0.0,0.0,0.0,0.0,0.0,0.0,0.0,0.0,0.0,0.0,0.0,0.0,0.0,0.0,0.0,0.0,0.0,0.0,0.0,0.0,0.0,0.0,0.0,0.0,0.0,0.0,0.0,0.0,0.0,0.0,0.0,0.0,0.0,0.0,0.0,0.0,0.0,0.0,0.0,0.0,0.0,0.0,0.0,0.0,0.0,0.0,0.0,0.0,0.0,0.0,0.0,0.0,0.0,0.0,0.0,0.0,0.0,0.0,0.0,0.0,0.0,0.0,0.0,0.0,0.0,0.0,0.0,0.0,0.0,0.0,0.0,0.0,0.0,0.0,0.0,0.0,0.0,0.0,0.0,0.0,0.0,0.0,0.0,1.391,1.4295,1.4515,1.4506,1.4249,1.3855,0.0,0.0,0.0,0.0,0.0,0.0,0.0,0.0,0.0,0.0,0.0,0.0,0.0,0.0,0.0,0.0,0.0,0.0,0.0,0.0,0.0,0.0,0.0,0.0,0.0,0.0,0.0,0.0,0.0,0.0,0.0,0.0,0.0,0.0,0.0,0.0,0.0,0.0,0.0,0.0,0.0,0.0,0.0,0.0,0.0,0.0,0.0,0.0,0.0,0.0,0.0,0.0,0.0,0.0,0.0,0.0,0.0,0.0,0.0,0.0,0.0,0.0,0.0,0.0,0.0,0.0,0.0,0.0,0.0,0.0,0.0,0.0,0.0,0.0,0.0,0.0,0.0,0.0,0.0,0.0,0.0,0.0,0.0,0.0,0.0,0.0,0.0,0.0,0.0,0.0,0.0,0.0,0.0,0.0,0.0,0.0,0.0,0.0,0.0,0.0,0.0,0.0,0.0,0.0,0.0,0.0,0.0,0.0,0.0,1.4084,0.0,1.4515,1.4506,1.4231,1.3846,0.0,0.0,0.0,0.0,0.0,0.0,0.0,0.0,0.0,0.0,0.0,0.0,0.0,0.0,0.0,0.0,0.0,0.0,0.0,0.0,0.0,0.0,0.0,0.0,0.0,0.0,0.0,0.0,0.0,0.0,0.0,0.0,0.0,0.0,0.0,0.0,0.0,0.0,0.0,0.0,0.0,0.0,0.0,0.0,0.0,0.0,0.0,0.0,0.0,0.0,0.0,0.0,0.0,0.0,0.0,0.0,0.0,0.0,0.0,0.0,0.0,0.0,0.0,0.0,0.0,0.0,0.0,0.0,0.0,0.0,0.0,0.0,0.0,0.0,0.0,0.0,0.0,0.0,0.0,0.0,0.0,0.0,0.0,0.0,0.0,0.0,0.0,0.0,0.0,0.0,0.0,0.0,0.0,0.0,0.0,0.0,0.0,0.0,0.0,0.0,0.0,0.0,0.0,0.0,0.0,0.0,0.0,0.0,1.4084,1.4488,1.4506,1.4515,1.4515,1.4478,1.4112,0.0,0.0,0.0,0.0,0.0,0.0,0.0,0.0,0.0,0.0,0.0,0.0,0.0,0.0,0.0,0.0,0.0,0.0,0.0,0.0,0.0,0.0,0.0,0.0,0.0,0.0,0.0,0.0,0.0,0.0,0.0,0.0,0.0,0.0,0.0,0.0,0.0,0.0,0.0,0.0,0.0,0.0,0.0,0.0,0.0,0.0,0.0,0.0,0.0,0.0,0.0,0.0,0.0,0.0,0.0,0.0,0.0,0.0,0.0,0.0,0.0,0.0,0.0,0.0,0.0,0.0,0.0,0.0,0.0,0.0,0.0,0.0,0.0,0.0,0.0,0.0,0.0,0.0,0.0,0.0,0.0,0.0,0.0,0.0,0.0,0.0,0.0,0.0,0.0,0.0,0.0,0.0,0.0,0.0,0.0,0.0,0.0,0.0,0.0,0.0,0.0,0.0,0.0,0.0,0.0,0.0,0.0,0.0,0.0,1.4497,1.4515,1.4515,1.4506,1.4231,1.3827,0.0,0.0,0.0,0.0,0.0,0.0,0.0,0.0,0.0,0.0,0.0,0.0,0.0,0.0,0.0,0.0,0.0,0.0,0.0,0.0,0.0,0.0,0.0,0.0,0.0,0.0,0.0,0.0,0.0,0.0,0.0,0.0,0.0,0.0,0.0,0.0,0.0,0.0,0.0,0.0,0.0,0.0,0.0,0.0,0.0,0.0,0.0,0.0,0.0,0.0,0.0,0.0,0.0,0.0,0.0,0.0,0.0,0.0,0.0,0.0,0.0,0.0,0.0,0.0,0.0,0.0,0.0,0.0,0.0,0.0,0.0,0.0,0.0,0.0,0.0,0.0,0.0,0.0,0.0,0.0,0.0,0.0,0.0,0.0,0.0,0.0,0.0,0.0,0.0,0.0,0.0,0.0,0.0,0.0,0.0,0.0,0.0,0.0,0.0,0.0,0.0,0.0,0.0,0.0,0.0,0.0,0.0,0.0,0.0,1.4497,1.4515,1.4515,1.4515,1.4258,1.3928,1.3525,0.0,0.0,0.0,0.0,0.0,0.0,0.0,0.0,0.0,0.0,0.0,0.0,0.0,0.0,0.0,0.0,0.0,0.0,0.0,0.0,0.0,0.0,0.0,0.0,0.0,0.0,0.0,0.0,0.0,0.0,0.0,0.0,0.0,0.0,0.0,0.0,0.0,0.0,0.0,0.0,0.0,0.0,0.0,0.0,0.0,0.0,0.0,0.0,0.0,0.0,0.0,0.0,0.0,0.0,0.0,0.0,0.0,0.0,0.0,0.0,0.0,0.0,0.0,0.0,0.0,0.0,0.0,0.0,0.0,0.0,0.0,0.0,0.0,0.0,0.0,0.0,0.0,0.0,0.0,0.0,0.0,0.0,0.0,0.0,0.0,0.0,0.0,0.0,0.0,0.0,0.0,0.0,0.0,0.0,0.0,0.0,0.0,0.0,0.0,0.0,0.0,0.0,0.0,0.0,0.0,0.0,0.0,0.0,1.4506,1.4515,1.4515,1.4515,1.4506,1.4313,0.0,0.0,0.0,0.0,0.0,0.0,0.0,0.0,0.0,0.0,0.0,0.0,0.0,0.0,0.0,0.0,0.0,0.0,0.0,0.0,0.0,0.0,0.0,0.0,0.0,0.0,0.0,0.0,0.0,0.0,0.0,0.0,0.0,0.0,0.0,0.0,0.0,0.0,0.0,0.0,0.0,0.0,0.0,0.0,0.0,0.0,0.0,0.0,0.0,0.0,0.0,0.0,0.0,0.0,0.0,0.0,0.0,0.0,0.0,0.0,0.0,0.0,0.0,0.0,0.0,0.0,0.0,0.0,0.0,0.0,0.0,0.0,0.0,0.0,0.0,0.0,0.0,0.0,0.0,0.0,0.0,0.0,0.0,0.0,0.0,0.0,0.0,0.0,0.0,0.0,0.0,0.0,0.0,0.0,0.0,0.0,0.0,0.0,0.0,0.0,0.0,0.0,0.0,0.0,0.0,0.0,0.0,0.0,0.0,1.4515,1.4515,1.4515,1.4515,1.4515,1.4313,0.0,0.0,0.0,0.0,0.0,0.0,0.0,0.0,0.0,0.0,0.0,0.0,0.0,0.0,0.0,0.0,0.0,0.0,0.0,0.0,0.0,0.0,0.0,0.0,0.0,0.0,0.0,0.0,0.0,0.0,0.0,0.0,0.0,0.0,0.0,0.0,0.0,0.0,0.0,0.0,0.0,0.0,0.0,0.0,0.0,0.0,0.0,0.0,0.0,0.0,0.0,0.0,0.0,0.0,0.0,0.0,0.0,0.0,0.0,0.0,0.0,0.0,0.0,0.0,0.0,0.0,0.0,0.0,0.0,0.0,0.0,0.0,0.0,0.0,0.0,0.0,0.0,0.0,0.0,0.0,0.0,0.0,0.0,0.0,0.0,0.0,0.0,0.0,0.0,0.0,0.0,0.0,0.0,0.0,0.0,0.0,0.0,0.0,0.0,0.0,0.0,0.0,0.0,0.0,0.0,0.0,0.0,0.0,1.501,1.501,1.501,1.4928,1.4763,1.4598,1.4405,0.0,0.0,0.0,0.0,0.0,0.0,0.0,0.0,0.0,0.0,0.0,0.0,0.0,0.0,0.0,0.0,0.0,0.0,0.0,0.0,0.0,0.0,0.0,0.0,0.0,0.0,0.0,0.0,0.0,0.0,0.0,0.0,0.0,0.0,0.0,0.0,0.0,0.0,0.0,0.0,0.0,0.0,0.0,0.0,0.0,0.0,0.0,0.0,0.0,0.0,0.0,0.0,0.0,0.0,0.0,0.0,0.0,0.0,0.0,0.0,0.0,0.0,0.0,0.0,0.0,0.0,0.0,0.0,0.0,0.0,0.0,0.0,0.0,0.0,0.0,0.0,0.0,0.0,0.0,0.0,0.0,0.0,0.0,0.0,0.0,0.0,0.0,0.0,0.0,0.0,0.0,0.0,0.0,0.0,0.0,0.0,0.0,0.0,0.0,0.0,0.0,0.0,0.0,0.0,0.0,0.0,0.0,0.0,1.5689,1.5689,1.5689,1.5524,1.5166,1.4781,1.4552,0.0,0.0,0.0,0.0,0.0,0.0,0.0,0.0,0.0,0.0,0.0,0.0,0.0,0.0,0.0,0.0,0.0,0.0,0.0,0.0,0.0,0.0,0.0,0.0,0.0,0.0,0.0,0.0,0.0,0.0,0.0,0.0,0.0,0.0,0.0,0.0,0.0,0.0,0.0,0.0,0.0,0.0,0.0,0.0,0.0,0.0,0.0,0.0,0.0,0.0,0.0,0.0,0.0,0.0,0.0,0.0,0.0,0.0,0.0,0.0,0.0,0.0,0.0,0.0,0.0,0.0,0.0,0.0,0.0,0.0,0.0,0.0,0.0,0.0,0.0,0.0,0.0,0.0,0.0,0.0,0.0,0.0,0.0,0.0,0.0,0.0,0.0,0.0,0.0,0.0,0.0,0.0,0.0,0.0,0.0,0.0,0.0,0.0,0.0,0.0,0.0,0.0,0.0,0.0,0.0,0.0,0.0,0.0,1.5689,1.5689,1.5689,1.5652,1.556,1.5184,1.4836,0.0,0.0,0.0,0.0,0.0,0.0,0.0,0.0,0.0,0.0,0.0,0.0,0.0,0.0,0.0,0.0,0.0,0.0,0.0,0.0,0.0,0.0,0.0,0.0,0.0,0.0,0.0,0.0,0.0,0.0,0.0,0.0,0.0,0.0,0.0,0.0,0.0,0.0,0.0,0.0,0.0,0.0,0.0,0.0,0.0,0.0,0.0,0.0,1.3994,0.0,0.0,0.0,0.0,0.0,0.0,0.0,0.0,0.0,0.0,0.0,0.0,0.0,0.0,0.0,0.0,0.0,0.0,0.0,0.0,0.0,0.0,0.0,0.0,0.0,0.0,0.0,0.0,0.0,0.0,0.0,0.0,0.0,0.0,0.0,0.0,0.0,0.0,0.0,0.0,0.0,0.0,0.0,0.0,0.0,0.0,0.0,0.0,0.0,0.0,0.0,0.0,0.0,0.0,0.0,0.0,0.0,0.0,0.0,1.6257,1.6257,1.6266,1.6175,1.5991,1.578,1.5478,0.0,0.0,0.0,0.0,0.0,0.0,0.0,0.0,0.0,0.0,0.0,0.0,0.0,0.0,0.0,0.0,0.0,0.0,0.0,0.0,0.0,0.0,0.0,0.0,0.0,0.0,0.0,0.0,0.0,0.0,0.0,0.0,0.0,0.0,0.0,0.0,0.0,0.0,0.0,0.0,0.0,0.0,0.0,0.0,0.0,0.0,0.0,0.0,0.0,0.0,0.0,0.0,0.0,0.0,0.0,0.0,0.0,0.0,0.0,0.0,0.0,0.0,0.0,0.0,0.0,0.0,0.0,0.0,0.0,0.0,0.0,0.0,0.0,0.0,0.0,0.0,0.0,0.0,0.0,0.0,0.0,0.0,0.0,0.0,0.0,0.0,0.0,0.0,0.0,0.0,0.0,0.0,0.0,0.0,0.0,0.0,0.0,0.0,0.0,0.0,0.0,0.0,0.0,0.0,0.0,0.0,0.0,1.6496,1.6908,1.6908,1.6908,1.6743,1.6422,1.6413,1.6239,1.5881,0.0,0.0,0.0,0.0,0.0,0.0,0.0,0.0,0.0,0.0,0.0,0.0,0.0,0.0,0.0,0.0,0.0,0.0,0.0,0.0,0.0,0.0,0.0,0.0,0.0,0.0,0.0,0.0,0.0,0.0,0.0,0.0,0.0,0.0,0.0,0.0,0.0,0.0,1.2934,1.3689,0.0,0.0,0.0,0.0,0.0,0.0,0.0,0.0,1.5659,0.0,0.0,0.0,0.0,0.0,0.0,0.0,0.0,0.0,0.0,0.0,0.0,0.0,0.0,0.0,0.0,0.0,0.0,0.0,0.0,0.0,0.0,0.0,0.0,0.0,0.0,0.0,0.0,0.0,0.0,0.0,0.0,0.0,0.0,0.0,0.0,0.0,0.0,0.0,0.0,0.0,0.0,0.0,0.0,0.0,0.0,0.0,0.0,0.0,0.0,0.0,0.0,0.0,0.0,0.0,0.0,1.5698,1.6486,1.6908,1.6908,1.6908,1.6872,1.6817,1.6807,1.678,1.667,0.0,0.0,0.0,0.0,0.0,0.0,0.0,0.0,0.0,0.0,0.0,0.0,0.0,0.0,0.0,0.0,0.0,0.0,0.0,0.0,0.0,0.0,0.0,0.0,0.0,0.0,0.0,0.0,0.0,0.0,0.0,0.0,0.0,0.0,0.0,0.0,0.0,0.0,0.0,1.4441,1.4877,0.0,0.0,0.0,0.0,0.0,0.0,0.0,0.0,1.6362,0.0,0.0,0.0,0.0,0.0,0.0,0.0,0.0,0.0,0.0,0.0,0.0,0.0,0.0,0.0,0.0,0.0,0.0,0.0,0.0,0.0,0.0,0.0,0.0,0.0,0.0,0.0,0.0,0.0,0.0,0.0,0.0,0.0,0.0,0.0,0.0,0.0,0.0,0.0,0.0,0.0,0.0,0.0,0.0,0.0,0.0,0.0,0.0,0.0,0.0,0.0,0.0,0.0,0.0,0.0,1.5735,1.6486,1.6908,1.6908,1.6908,1.6978,1.7038,1.7038,1.7116,0.0,0.0,0.0,0.0,0.0,0.0,0.0,0.0,0.0,0.0,0.0,0.0,0.0,0.0,0.0,0.0,0.0,0.0,0.0,0.0,0.0,0.0,0.0,0.0,0.0,0.0,0.0,0.0,0.0,0.0,0.0,0.0,0.0,0.0,0.0,0.0,0.0,0.0,0.0,0.0,1.5061,1.5576,1.5676,0.0,0.0,0.0,0.0,0.0,0.0,1.6915,1.7046,0.0,0.0,0.0,0.0,0.0,0.0,0.0,0.0,0.0,0.0,0.0,0.0,0.0,0.0,0.0,0.0,0.0,0.0,0.0,0.0,0.0,0.0,0.0,0.0,0.0,0.0,0.0,0.0,0.0,0.0,0.0,0.0,0.0,0.0,0.0,0.0,0.0,0.0,0.0,0.0,0.0,0.0,0.0,0.0,0.0,0.0,0.0,0.0,0.0,0.0,0.0,0.0,0.0,0.0,0.0,1.5716,1.6554,1.6978,1.6968,1.6978,1.7116,1.7245,1.7245,1.7314,0.0,0.0,0.0,0.0,0.0,0.0,0.0,0.0,0.0,0.0,0.0,0.0,0.0,0.0,0.0,0.0,0.0,0.0,0.0,0.0,0.0,0.0,0.0,0.0,0.0,0.0,0.0,0.0,0.0,0.0,0.0,0.0,0.0,0.0,0.0,0.0,0.0,0.0,0.0,0.0,0.0,1.6276,1.6214,1.6092,0.0,0.0,0.0,0.0,1.7306,1.7658,0.0,0.0,0.0,0.0,0.0,0.0,0.0,0.0,0.0,0.0,0.0,0.0,0.0,0.0,0.0,0.0,0.0,0.0,0.0,0.0,0.0,0.0,0.0,0.0,0.0,0.0,0.0,0.0,0.0,0.0,0.0,0.0,0.0,0.0,0.0,0.0,0.0,0.0,0.0,0.0,0.0,0.0,0.0,0.0,0.0,0.0,0.0,0.0,0.0,0.0,0.0,0.0,0.0,0.0,0.0,0.0,1.5725,1.6689,1.7166,1.7166,1.7332,1.747,1.747,1.747,1.7461,0.0,0.0,0.0,0.0,0.0,0.0,0.0,0.0,0.0,0.0,0.0,0.0,0.0,0.0,0.0,0.0,0.0,0.0,0.0,0.0,0.0,0.0,0.0,0.0,0.0,0.0,0.0,0.0,0.0,0.0,0.0,0.0,0.0,0.0,0.0,0.0,0.0,0.0,0.0,0.0,0.0,1.6987,1.7185,1.7099,1.6928,0.0,0.0,1.7295,1.7369,1.8278,0.0,0.0,0.0,0.0,0.0,0.0,0.0,0.0,0.0,0.0,0.0,0.0,0.0,0.0,0.0,0.0,0.0,0.0,0.0,0.0,0.0,0.0,0.0,0.0,0.0,0.0,0.0,0.0,0.0,0.0,0.0,0.0,0.0,0.0,0.0,0.0,0.0,0.0,0.0,0.0,0.0,0.0,0.0,0.0,0.0,0.0,0.0,0.0,0.0,0.0,0.0,0.0,0.0,0.0,0.0,1.6,1.6028,1.6891,1.7392,1.7382,1.747,1.7529,1.7579,1.7735,1.7872,0.0,0.0,0.0,0.0,0.0,0.0,0.0,0.0,0.0,0.0,0.0,0.0,0.0,0.0,0.0,0.0,0.0,0.0,0.0,0.0,0.0,0.0,0.0,0.0,0.0,0.0,0.0,0.0,0.0,0.0,0.0,0.0,0.0,0.0,0.0,0.0,0.0,0.0,0.0,0.0,0.0,0.0,1.7806,1.7512,0.0,0.0,0.0,1.8072,1.7977,0.0,0.0,0.0,0.0,0.0,0.0,0.0,0.0,0.0,0.0,0.0,0.0,0.0,0.0,0.0,0.0,0.0,0.0,0.0,0.0,0.0,0.0,0.0,0.0,0.0,0.0,0.0,0.0,0.0,0.0,0.0,0.0,0.0,0.0,0.0,0.0,0.0,0.0,0.0,0.0,0.0,0.0,0.0,0.0,0.0,0.0,0.0,0.0,0.0,0.0,0.0,0.0,0.0,0.0,0.0,0.0,0.0,1.6211,1.7092,1.752,1.752,1.7608,1.7666,1.7784,1.793,0.0,0.0,0.0,0.0,0.0,0.0,0.0,0.0,0.0,0.0,0.0,0.0,0.0,0.0,0.0,0.0,0.0,0.0,0.0,0.0,0.0,0.0,0.0,0.0,0.0,0.0,0.0,1.3204,0.0,0.0,0.0,0.0,0.0,0.0,0.0,0.0,0.0,0.0,0.0,0.0,0.0,0.0,1.815,1.8139,1.7817,1.7702,0.0,0.0,1.8518,1.8476,1.9128,1.9392,0.0,0.0,0.0,0.0,0.0,0.0,0.0,0.0,0.0,0.0,0.0,0.0,0.0,0.0,0.0,0.0,0.0,0.0,0.0,0.0,0.0,0.0,0.0,0.0,0.0,0.0,0.0,0.0,0.0,0.0,0.0,0.0,0.0,0.0,0.0,0.0,0.0,0.0,0.0,0.0,0.0,0.0,0.0,0.0,0.0,0.0,0.0,0.0,0.0,0.0,0.0,0.0,0.0,0.0,1.6192,1.622,1.714,1.7706,1.7716,1.7872,1.794,1.794,1.8008,1.8076,0.0,0.0,0.0,0.0,0.0,0.0,0.0,0.0,0.0,0.0,0.0,0.0,0.0,0.0,0.0,0.0,0.0,0.0,0.0,0.0,0.0,0.0,0.0,0.0,0.0,0.0,0.0,0.0,0.0,0.0,0.0,0.0,0.0,0.0,0.0,0.0,0.0,0.0,0.0,0.0,0.0,1.8139,1.8367,1.817,1.8147,0.0,1.8464,1.8464,1.856,1.9171,1.9416,1.8881,0.0,0.0,0.0,0.0,0.0,0.0,0.0,0.0,0.0,0.0,0.0,0.0,0.0,0.0,0.0,0.0,0.0,0.0,0.0,0.0,0.0,0.0,0.0,0.0,0.0,0.0,0.0,0.0,0.0,0.0,0.0,0.0,0.0,0.0,0.0,0.0,0.0,0.0,0.0,0.0,0.0,0.0,0.0,0.0,0.0,0.0,0.0,0.0,0.0,0.0,0.0,0.0,0.0,1.6529,1.6538,1.7435,1.7862,1.7852,1.794,1.8008,1.8008,1.8144,1.8279,0.0,0.0,0.0,0.0,0.0,0.0,0.0,0.0,0.0,0.0,0.0,0.0,0.0,0.0,0.0,0.0,0.0,0.0,0.0,0.0,0.0,0.0,0.0,0.0,0.0,0.0,0.0,0.0,1.609,1.6184,1.6081,0.0,0.0,0.0,0.0,0.0,0.0,0.0,0.0,0.0,0.0,1.8367,1.8518,1.8452,0.0,0.0,1.8896,1.9045,1.878,1.928,1.9545,1.903,1.9167,0.0,0.0,0.0,0.0,0.0,0.0,0.0,0.0,0.0,0.0,0.0,0.0,0.0,0.0,0.0,0.0,0.0,0.0,0.0,0.0,0.0,0.0,0.0,0.0,0.0,0.0,0.0,0.0,0.0,0.0,0.0,0.0,0.0,0.0,0.0,0.0,0.0,0.0,0.0,0.0,0.0,0.0,0.0,0.0,0.0,0.0,0.0,0.0,0.0,0.0,0.0,0.0,1.6782,1.6792,1.7578,1.8076,1.8327,1.8269,1.8395,1.8596,1.8529,1.8607,0.0,0.0,0.0,0.0,0.0,0.0,0.0,0.0,0.0,0.0,0.0,0.0,0.0,0.0,0.0,0.0,0.0,0.0,0.0,0.0,0.0,0.0,0.0,0.0,0.0,0.0,0.0,0.0,1.6908,1.6863,1.6507,0.0,0.0,0.0,0.0,0.0,0.0,0.0,0.0,0.0,0.0,1.8518,1.8625,1.8614,1.8602,1.8721,1.9095,1.9214,1.8899,1.9258,1.942,1.9047,0.0,0.0,0.0,0.0,0.0,0.0,0.0,0.0,0.0,0.0,0.0,0.0,0.0,0.0,0.0,0.0,0.0,0.0,0.0,0.0,0.0,0.0,0.0,0.0,0.0,0.0,0.0,1.3532,0.0,0.0,1.4355,0.0,0.0,0.0,0.0,0.0,0.0,0.0,0.0,0.0,0.0,0.0,0.0,0.0,0.0,0.0,0.0,0.0,0.0,0.0,0.0,0.0,0.0,1.6981,1.6991,1.7644,1.8327,1.8921,1.8977,1.9243,1.9966,1.9375,1.911,1.9288,0.0,0.0,0.0,0.0,0.0,0.0,0.0,0.0,0.0,0.0,0.0,0.0,0.0,0.0,0.0,0.0,0.0,0.0,0.0,0.0,0.0,0.0,0.0,0.0,0.0,0.0,1.713,1.7329,1.7174,0.0,0.0,0.0,0.0,0.0,0.0,0.0,0.0,0.0,0.0,1.853,1.8691,1.8822,1.8691,1.878,1.8982,1.894,1.8875,1.9035,1.9035,1.8999,0.0,0.0,0.0,0.0,0.0,0.0,0.0,0.0,0.0,0.0,0.0,0.0,0.0,0.0,0.0,0.0,0.0,0.0,0.0,0.0,0.0,0.0,0.0,0.0,0.0,0.0,0.0,1.5265,1.5126,0.0,0.0,0.0,0.0,0.0,0.0,0.0,0.0,0.0,0.0,0.0,1.6138,1.6329,0.0,0.0,0.0,0.0,0.0,0.0,0.0,0.0,0.0,0.0,0.0,0.0,1.711,1.7417,1.7782,1.8144,1.8337,1.8337,1.8664,1.9365,1.911,1.9228,1.969,0.0,0.0,0.0,0.0,0.0,0.0,0.0,0.0,0.0,0.0,0.0,0.0,0.0,0.0,0.0,0.0,0.0,0.0,0.0,0.0,0.0,0.0,0.0,0.0,0.0,1.6961,0.0,0.0,0.0,0.0,0.0,0.0,0.0,0.0,0.0,0.0,0.0,1.9101,1.9211,1.9562,1.9832,1.9957,1.9969,1.9957,0.0,0.0,0.0,0.0,0.0,0.0,0.0,0.0,0.0,0.0,0.0,0.0,0.0,0.0,1.93,1.859,1.8181,1.7941,1.7941,0.0,0.0,0.0,0.0,0.0,0.0,0.0,0.0,0.0,0.0,0.0,0.0,0.0,0.0,1.6166,0.0,1.5873,0.0,0.0,0.0,0.0,0.0,0.0,0.0,0.0,1.6626,1.6693,1.6749,1.6833,1.6973,0.0,1.7103,1.7178,0.0,0.0,0.0,0.0,0.0,0.0,0.0,0.0,1.7584,1.8005,1.7984,1.8337,1.9054,1.8854,1.9187,2.0085,1.9901,1.9814,1.9965,1.9753,1.9596,0.0,0.0,0.0,0.0,0.0,0.0,0.0,0.0,0.0,0.0,0.0,0.0,0.0,0.0,0.0,0.0,0.0,0.0,0.0,0.0,0.0,0.0,0.0,1.7432,0.0,0.0,0.0,0.0,0.0,0.0,0.0,0.0,0.0,1.8312,1.9101,1.9755,1.9844,2.0244,2.0483,2.061,0.0,0.0,0.0,0.0,0.0,0.0,0.0,2.0682,2.0863,2.0899,2.1007,2.1344,2.1404,2.1223,2.0706,0.0,0.0,1.966,1.9275,1.9035,1.9047,1.9035,1.9047,1.9035,1.9312,1.966,0.0,0.0,0.0,0.0,0.0,0.0,0.0,0.0,1.6523,1.6542,0.0,1.6513,0.0,0.0,0.0,0.0,1.6714,1.6954,0.0,0.0,1.7398,1.7579,1.7696,1.7687,1.7784,1.7998,1.7988,1.7998,1.7978,1.7197,0.0,0.0,0.0,0.0,0.0,0.0,1.8328,1.8818,1.8328,1.8988,2.0805,2.0355,2.0752,2.2061,2.1463,2.0805,2.0226,2.0462,2.0378,1.9992,2.0243,0.0,0.0,0.0,0.0,0.0,0.0,0.0,0.0,0.0,0.0,0.0,0.0,0.0,0.0,0.0,0.0,0.0,0.0,0.0,0.0,1.7744,0.0,0.0,0.0,0.0,0.0,0.0,0.0,0.0,0.0,0.0,1.958,2.0037,2.0449,2.0485,0.0,0.0,0.0,0.0,2.073,2.0754,2.073,2.073,2.0706,2.073,2.0923,2.1416,0.0,0.0,2.15,2.1512,2.1404,2.0827,2.0827,2.0706,2.0706,2.0598,2.0538,2.0595,2.0526,2.0622,2.068,2.0701,2.0773,1.8418,0.0,0.0,0.0,0.0,1.7519,1.7503,1.736,1.735,1.736,1.7331,1.7042,0.0,0.0,0.0,0.0,0.0,0.0,1.7463,1.7755,1.7823,1.7872,1.793,1.793,1.794,1.8008,1.8008,1.8164,1.8437,1.8213,1.7917,1.765,0.0,0.0,0.0,0.0,1.8222,1.8461,1.8593,1.8787,1.8844,1.9704,2.0484,2.1388,2.1726,2.18,2.1612,2.1198,2.1066,2.1315,2.0561,0.0,0.0,0.0,0.0,0.0,0.0,0.0,0.0,0.0,0.0,0.0,0.0,0.0,0.0,0.0,0.0,0.0,0.0,0.0,1.7993,1.8317,1.8312,0.0,0.0,0.0,0.0,0.0,0.0,0.0,0.0,0.0,2.1404,2.1248,2.1248,0.0,0.0,2.2426,2.2811,2.2871,2.2871,2.2871,2.2859,0.0,2.2859,2.2859,2.2907,2.3063,2.3388,2.352,2.3147,2.3376,2.346,2.2943,2.2871,2.2871,2.2775,2.1596,2.0867,2.1099,2.1223,2.1316,2.1782,2.2172,2.2689,1.9209,1.8154,1.8408,1.8369,1.8164,1.8408,1.8436,1.8286,1.8356,1.8356,1.8346,1.8085,1.8056,1.8125,1.7861,0.0,0.0,0.0,1.8271,1.8516,1.8516,1.8516,1.8516,1.8516,1.8516,1.8516,1.8516,1.8643,1.8887,1.8978,1.8994,1.9018,0.0,0.0,1.9256,1.9245,1.9593,2.0105,2.0115,2.0126,2.0328,2.0939,2.1342,2.1537,2.1987,2.2197,2.2197,2.1788,2.1663,2.1987,2.1295,2.0976,0.0,0.0,0.0,0.0,0.0,0.0,0.0,0.0,0.0,0.0,0.0,1.6053,1.6178,0.0,0.0,0.0,1.7577,1.8019,1.8441,1.876,0.0,0.0,0.0,0.0,0.0,0.0,0.0,2.1069,2.2025,2.2735,2.2799,2.2534,2.2462,2.2775,2.3099,2.3412,2.3725,0.0,2.3839,2.3839,2.3839,2.3839,2.3839,2.3839,2.3833,2.4037,2.4482,2.4776,2.4572,2.4731,2.4853,2.4673,2.4641,2.4705,2.495,2.3714,2.2668,2.2761,2.2784,2.2898,2.3299,2.3392,2.3742,1.9883,1.9492,1.9492,1.9443,1.9346,1.9375,1.9385,1.9385,1.9355,1.9336,1.9336,1.9297,1.9277,1.9277,1.9277,0.0,1.9277,1.9277,1.9268,1.9277,1.9277,1.9277,1.9277,1.9277,1.9277,1.9277,1.9326,1.9355,1.9394,1.96,2.0121,2.0843,2.0359,2.036,2.0917,2.0907,2.1538,2.2763,2.2,2.2366,2.3749,2.3244,2.2687,2.2282,2.2209,2.2197,2.2197,2.2197,2.2197,2.2197,2.2197,2.1969,2.1488,0.0,0.0,0.0,0.0,0.0,0.0,0.0,0.0,0.0,0.0,0.0,0.0,0.0,0.0,0.0,1.8366,0.0,1.8731,1.9203,0.0,0.0,0.0,2.0544,2.0544,2.1608,2.2318,2.2318,0.0,0.0,2.3821,2.3869,2.3893,2.3893,2.3857,2.3845,2.3893,2.3929,2.3893,2.3953,2.3917,2.3893,2.4001,2.3977,2.4121,2.4518,2.4999,2.5363,2.5573,2.5607,2.5711,2.5959,2.6041,2.6179,2.6756,2.6312,2.5903,2.5243,2.4963,2.495,2.504,2.4743,2.4648,2.165,2.126,2.1269,2.0693,1.9805,2.0127,2.0264,2.0234,1.9902,1.9766,1.9746,1.9434,1.9277,1.9277,1.9277,1.9277,1.9277,1.9277,1.9277,1.9277,1.9277,1.9277,1.9277,1.9277,1.9277,1.9307,1.9619,1.9941,2.0273,2.0615,2.1095,2.164,2.2117,2.1873,2.0889,2.0349,2.042,2.1107,2.1376,2.2286,2.3694,2.2697,2.2368,2.2787,2.239,2.2197,2.2197,2.2197,2.2197,2.2197,2.2197,2.2137,2.2005,2.15,0.0,0.0,0.0,0.0,0.0,0.0,0.0,0.0,0.0,1.7301,1.7826,0.0,1.857,0.0,1.9234,1.9713,2.0076,2.022,0.0,0.0,2.1176,2.1752,2.1752,2.2751,2.3388,2.3388,2.3965,2.435,2.435,2.4699,2.4939,2.4939,2.459,2.4482,2.4867,2.4939,2.4939,2.4927,2.4927,2.4939,2.4939,2.4939,2.4987,2.5095,2.524,2.5533,2.6102,2.6226,2.6435,2.696,2.7144,2.7197,2.7392,2.7573,2.7803,2.7584,2.6893,2.6399,2.6894,2.7163,2.7546,2.2266,2.1904,2.209,2.1738,2.1074,2.1133,2.1152,2.1133,2.0898,2.0791,2.0771,2.0547,2.0439,2.0449,2.0439,2.0439,2.0449,2.0449,2.0439,2.0439,2.0449,2.0439,2.0439,2.0439,2.0449,2.0449,2.0684,2.0918,2.1232,2.1789,2.2423,2.2991,2.3535,2.3487,2.3007,2.2583,2.2731,2.3318,2.3466,2.356,2.3635,2.325,2.3136,2.3328,2.2823,2.2546,2.2546,2.2306,2.2197,2.2197,2.2197,2.2197,2.2185,2.1692,2.1272,0.0,0.0,0.0,0.0,0.0,0.0,0.0,0.0,0.0,0.0,0.0,1.972,1.972,1.9961,2.0261,2.0586,2.1031,2.1296,2.1296,2.2246,2.2895,2.2895,2.3616,2.4097,2.4109,2.4554,2.4867,2.4879,2.5324,2.5661,2.5673,2.5624,2.5516,2.5336,2.5312,2.5384,2.5612,2.5661,2.59,2.6382,2.6574,2.6646,2.6976,2.7118,2.7328,2.8023,2.8173,2.8447,2.9134,2.928,2.928,2.9294,2.9545,2.9738,2.9357,2.8876,2.837,2.8071,2.8069,2.826,2.2461,2.2168,2.2461,2.2588,2.2559,2.2197,2.2051,2.2041,2.1992,2.1934,2.1894,2.1894,2.1894,2.1894,2.1894,2.1894,2.1894,2.1894,2.1894,2.1894,2.1894,2.1894,2.1894,2.1894,2.1894,2.1894,2.1934,2.2046,2.2211,2.2972,2.3794,2.4596,2.4744,2.5217,2.5865,2.6008,2.6282,2.6772,2.6296,2.5277,2.3827,2.4234,2.4302,2.3869,2.3352,2.3039,2.2979,2.2534,2.2258,2.2197,2.2197,2.2197,2.2185,2.1765,2.1476,0.0,2.0971,0.0,0.0,0.0,0.0,0.0,0.0,0.0,0.0,2.0598,2.067,2.0791,2.0791,2.0839,2.1007,2.1849,2.2402,2.2426,2.3268,2.3869,2.3881,2.4374,2.4723,2.4723,2.5192,2.5516,2.5552,2.5925,2.6202,2.6226,2.6538,2.649,2.5757,2.5588,2.5757,2.6154,2.6202,2.6566,2.7628,2.7996,2.8274,2.9002,2.9091,2.9535,3.0092,3.0256,3.0555,3.123,3.1321,3.1349,3.1485,3.1443,3.126,3.074,3.0549,3.009,2.8977,2.8336,2.7999,2.3496,2.3408,2.3125,2.3018,2.3008,2.2939,2.29,2.2871,2.2539,2.2207,2.1894,2.1894,2.1894,2.1894,2.1894,2.1894,2.1894,2.1894,2.1894,2.1894,2.1894,2.1894,2.1894,2.1894,2.1894,2.1914,2.2236,2.272,2.3442,2.398,2.4661,2.5557,2.6307,2.6725,2.6979,0.0,0.0,0.0,2.5863,2.5803,2.5564,2.4753,2.4357,2.4374,2.3881,0.0,2.3003,2.2883,2.263,2.2221,2.2197,0.0,0.0,0.0,0.0,0.0,0.0,0.0,0.0,0.0,0.0,0.0,2.1789,2.1428,2.0682,2.061,2.0971,2.1801,2.1885,2.2246,2.3087,2.334,2.3538,2.3496,2.4013,2.4386,2.441,2.5216,2.5793,2.5805,2.6286,2.661,2.6586,2.6731,2.6779,2.6779,2.6875,2.6851,2.6671,2.6598,2.6647,2.6755,2.6791,2.7101,2.7974,2.817,2.8656,2.9041,2.9311,2.9631,3.0309,3.0501,3.0692,3.1394,3.1485,3.1513,3.1513,3.1485,3.158,3.15,3.1457,3.1118,2.9799,2.9484,2.9435,2.4596,2.3959,2.3732,2.3428,0.0,2.3144,2.3144,2.3125,2.291,2.2705,2.25,2.251,2.25,2.25,2.25,2.251,2.251,2.251,2.251,2.25,2.25,2.25,2.251,2.25,2.25,2.2519,2.3133,2.3734,2.4157,2.5303,2.608,2.6494,2.7418,2.7846,2.7846,2.8259,2.7707,2.6127,2.65,2.6479,2.5946,2.5432,2.5229,2.5276,2.4542,0.0,0.0,0.0,0.0,0.0,0.0,0.0,0.0,2.2197,0.0,2.1825,2.1801,2.1801,2.1789,2.1801,2.2029,2.2546,2.2823,2.2642,2.1837,2.1777,2.2113,2.2883,2.2967,2.3183,2.3701,2.3989,2.4133,2.4181,2.4843,2.53,2.5372,2.6009,2.6502,2.6526,2.6743,2.6923,2.6947,2.7176,2.732,2.7344,2.7548,2.7693,2.7657,2.7248,2.7007,2.7284,2.7931,2.8586,2.931,2.9887,3.0309,3.105,3.1276,3.143,3.1792,3.1861,3.1944,3.2316,3.2398,3.2384,3.2398,3.2398,3.23,3.2139,3.2122,3.1957,3.1084,3.087,3.0885,2.572,2.4615,2.4366,2.3811,2.3135,2.3144,2.3135,2.3144,0.0,0.0,0.0,2.3144,2.3144,2.3144,2.3144,2.3144,2.3144,2.3144,2.3144,2.3144,2.3144,2.3144,2.3144,2.3144,2.3222,2.3387,2.4166,2.4669,2.4999,2.6505,2.7267,2.7522,2.8191,2.851,2.851,2.851,2.7965,2.6895,2.7376,2.7103,2.6116,2.6143,2.6202,2.6093,2.5252,2.4711,2.4518,2.3713,2.3207,2.3111,2.2702,2.2462,2.2474,2.239,2.2366,2.2462,2.239,2.2378,2.2462,2.2462,2.2654,2.3099,2.352,2.358,2.3147,2.3123,2.334,2.3857,2.3905,2.3941,2.4037,2.4506,2.4795,2.4807,2.5673,2.6238,2.6274,2.6731,2.7079,2.7079,2.7176,2.7212,2.7272,2.7609,2.7861,2.7909,2.8174,2.851,2.8414,2.7789,2.744,2.7813,2.8737,2.9872,3.0719,3.1422,3.239,3.2918,3.3171,3.3312,3.3312,3.3312,3.3312,3.3213,3.3312,3.3269,3.3297,3.3227,3.3143,3.2734,3.2772,3.2819,3.2534,3.2442,3.2356,2.678,2.6136,2.4913,2.4077,2.3416,2.3406,2.3329,2.3144,2.3144,2.3144,2.3144,2.3144,2.3144,2.3144,2.3144,2.3144,2.3144,2.3144,2.3144,2.3144,2.3144,2.3144,2.3144,2.3144,2.357,2.4241,2.4413,2.5337,2.6682,2.7092,2.7592,2.8259,2.8431,2.851,2.851,2.851,2.8395,2.8219,2.771,2.7448,2.7442,2.6852,2.6426,2.6117,2.5949,2.5432,2.4554,2.4374,2.4097,2.3676,2.3592,2.3544,2.3532,2.3111,2.3075,2.3484,2.3123,2.3063,2.3508,2.3556,2.358,2.3652,2.3737,2.3803,2.3664,2.3664,2.3869,2.435,2.4446,2.4602,2.5047,2.5552,2.5841,2.5889,2.643,2.6803,2.6815,2.7296,2.7621,2.7621,2.8017,2.8246,2.821,2.8294,2.8354,2.839,2.8438,2.851,2.8486,2.8402,2.8318,2.8457,2.9123,2.9999,3.0895,3.1563,3.239,3.3157,3.3312,3.3312,3.3312,3.3312,3.3312,3.3312,3.3312,3.3312,3.3312,3.3312,3.3395,3.3476,3.3599,3.3693,3.3792,3.3888,3.3613,2.8869,2.7833,2.6434,2.5461,2.4753,2.4028,2.3493,2.3319,2.3329,2.3232,2.3144,2.3144,2.3144,2.3144,2.3144,2.3144,2.3144,2.3144,2.3144,2.3144,2.3144,2.3144,2.3135,2.3637,2.4069,2.4584,2.5505,2.6434,2.7185,2.7684,2.8087,2.851,2.851,2.851,2.851,2.851,2.851,2.851,2.8191,2.8059,2.8138,2.7555,2.7083,2.6971,2.643,2.5889,2.5384,2.4831,2.441,2.4181,2.3917,2.3839,2.3827,2.3544,2.352,2.3749,2.3544,2.3508,2.3749,2.4025,2.4181,2.4181,2.4446,2.4735,2.5011,2.4506,2.4518,2.5276,2.5372,2.5588,2.6129,2.6406,2.655,2.655,2.7043,2.7356,2.7416,2.7825,2.8138,2.8162,2.8354,2.851,2.851,2.851,2.851,2.851,2.851,2.851,2.851,2.851,2.8657,2.9184,3.0228,3.1044,3.1489,3.2245,3.286,3.3241,3.3312,3.3312,3.3312,3.3312,3.3312,3.3312,3.3312,3.3312,3.3312,3.3396,3.3536,3.3675,3.3951,3.4074,3.4196,3.4346,3.4196,3.059,2.9259,2.7932,2.6835,2.5765,2.4405,2.3754,2.358,2.359,2.3406,2.3232,2.3135,2.3144,2.3144,2.3144,2.3144,2.3144,2.3144,2.3144,2.3144,2.3144,2.3144,2.3135,2.381,2.4423,2.4914,2.6257,2.7092,2.751,2.8179,2.851,2.851,2.851,2.851,2.851,2.851,2.851,2.851,2.851,2.851,2.8498,2.8102,2.7849,2.7669,2.6911,2.6418,2.625,2.5372,2.4867,2.4855,2.4398,2.4109,2.4177,2.4001,2.3989,2.4085,2.4001,2.4049,2.4302,2.465,2.4927,2.5059,2.5444,2.5841,2.6154,2.5552,2.5384,2.6142,2.6262,2.6454,2.6815,2.7043,2.7103,2.714,2.7584,2.7885,2.7933,2.827,2.851,2.851,2.851,2.851,2.851,2.851,2.851,2.851,2.851,2.851,2.8498,2.8736,2.9328,2.9922,3.1044,3.1783,3.2087,3.2789,3.3171,3.3312,3.3312,3.3312,3.3312,3.3312,3.3312,3.3312,3.3312,3.3312,3.3312,3.3396,3.355,3.3675,3.3882,3.4074,3.4196,3.4278,3.4399,3.0949,2.9904,2.8958,2.7413,2.5529,2.4358,2.3841,2.3754,2.3754,2.3667,2.3406,2.3232,2.3144,2.3144,2.3144,2.3144,2.3144,2.3144,2.3144,2.3144,2.3144,2.3144,2.3144,2.3222,2.4059,2.5484,2.5986,2.6917,2.8259,2.8431,2.851,2.851,2.851,2.851,2.851,2.851,2.851,2.851,2.851,2.851,2.851,2.8462,2.821,2.7729,2.7633,2.7344,2.6863,2.6262,2.5949,2.5913,2.5444,2.5168,2.5131,2.4723,2.4675,2.5107,2.4735,2.4855,2.5757,2.5925,2.6142,2.6659,2.6671,2.6767,2.6839,2.668,2.6731,2.6875,2.6875,2.6899,2.6959,2.7368,2.7645,2.7669,2.8089,2.8426,2.8414,2.8486,2.851,2.851,2.851,2.851,2.851,2.851,2.851,2.851,2.851,2.859,2.8736,2.9549,3.0456,3.067,3.1044,3.1415,3.2074,3.2775,3.3241,3.3312,3.3312,3.3312,3.3312,3.3312,3.3312,3.3312,3.3312,3.3312,3.3312,3.3326,3.3466,3.3744,3.3965,3.402,3.4278,3.4414,3.4414,3.2278,3.1748,3.0541,2.8517,2.6289,2.5296,2.4594,2.4024,2.4024,2.3851,2.3503,2.3416,2.3232,2.3135,2.3144,2.3144,2.3144,2.3144,2.3144,2.3144,2.3144,2.3396,2.3897,2.4488,2.54,2.6588,2.7162,2.7742,2.8351,2.851,2.851,2.851,2.851,2.851,2.851,2.851,2.851,2.851,2.851,2.851,2.851,2.851,2.8402,2.8186,2.7885,2.7633,2.738,2.6875,2.6586,2.6574,2.6382,2.6262,2.6274,2.6057,2.6033,2.6238,2.6081,2.6129,2.6562,2.6586,2.6683,2.6911,2.6923,2.7055,2.7368,2.7392,2.7512,2.7777,2.7572,2.7512,2.7813,2.8065,2.8186,2.8222,2.839,2.851,2.851,2.851,2.851,2.851,2.851,2.851,2.851,2.851,2.851,2.851,2.851,2.8669,2.9184,2.9768,3.0519,3.1341,3.1636,3.1942,3.2618,3.3016,3.3241,3.3312,3.3312,3.3312,3.3312,3.3312,3.3312,3.3312,3.3312,3.3312,3.3312,3.3536,3.3744,3.3965,3.4088,3.4225,3.4346,3.4414,3.4414,3.3106,3.2596,3.1015,2.9125,2.7156,2.6075,2.52,2.4533,2.4344,2.4034,2.3764,2.3677,2.3493,2.3232,2.3144,2.3144,2.3144,2.3144,2.3144,2.3144,2.3309,2.381,2.4584,2.5411,2.6329,2.7185,2.7765,2.8259,2.8431,2.851,2.851,2.851,2.851,2.851,2.851,2.851,2.851,2.851,2.851,2.851,2.851,2.851,2.851,2.8474,2.815,2.7945,2.7921,2.744,2.7152,2.7152,2.7007,2.6923,2.6923,2.6923,2.6923,2.6923,2.6923,2.7007,2.714,2.7152,2.7212,2.7344,2.7368,2.7536,2.7837,2.7933,2.8102,2.8378,2.8174,2.8114,2.8426,2.851,2.851,2.851,2.851,2.851,2.851,2.851,2.851,2.851,2.851,2.851,2.851,2.851,2.851,2.851,2.8736,2.8949,2.9626,3.0075,3.0895,3.1928,3.2232,3.2618,3.3171,3.3312,3.3312,3.3312,3.3312,3.3312,3.3312,3.3312,3.3312,3.3312,3.3312,3.3312,3.3312,3.3536,3.3813,3.3965,3.4157,3.4346,3.4414,3.4414,3.4414,3.3244,3.1988,2.9768,2.8872,2.8402,2.6302,2.5269,2.5042,2.464,2.4368,2.411,2.412,2.3937,2.3503,2.3232,2.3144,2.3144,2.3144,2.3144,2.3135,2.3907,2.4413,2.4584,2.5411,2.6246,2.7185,2.7441,2.7846,2.851,2.851,2.851,2.851,2.851,2.851,2.851,2.851,2.851,2.851,2.851,2.851,2.851,2.851,2.851,2.851,2.8474,2.8438,2.839,2.7957,2.7681,2.7681,2.726,2.6971,2.6884,2.6896,2.6995,2.6983,2.6971,2.7188,2.7609,2.7681,2.7861,2.8294,2.8306,2.8414,2.8378,2.8402,2.8426,2.851,2.8462,2.845,2.8498,2.851,2.851,2.851,2.851,2.851,2.851,2.851,2.851,2.851,2.851,2.851,2.851,2.851,2.851,2.8657,2.9106,2.9549,2.9858,3.0895,3.1709,3.216,3.2618,3.3241,3.3312,3.3312,3.3312,3.3312,3.3312,3.3312,3.3312,3.3312,3.3312,3.3312,3.3312,3.3312,3.3312,3.3396,3.3605,3.3813,3.4142,3.4346,3.4414,3.4414,3.4414,3.3458,3.2632,3.1441,3.0262,2.9045,2.7592,2.6325,2.5181,2.4747,2.4378,2.4206,2.4196,2.4024,2.3667,2.3503,2.3232,2.3144,2.3144,2.3144,2.3144,2.3474,2.4231,2.5326,2.5652,2.6257,2.7185,2.7765,2.8179,2.8431,2.851,2.851,2.851,2.851,2.851,2.851,2.851,2.851,2.851,2.851,2.851,2.851,2.851,2.851,2.851,2.851,2.851,2.851,2.833,2.8234,2.8234,2.8029,2.7945,2.7945,2.7945,2.7945,2.7945,2.7933,2.8017,2.8186,2.8222,2.8306,2.8474,2.851,2.851,2.851,2.851,2.851,2.851,2.851,2.851,2.851,2.851,2.851,2.851,2.851,2.851,2.851,2.851,2.851,2.851,2.851,2.851,2.851,2.851,2.851,2.851,2.8816,2.9184,2.9781,3.067,3.1636,3.2074,3.2775,3.3312,3.3312,3.3312,3.3312,3.3312,3.3312,3.3312,3.3312,3.3312,3.3312,3.3312,3.3312,3.3312,3.3312,3.3466,3.3605,3.3868,3.421,3.4346,3.4346,3.4414,3.4414,3.342,3.3043,3.2288,3.1158,2.9616,2.8327,2.6987,2.5554,2.4871,2.4537,2.4456,2.4354,2.411,2.3937,2.3764,2.3503,2.3232,2.3144,2.3144,2.3135,2.3396,2.4241,2.5326,2.5997,2.6577,2.7255,2.8099,2.8582,2.8727,2.8595,2.8595,2.8763,2.8607,2.851,2.851,2.851,2.851,2.851,2.851,2.851,2.851,2.851,2.851,2.851,2.851,2.851,2.851,2.851,2.851,2.851,2.851,2.851,2.851,2.851,2.851,2.851,2.8498,2.851,2.851,2.851,2.851,2.851,2.851,2.851,2.851,2.851,2.851,2.851,2.851,2.851,2.851,2.851,2.851,2.851,2.851,2.851,2.851,2.851,2.851,2.851,2.851,2.851,2.851,2.851,2.851,2.851,2.8882,2.9549,3.0075,3.1044,3.1796,3.239,3.2945,3.3241,3.3312,3.3312,3.3312,3.3312,3.3312,3.3312,3.3312,3.3312,3.3312,3.3312,3.3312,3.3312,3.3396,3.3536,3.3744,3.4005,3.421,3.4346,3.4346,3.4414,3.4414,3.3093,3.2982,3.2077,3.111,2.9975,2.8277,2.7097,2.6256,2.5109,2.4712,2.4898,2.4629,2.4368,2.4196,2.412,2.3937,2.359,2.3232,2.3135,2.3135,2.3907,2.4327,2.4669,2.608,2.6928,2.7196,2.803,2.8614,2.8949,2.8626,2.8638,2.9018,2.8647,2.8467,2.8455,2.8467,2.851,2.851,2.851,2.851,2.851,2.851,2.851,2.851,2.851,2.851,2.851,2.851,2.851,2.851,2.851,2.851,2.851,2.851,2.851,2.851,2.851,2.851,2.851,2.851,2.851,2.851,2.851,2.851,2.851,2.851,2.851,2.851,2.851,2.851,2.851,2.851,2.851,2.851,2.851,2.851,2.851,2.851,2.851,2.851,2.851,2.851,2.851,2.851,2.851,2.8736,2.9471,3.0291,3.0519,3.1649,3.286,3.3157,3.3171,3.3241,3.3312,3.3312,3.3312,3.3312,3.3312,3.3312,3.3312,3.3312,3.3312,3.3312,3.3312,3.3312,3.3326,3.3466,3.3689,3.3951,3.4157,3.4278,3.4346,3.4414,3.4414,3.3081,3.3081,3.2797,3.1713,3.018,2.9181,2.7865,2.6121,2.5295,2.4933,2.4757,2.4602,2.4454,2.4368,2.4282,2.411,2.3947,2.359,2.3319,2.3222,2.3396,2.3907,2.4498,2.5084,2.6019,2.6903,2.6422,2.6802,2.7754,2.794,2.7877,2.7542,2.8197,2.83,2.8058,2.8369,2.851,2.851,2.851,2.851,2.851,2.851,2.851,2.851,2.851,2.851,2.851,2.851,2.851,2.851,2.851,2.851,2.851,2.851,2.851,2.851,2.851,2.851,2.851,2.851,2.851,2.851,2.851,2.851,2.851,2.851,2.851,2.851,2.851,2.851,2.851,2.851,2.851,2.851,2.851,2.851,2.851,2.851,2.851,2.851,2.851,2.851,2.851,2.851,2.851,2.851,2.9028,2.9549,3.0139,3.1119,3.1869,3.2318,3.2704,3.3241,3.3312,3.3312,3.3312,3.3312,3.3312,3.3312,3.3312,3.3312,3.3312,3.3312,3.3312,3.3326,3.3326,3.348,3.3689,3.3827,3.402,3.4157,3.4346,3.4414,3.4414,3.3081,3.3081,3.3081,3.2164,3.0629,2.97,2.8388,2.6865,2.5633,2.5244,2.5233,2.4943,2.4702,2.4681,2.445,2.4282,2.411,2.3764,2.3493,2.3232,2.3144,2.3484,2.4024,2.4512,2.5424,2.6612,2.6239,2.64,2.742,2.7521,2.7334,2.7216,2.7531,2.7764,2.7756,2.7953,2.8099,2.8431,2.851,2.851,2.851,2.851,2.851,2.851,2.851,2.851,2.851,2.851,2.851,2.851,2.851,2.851,2.851,2.851,2.851,2.851,2.851,2.851,2.851,2.851,2.851,2.851,2.851,2.851,2.851,2.851,2.851,2.851,2.851,2.851,2.851,2.851,2.851,2.851,2.851,2.851,2.851,2.851,2.851,2.851,2.851,2.851,2.851,2.851,2.851,2.851,2.8724,2.9028,2.9704,3.0443,3.118,3.1856,3.239,3.286,3.3241,3.3312,3.3312,3.3312,3.3312,3.3312,3.3312,3.3312,3.3312,3.3312,3.3312,3.3396,3.3396,3.3466,3.3605,3.3744,3.3882,3.4074,3.4264,3.4346,3.4414,3.3081,3.3081,3.3081,3.2438,3.124,2.9666,2.8678,2.8034,2.6267,2.5761,2.6123,2.5502,2.5192,2.5109,2.465,2.4368,2.4196,2.3937,2.3667,2.3493,2.3232,2.3222,2.3349,2.4291,2.533,2.6292,2.6592,2.709,2.7388,2.7225,2.7233,2.736,2.6911,2.696,2.7408,2.7364,2.7522,2.8125,2.8307,2.8351,2.8351,2.851,2.851,2.851,2.851,2.851,2.851,2.851,2.851,2.851,2.851,2.851,2.851,2.851,2.851,2.851,2.851,2.851,2.851,2.851,2.851,2.851,2.851,2.851,2.851,2.851,2.851,2.851,2.851,2.851,2.851,2.851,2.851,2.851,2.851,2.851,2.851,2.851,2.851,2.851,2.851,2.851,2.851,2.851,2.851,2.859,2.9028,2.9328,2.9781,3.0367,3.118,3.1783,3.2318,3.2775,3.3241,3.3312,3.3312,3.3312,3.3312,3.3312,3.3312,3.3312,3.3312,3.3312,3.3312,3.3396,3.3466,3.3466,3.3605,3.3813,3.3951,3.4059,3.4196,3.4346,3.4414,3.3081,3.3081,3.3081,3.2164,3.0598,2.9938,2.8778,2.7178,2.6576,2.6134,2.6009,2.5482,2.5264,2.5181,2.4757,2.4454,2.4282,2.4013,2.3754,2.3667,2.3319,2.3144,2.3223,2.3841,2.4652,2.544,2.5665,2.587,2.6323,2.6522,2.6311,2.5855,2.661,2.6797,2.68,2.6725,2.6823,2.706,2.7416,2.751,2.7592,2.8179,2.851,2.851,2.851,2.851,2.851,2.851,2.851,2.851,2.851,2.851,2.851,2.851,2.851,2.851,2.851,2.851,2.851,2.851,2.851,2.851,2.851,2.851,2.851,2.851,2.851,2.851,2.851,2.851,2.851,2.851,2.851,2.851,2.851,2.851,2.851,2.851,2.851,2.851,2.851,2.851,2.851,2.851,2.851,2.851,2.8736,2.9106,2.9704,3.0215,3.0957,3.1942,3.2547,3.2931,3.3241,3.3241,3.3312,3.3312,3.3312,3.3312,3.3312,3.3312,3.3312,3.3312,3.3312,3.3396,3.3396,3.348,3.3689,3.3813,3.3937,3.4059,3.4278,3.4414,3.4414,3.3081,3.3068,3.2624,3.1801,3.0687,2.967,2.8536,2.7551,2.6827,2.6558,2.632,2.5771,2.5502,2.544,2.485,2.455,2.4454,2.4013,2.3951,2.4075,2.3791,2.3496,2.3389,2.3721,2.4226,2.4615,2.5115,2.5417,2.5591,2.5862,2.5789,2.5559,2.5992,2.6196,2.6183,2.5999,2.6012,2.6234,2.6462,2.6588,2.667,2.708,2.7592,2.7834,2.7926,2.8099,2.8431,2.851,2.851,2.851,2.851,2.851,2.851,2.851,2.851,2.851,2.851,2.851,2.851,2.851,2.851,2.851,2.851,2.851,2.851,2.851,2.851,2.851,2.851,2.851,2.851,2.851,2.851,2.851,2.851,2.851,2.851,2.851,2.851,2.851,2.851,2.851,2.851,2.851,2.851,2.851,2.851,2.904,2.9561,3.0152,3.0807,3.1783,3.239,3.2704,3.31,3.3241,3.3241,3.3241,3.3312,3.3312,3.3312,3.3312,3.3312,3.3312,3.3312,3.3326,3.3396,3.3466,3.3605,3.3744,3.3937,3.4074,3.421,3.4414,3.4414,3.3081,3.2995,3.2164,3.1713,3.1187,2.9263,2.8547,2.8397,2.7294,2.6868,2.6941,2.631,2.5968,2.5885,2.5088,2.4664,2.4629,2.4196,2.4233,2.4287,2.4264,2.3994,2.3555,2.416,2.4398,2.4431,2.5215,2.54,2.5444,2.5594,2.5654,2.5508,2.5281,2.5351,2.5564,2.5255,2.5246,2.5573,2.5602,2.5663,2.583,2.6163,2.667,2.6999,2.7348,2.7592,2.8099,2.8419,2.851,2.851,2.851,2.851,2.851,2.851,2.851,2.851,2.851,2.851,2.851,2.851,2.851,2.851,2.851,2.851,2.851,2.851,2.851,2.851,2.851,2.851,2.851,2.851,2.851,2.851,2.851,2.851,2.851,2.851,2.851,2.851,2.851,2.851,2.851,2.851,2.851,2.851,2.851,2.8736,2.9263,2.9704,3.0519,3.1549,3.2015,3.2318,3.2775,3.3171,3.3241,3.3227,3.3241,3.3312,3.3312,3.3312,3.3312,3.3312,3.3312,3.3326,3.3466,3.3536,3.3605,3.3675,3.3868,3.4005,3.4074,3.4278,3.4414,3.3081,3.3068,3.2896,3.2351,3.1424,3.0235,2.934,2.8609,2.761,2.7148,2.7107,2.6651,2.6403,2.6351,2.5471,2.5254,2.5351,2.4733,2.4426,2.4431,2.4438,2.4355,2.4228,2.4697,2.4844,2.4902,2.5381,2.5644,2.5566,2.5371,2.541,2.5596,2.5068,2.4947,2.5451,2.4715,2.4296,2.4655,2.4774,2.4744,2.5073,2.6008,2.6423,2.6329,2.6846,2.7255,2.7603,2.8179,2.851,2.851,2.851,2.851,2.851,2.851,2.851,2.851,2.851,2.851,2.851,2.851,2.851,2.851,2.851,2.851,2.851,2.851,2.851,2.851,2.851,2.851,2.851,2.851,2.851,2.851,2.851,2.851,2.851,2.851,2.851,2.851,2.851,2.851,2.851,2.851,2.851,2.851,2.851,2.8578,2.8961,2.9406,3.038,3.1476,3.1709,3.2087,3.286,3.3171,3.3171,3.3241,3.3241,3.3312,3.3312,3.3312,3.3312,3.3312,3.3312,3.3396,3.3396,3.3536,3.3605,3.3744,3.3868,3.4005,3.4128,3.4278,3.4414,3.3081,3.3081,3.2612,3.1801,3.089,2.9909,2.8899,2.8081,2.7536,2.7272,2.7107,2.6568,2.6372,2.6455,2.5492,2.5233,2.5692,2.5351,2.4844,2.4643,2.4775,2.4932,2.4814,2.5068,2.5244,2.4971,2.5439,2.5615,2.5439,2.5391,2.542,2.54,2.4912,2.4824,2.5,2.4248,2.4036,2.4006,2.3929,2.381,2.4069,2.4659,2.5757,2.5913,2.667,2.7174,2.7255,2.8018,2.8179,2.8099,2.8271,2.851,2.851,2.851,2.851,2.851,2.851,2.851,2.851,2.851,2.851,2.851,2.851,2.851,2.851,2.851,2.851,2.851,2.851,2.851,2.851,2.851,2.851,2.851,2.851,2.851,2.851,2.851,2.851,2.851,2.851,2.851,2.851,2.851,2.851,2.851,2.851,2.8578,2.9172,2.9704,3.0443,3.1267,3.1489,3.2028,3.286,3.3171,3.31,3.3171,3.3312,3.3312,3.3312,3.3312,3.3312,3.3312,3.3312,3.3312,3.3396,3.3466,3.3605,3.3675,3.3799,3.3922,3.4128,3.4196,3.4346,3.3081,3.3081,3.2176,3.127,3.0351,2.9452,2.8549,2.7631,2.7357,2.7272,2.7117,2.6341,2.6361,2.633,2.5306,2.5202,2.5542,2.5878,2.5461,2.4863,2.5332,2.5391,2.5312,2.543,2.54,2.4766,2.5381,2.5498,2.5303,2.5332,2.5234,2.5068,2.4863,2.4834,2.456,2.4062,2.3935,2.4163,2.3595,2.331,2.3408,2.364,2.4402,2.5326,2.608,2.667,2.6917,2.7592,2.8007,2.751,2.8099,2.8431,2.851,2.851,2.851,2.851,2.851,2.851,2.851,2.851,2.851,2.851,2.851,2.851,2.851,2.851,2.851,2.851,2.851,2.851,2.851,2.851,2.851,2.851,2.851,2.851,2.851,2.851,2.851,2.851,2.851,2.851,2.851,2.851,2.851,2.851,2.851,2.8657,2.925,2.9704,3.0304,3.0745,3.097,3.1267,3.2028,3.2775,3.2789,3.286,3.3016,3.3171,3.3171,3.3312,3.3312,3.3312,3.3312,3.3312,3.3326,3.3396,3.3536,3.3605,3.3744,3.3937,3.4059,3.4128,3.4264,3.3081,3.3081,3.2896,3.2264,3.1258,3.0351,2.9349,2.8445,2.7631,2.7251,2.7158,2.6703,2.6641,2.6641,2.5709,2.5183,2.5402,2.5832,2.5958,2.5496,2.5654,2.5576,2.5625,2.5644,2.5605,2.5596,2.5693,2.5488,2.5078,2.4814,2.4941,2.4883,2.4434,2.4434,2.4795,2.4492,2.4121,2.4375,2.373,2.3369,2.3575,2.3914,2.4241,2.4819,2.5158,2.5495,2.608,2.6928,2.7684,2.8179,2.8419,2.8431,2.8431,2.8431,2.8431,2.851,2.851,2.851,2.851,2.851,2.851,2.851,2.851,2.851,2.851,2.851,2.851,2.851,2.851,2.851,2.851,2.851,2.851,2.851,2.851,2.851,2.851,2.851,2.851,2.851,2.851,2.851,2.851,2.851,2.851,2.851,2.851,2.851,2.8816,2.9184,2.9484,2.9935,3.0304,3.0594,3.1044,3.1783,3.216,3.2318,3.2475,3.286,3.2945,3.3241,3.3241,3.286,3.3016,3.3241,3.3326,3.3326,3.3396,3.3536,3.3744,3.3951,3.4005,3.4074,3.4264,3.3081,3.3081,3.3081,3.2537,3.1536,3.0621,2.9624,2.8631,2.7715,2.7117,2.6817,2.6455,2.6475,2.6444,2.5482,2.4989,2.5402,2.5802,2.6074,2.5828,2.5614,2.5547,2.5703,2.5732,2.5732,2.5723,2.5703,2.5488,2.5127,2.5156,2.4824,2.4385,2.4131,2.4365,2.4521,2.4121,2.417,2.4404,2.3945,2.3545,2.3721,2.3877,2.3927,2.4413,2.4498,2.4754,2.5168,2.5997,2.6423,2.6505,2.6835,2.7336,2.7684,2.7938,2.8018,2.8351,2.851,2.851,2.851,2.851,2.851,2.851,2.851,2.851,2.851,2.851,2.851,2.851,2.851,2.851,2.851,2.851,2.851,2.851,2.851,2.851,2.851,2.851,2.851,2.851,2.851,2.851,2.851,2.851,2.851,2.851,2.851,2.851,2.851,2.8736,2.904,2.9704,3.0228,3.0519,3.0745,3.118,3.1476,3.1636,3.1869,3.2187,3.2331,3.2475,3.2259,3.1882,3.2259,3.2874,3.3086,3.3016,3.3241,3.3466,3.3675,3.3882,3.402,3.4088,3.4278,3.3081,3.3081,3.3081,3.2525,3.1536,3.08,2.9806,2.8702,2.7787,2.7181,2.6527,2.6051,2.6061,2.6196,2.5678,2.516,2.5412,2.5561,2.5834,2.5737,2.5506,2.5449,2.5644,2.5732,2.5732,2.5723,2.5557,2.542,2.5156,2.5166,2.4766,2.4336,2.4277,2.4219,2.4014,2.3926,2.4092,2.4141,2.3906,2.3672,2.3564,2.334,2.3396,2.4155,2.4241,2.4241,2.4669,2.5158,2.5411,2.5411,2.5663,2.6163,2.6846,2.7103,2.7522,2.8099,2.8339,2.851,2.851,2.851,2.851,2.851,2.851,2.851,2.851,2.851,2.851,2.851,2.851,2.851,2.851,2.851,2.851,2.851,2.851,2.851,2.851,2.851,2.851,2.851,2.851,2.851,2.851,2.851,2.851,2.851,2.851,2.851,2.851,2.851,2.8882,2.9626,3.0215,3.0519,3.0657,3.0745,3.0895,3.0745,3.1044,3.1429,3.1489,3.1563,3.1267,3.1119,3.1723,3.2259,3.2489,3.2632,3.2775,3.3002,3.3521,3.3744,3.3646,3.3922,3.4128,3.3081,3.3081,3.3081,3.2525,3.1725,3.1448,3.0351,2.874,2.8104,2.7441,2.6413,2.5751,2.5782,2.6196,2.6351,2.5603,2.5199,2.5329,2.5471,2.5336,2.5342,2.5498,2.5713,2.5732,2.5684,2.5615,2.5332,2.5156,2.498,2.4775,2.4541,2.4219,2.3984,2.3955,2.4053,2.3887,2.4014,2.4189,2.3643,2.3262,2.3242,2.3086,2.3232,2.3309,2.3387,2.3637,2.4155,2.4573,2.4744,2.5411,2.5568,2.583,2.608,2.6764,2.7103,2.751,2.8007,2.851,2.8431,2.8431,2.8431,2.8351,2.8431,2.851,2.851,2.851,2.851,2.851,2.851,2.851,2.851,2.851,2.851,2.851,2.851,2.851,2.851,2.851,2.851,2.851,2.851,2.851,2.851,2.851,2.851,2.851,2.851,2.8498,2.851,2.851,2.859,2.925,2.9626,2.9922,2.9999,3.0152,3.0114,2.9897,3.0126,3.0581,3.0594,3.0519,3.0506,3.0594,3.1119,3.1188,3.0948,3.1256,3.1888,3.239,3.2761,3.2988,3.3129,3.3479,3.3948,3.3081,3.3081,3.3081,3.2884,3.2438,3.1901,3.0625,2.9195,2.8363,2.7158,2.5913,2.5451,2.5337,2.5564,2.5815,2.5562,2.4885,2.4856,2.4973,2.4893,2.5055,2.5166,2.5381,2.5576,2.5644,2.5361,2.5156,2.4922,2.4727,2.4492,2.4248,2.3769,2.376,2.3691,2.3828,2.3779,2.3877,2.3916,2.3691,2.3389,2.3125,2.2979,2.2979,2.2969,2.2969,2.3222,2.3484,2.3647,2.382,2.4231,2.4231,2.4563,2.4999,2.5505,2.5841,2.6412,2.6741,2.7162,2.7684,2.8179,2.8179,2.8018,2.8179,2.851,2.851,2.851,2.851,2.851,2.851,2.851,2.851,2.851,2.851,2.851,2.851,2.851,2.851,2.851,2.851,2.851,2.851,2.851,2.851,2.851,2.851,2.8498,2.845,2.839,2.845,2.851,2.859,2.8816,2.904,2.9263,2.9184,2.9184,2.9164,2.9008,2.9032,2.9344,2.9549,2.9549,2.9528,2.9655,2.9961,2.9847,2.9505,3.016,3.1122,3.1569,3.1869,3.1951,3.2116,3.3003,3.3435,3.2654,3.2679,3.2955,3.2907,3.2512,3.1695,3.0496,2.8888,2.801,2.6708,2.5555,2.5223,2.4985,2.4712,2.5071,2.5125,2.455,2.4286,2.4415,2.45,2.4653,2.4824,2.5117,2.5391,2.5381,2.5039,2.4736,2.4609,2.4453,2.416,2.374,2.3301,2.3516,2.3457,2.333,2.3329,2.3524,2.3504,2.3485,2.33,2.3106,2.2891,2.2803,2.2803,2.2706,2.2706,2.2715,2.2882,2.2969,2.3057,2.3047,2.3387,2.3887,2.4317,2.4744,2.5231,2.5557,2.5891,2.6412,2.6917,2.7418,2.7672,2.7926,2.851,2.851,2.851,2.851,2.851,2.851,2.851,2.851,2.851,2.851,2.851,2.851,2.851,2.851,2.851,2.851,2.851,2.851,2.851,2.851,2.851,2.851,2.8486,2.8414,2.8282,2.821,2.8186,2.8156,2.8191,2.8464,2.8528,2.8268,2.8198,2.8192,2.8198,2.821,2.8204,2.837,2.8476,2.8418,2.8577,2.8876,2.8528,2.8198,2.9315,3.0384,3.0099,3.0051,3.0586,3.1074,3.1938,3.2765,3.1512,3.1599,3.2641,3.229,3.1137,3.0977,2.9706,2.7843,2.715,2.627,2.5171,2.5192,2.4836,2.4681,2.4615,2.452,2.3931,2.4058,2.4196,2.4438,2.4785,2.4834,2.4961,2.499,2.5049,2.4844,2.4424,2.4238,2.4141,2.3643,2.3574,2.3662,2.3389,2.3223,2.3086,2.3076,2.3036,2.3036,2.3026,2.3086,2.2979,2.2882,2.2715,2.2715,2.253,2.2432,2.2432,2.253,2.253,2.253,2.253,2.253,2.295,2.3454,2.3887,2.4049,2.4553,2.4628,2.4723,2.5568,2.6412,2.7174,2.7846,2.8179,2.8167,2.8431,2.851,2.8431,2.8431,2.8431,2.851,2.851,2.8431,2.851,2.851,2.851,2.851,2.851,2.851,2.851,2.851,2.851,2.8402,2.8378,2.8282,2.8246,2.7873,2.7729,2.7476,2.7404,2.7284,2.7339,2.7792,2.7767,2.733,2.73,2.7694,2.7589,2.75,2.7368,2.7288,2.7351,2.7609,2.756,2.7682,2.7276,2.7107,2.8077,2.8598,2.8125,2.8308,2.9186,2.9758,3.0414,3.1335,3.1248,3.1285,3.1793,3.1735,3.119,3.119,2.9869,2.7986,2.7589,2.6398,2.4819,2.4712,2.4619,2.4385,2.4145,2.4032,2.361,2.3457,2.3604,2.3711,2.4023,2.4248,2.4346,2.4502,2.4531,2.4297,2.3916,2.3643,2.3525,2.3281,2.3262,2.3271,2.3125,2.2998,2.2891,2.2803,2.2803,2.2803,2.2803,2.2794,2.2618,2.2451,2.2362,2.2353,2.2274,2.2185,2.2264,2.2353,2.2353,2.2353,2.2353,2.2353,2.2353,2.2775,2.294,2.295,2.3454,2.328,2.3454,2.4372,2.5557,2.5891,2.6648,2.7313,2.7406,2.7765,2.8042,2.8122,2.8179,2.8087,2.8259,2.8339,2.8351,2.8431,2.8419,2.8419,2.8431,2.851,2.851,2.851,2.851,2.851,2.8354,2.8198,2.8089,2.7957,2.7536,2.714,2.6875,2.6731,2.6659,2.6647,2.7042,2.725,2.6757,2.6928,2.7249,2.6976,2.6803,2.6731,2.6659,2.6935,2.7131,2.6935,2.6779,2.6683,2.6685,2.698,2.7127,2.7115,2.7471,2.8122,2.8592,2.8937,2.9797,3.0518,3.0518,3.0399,3.0486,3.0716,3.0483,2.9249,2.7497,2.6937,2.6116,2.455,2.4454,2.4378,2.4196,2.3937,2.3687,2.3503,2.3271,2.3252,2.3477,2.3721,2.3779,2.3896,2.4014,2.4111,2.3809,2.3623,2.3437,2.3467,2.3232,2.3096,2.2998,2.2969,2.2882,2.2803,2.2627,2.2618,2.2627,2.2539,2.2618,2.2353,2.2185,2.2106,2.2097,2.2008,2.2008,2.2008,2.2087,2.2176,2.2176,2.2176,2.2176,2.2176,2.2176,2.2176,2.2167,2.2167,2.2176,2.2599,2.3617,2.4628,2.4882,2.563,2.5975,2.6235,2.667,2.6846,2.6928,2.708,2.7418,2.758,2.7672,2.8087,2.8167,2.8419,2.8431,2.851,2.851,2.851,2.851,2.8498,2.8438,2.7897,2.7633,2.7248,2.714,2.6911,2.6514,2.6214,2.6129,2.619,2.6178,2.6275,2.6359,2.6394,2.6347,2.6372,2.6263,2.6117,2.6214,2.6274,2.6502,2.649,2.6226,2.6117,2.6178,2.6202,2.6239,2.6287,2.6298,2.6712,2.7148,2.7167,2.7525,2.826,2.9217,2.8998,2.8375,2.8581,2.9244,2.8444,2.7334,2.6034,2.5179,2.4677,2.4464,2.4454,2.4378,2.411,2.3841,2.3667,2.3406,2.3242,2.3281,2.3564,2.3603,2.373,2.374,2.376,2.375,2.3682,2.3477,2.3408,2.3643,2.3222,2.2998,2.2803,2.2803,2.2794,2.2715,2.2362,2.2185,2.2097,2.2185,2.2274,2.2264,2.2097,2.2008,2.2008,2.1919,2.183,2.183,2.183,2.1909,2.182,2.182,2.182,2.182,2.182,2.182,2.182,2.182,2.1731,2.182,2.3105,2.3617,2.378,2.4447,2.4946,2.5041,2.5221,2.5473,2.5735,2.5546,2.5975,2.64,2.6905,2.7499,2.8007,2.8259,2.8339,2.8339,2.8431,2.8431,2.851,2.8462,2.8282,2.7584,2.6983,2.6442,2.6214,2.6142,2.5937,2.5673,2.5648,2.5769,2.5793,2.5817,2.5817,2.5841,2.5588,2.5456,2.542,2.5516,2.5709,2.5721,2.5769,2.5673,2.5492,2.5576,2.5745,2.5576,2.5384,2.5624,2.5841,2.5791,2.5932,2.5893,2.6165,2.7012,2.8882,2.8882,2.8712,2.8491,2.8219,2.7403,2.6462,2.5516,2.4594,2.4013,2.4024,2.4013,2.3937,2.3764,2.3667,2.3503,2.3232,2.3232,2.3301,2.334,2.3389,2.335,2.3369,2.3408,2.3379,2.333,2.3184,2.3184,2.332,2.3018,2.2901,2.2794,2.2441,2.2451,2.2441,2.2264,2.2097,2.2106,2.2097,2.2097,2.1919,2.1919,2.183,2.182,2.1731,2.1731,2.1731,2.1731,2.1731,2.1731,2.1731,2.1731,2.1731,2.1731,2.1731,2.1731,2.1731,2.1731,2.1741,2.2255,2.2344,2.2765,2.327,2.377,2.377,2.4382,2.4553,2.4638,2.4617,2.5221,2.6174,2.634,2.6846,2.7696,2.803,2.8018,2.8087,2.8259,2.8259,2.8431,2.8474,2.7909,2.7248,2.6598,2.6033,2.5745,2.5721,2.5673,2.5456,2.542,2.548,2.5456,2.5456,2.5396,2.5312,2.5312,2.5312,2.536,2.5372,2.542,2.536,2.5312,2.5336,2.5408,2.536,2.5312,2.5312,2.5312,2.5312,2.5348,2.5394,2.5465,2.5572,2.5667,2.5951,2.8566,2.8235,2.8063,2.7476,2.6812,2.6565,2.5902,2.4904,2.4176,2.3841,2.3841,2.3841,2.3677,2.359,2.3503,2.3329,2.3144,2.3144,2.3144,2.3144,2.3144,2.3174,2.3164,2.3047,2.3193,2.3057,2.3047,2.3067,2.3008,2.2901,2.2715,2.2353,2.1802,2.1535,2.1624,2.1722,2.1919,2.1919,2.1919,2.1919,2.182,2.1731,2.1731,2.1731,2.1731,2.1731,2.1731,2.1642,2.1642,2.1642,2.1642,2.1642,2.1731,2.1731,2.1731,2.1731,2.1731,2.1731,2.1741,2.1741,2.1909,2.1909,2.2334,2.2589,2.2668,2.3115,2.328,2.3454,2.378,2.4382,2.5073,2.5242,2.6174,2.6928,2.7615,2.7603,2.7857,2.7938,2.8075,2.8247,2.8047,2.7447,2.6812,2.6274,2.5661,2.5492,2.5336,2.5312,2.5312,2.5312,2.5312,2.5312,2.5312,2.5312,2.5312,2.5312,2.5312,2.5312,2.5312,2.5312,2.5312,2.5312,2.5312,2.5312,2.5312,2.5312,2.5312,2.5312,2.5312,2.5312,2.5312,2.5312,2.5312,2.5382,2.5535,2.8007,2.7092,2.6246,2.5579,2.5073,2.5819,2.5326,2.3841,2.3744,2.3754,2.3754,2.3754,2.358,2.3503,2.3493,2.3319,2.3144,2.3144,2.3144,2.3144,2.3144,2.3047,2.296,2.2862,2.2775,2.2872,2.2872,2.2687,2.2706,2.2069,2.1891,2.1633,2.0718,2.0439,2.0529,2.0808,2.1186,2.1096,2.1087,2.1186,2.1275,2.1454,2.1365,2.1365,2.1365,2.1266,2.1186,2.1186,2.1365,2.1454,2.1562,2.1651,2.1651,2.1731,2.1731,2.1731,2.1731,2.1731,2.1731,2.1731,2.1731,2.1731,2.1731,2.1731,2.1909,2.2167,2.2255,2.2255,2.2413,2.2833,2.3347,2.4286,2.5136,2.608,2.694,2.7278,2.7545,2.7684,2.781,2.777,2.7454,2.6871,2.6306,2.5757,2.5362,2.5337,2.5241,2.5312,2.5312,2.5312,2.5312,2.5312,2.5312,2.5312,2.5312,2.5312,2.5312,2.5312,2.5312,2.5312,2.5312,2.5312,2.5312,2.5312,2.5312,2.5312,2.5312,2.5312,2.5312,2.5312,2.5312,2.5312,2.5312,2.5312,2.5382,2.8007,2.7174,2.6917,2.5913,2.4659,2.4231,2.3734,2.3309,2.3319,2.3319,2.3319,2.3309,2.3319,2.3232,2.3222,2.3144,2.3144,2.3144,2.3144,2.3144,2.3047,2.2687,2.2325,2.2236,2.2138,2.2148,2.2059,2.1961,2.1498,2.0953,2.024,1.9613,1.953,1.9247,1.9347,1.953,1.9621,1.9704,1.9803,2.0257,2.0538,2.0718,2.0718,2.0709,2.0718,2.0439,2.0076,1.9894,2.0076,2.0628,2.0718,2.0898,2.1731,2.1731,2.1731,2.1731,2.1731,2.1731,2.1731,2.1731,2.1731,2.1731,2.1731,2.1731,2.1731,2.1731,2.1731,2.1731,2.1731,2.2246,2.2843,2.3607,2.4286,2.4978,2.5819,2.6389,2.6719,2.7059,2.7129,2.7058,2.6677,2.6292,2.573,2.5336,2.5064,2.5135,2.517,2.5182,2.5253,2.5241,2.5312,2.5312,2.5312,2.5312,2.5312,2.5312,2.5312,2.5312,2.5312,2.5312,2.5312,2.5312,2.5312,2.5312,2.5312,2.5312,2.5312,2.5312,2.5312,2.5312,2.5312,2.5312,2.5312,2.5312,2.5312,2.6713,2.5864,2.5665,2.4887,2.372,2.314,2.2969,2.3115,2.3144,2.3144,2.3144,2.3144,2.3144,2.3144,2.3135,2.3144,2.3144,2.3144,2.3144,2.3144,2.3047,2.2862,2.2325,2.1784,2.1784,2.1606,2.115,2.0782,2.0314,1.9679,1.8964,1.888,1.8519,1.8249,1.8156,1.787,1.7591,1.7956,1.8419,1.9063,1.943,1.9704,1.9704,1.9695,1.9704,1.9247,1.888,1.8696,1.9155,1.9613,1.9704,1.9886,2.0538,2.0538,2.0538,2.0447,2.0907,2.0997,2.1087,2.1553,2.1642,2.1731,2.1731,2.1731,2.1731,2.1731,2.1731,2.1731,2.1731,2.19,2.2413,2.2931,2.3357,2.3887,2.4607,2.523,2.5738,2.6155,2.62,2.6252,2.5948,2.5624,2.5297,2.4954,2.4801,2.4921,2.4992,2.4992,2.5123,2.5182,2.5241,2.5312,2.5312,2.5312,2.5312,2.5312,2.5312,2.5312,2.5312,2.5312,2.5312,2.5312,2.5312,2.5312,2.5312,2.5312,2.5312,2.5312,2.5312,2.5241,2.517,2.5241,2.5241,2.5312,2.5312,2.4658,2.3805,2.3237,2.295,2.2516,2.2461,2.2685,2.3076,2.3047,2.3105,2.3125,2.3144,2.3144,2.3144,2.3144,2.3144,2.3144,2.3144,2.296,2.296,2.2784,2.2501,2.1774,2.1784,2.0872,2.0782,2.0421,1.9596,1.9247,1.8603,1.8048,1.8519,1.7692,1.7232,1.7044,1.6574,1.6386,1.6567,1.7404,1.8234,1.8511,1.8696,1.8696,1.8696,1.8696,1.8519,1.8511,1.8511,1.8603,1.8603,1.8696,1.8696,1.8972,1.9072,1.9063,1.9155,1.9886,2.0257,2.0628,2.1087,2.1454,2.1642,2.1731,2.1731,2.1731,2.1731,2.1731,2.1731,2.1731,2.1731,2.2069,2.2394,2.2726,2.3132,2.3614,2.42,2.4652,2.5209,2.5686,2.5652,2.5378,2.5005,2.4903,2.4574,2.4646,2.4718,2.479,2.479,2.4933,2.5052,2.5182,2.5241,2.5253,2.5253,2.5312,2.5312,2.5312,2.5312,2.5241,2.5312,2.5312,2.5312,2.5312,2.5312,2.5312,2.5312,2.5312,2.5312,2.5158,2.4945,2.4945,2.5016,2.5087,2.5016,2.5241,2.4175,2.3298,2.2563,2.2119,2.2031,2.2031,2.2275,2.2646,2.2666,2.2832,2.3086,2.3125,2.3144,2.3144,2.3144,2.3047,2.3047,2.2872,2.2599,2.2236,2.2059,2.1329,1.996,1.9786,1.933,1.8864,1.8495,1.8319,1.7956,1.7217,1.6567,1.6567,1.6292,1.6298,1.6298,1.5832,1.5825,1.5825,1.6386,1.7225,1.7598,1.7699,1.7699,1.7692,1.7692,1.7225,1.703,1.6662,1.7037,1.7505,1.7598,1.8064,1.8696,1.8703,1.8796,1.888,1.8964,1.943,1.9886,2.0439,2.0808,2.1454,2.1642,2.1642,2.1731,2.1731,2.1731,2.1731,2.1731,2.1731,2.1713,2.1943,2.2036,2.238,2.2683,2.3142,2.3573,2.4279,2.4971,2.4826,2.459,2.448,2.433,2.4357,2.4429,2.449,2.4562,2.4634,2.4718,2.4849,2.4909,2.504,2.5123,2.5182,2.5253,2.5241,2.5182,2.517,2.5158,2.517,2.5241,2.4945,2.4791,2.517,2.5312,2.5016,2.4945,2.5229,2.5087,2.4719,2.442,2.442,2.4264,2.412,2.4707,2.2763,2.2271,2.1609,2.1416,2.1582,2.1592,2.1846,2.2187,2.2236,2.2363,2.2646,2.2939,2.3135,2.3135,2.3144,2.2775,2.2599,2.2511,2.1784,2.1239,2.0791,2.024,1.9247,1.8427,1.8319,1.8033,1.7404,1.7037,1.685,1.6386,1.592,1.5825,1.5825,1.5825,1.5825,1.5825,1.5825,1.5825,1.5825,1.6109,1.6676,1.6676,1.6676,1.6676,1.648,1.6204,1.6109,1.5825,1.6109,1.6487,1.6574,1.6763,1.7217,1.7311,1.7404,1.7498,1.7777,1.8419,1.8972,1.9521,2.0076,2.0718,2.1087,2.0898,2.1642,2.1731,2.1731,2.1731,2.1731,2.1731,2.163,2.1664,2.1577,2.1652,2.2022,2.2541,2.2783,2.3094,2.333,2.3221,2.3121,2.3312,2.3287,2.3593,2.3751,2.4345,2.4345,2.4345,2.449,2.4502,2.4562,2.4611,2.4611,2.4838,2.4992,2.5052,2.504,2.5028,2.4945,2.4504,2.4204,2.4204,2.4204,2.4432,2.4432,2.4131,2.4204,2.4492,2.4636,2.4337,2.3975,2.361,2.3452,2.3305,2.3756,2.1143,2.1084,2.0742,2.0791,2.1123,2.1152,2.1396,2.1758,2.1714,2.1671,2.1762,2.2208,2.2679,2.2969,2.2872,2.2325,2.1872,2.1516,2.0872,2.015,1.9786,1.9055,1.8603,1.8141,1.7677,1.721,1.6669,1.6292,1.6015,1.5825,1.5825,1.5825,1.5825,1.5825,1.5825,1.5825,1.5825,1.5825,1.5825,1.5825,1.5825,1.5825,1.592,1.592,1.5825,1.5825,1.5825,1.5825,1.5825,1.5825,1.6015,1.6109,1.6109,1.6292,1.6197,1.6386,1.6756,1.7225,1.7692,1.8241,1.9063,1.9795,1.9977,2.0439,2.1177,2.1454,2.1454,2.1642,2.1642,2.1615,2.1514,2.1401,2.1209,2.1068,2.1489,2.1897,2.2015,2.2102,2.1987,2.1863,2.2004,2.222,2.2456,2.2767,2.3213,2.3813,2.4116,2.4116,2.4116,2.397,2.3959,2.3875,2.3717,2.4105,2.4634,2.4706,2.4754,2.4754,2.4587,2.3768,2.3243,2.3379,2.3379,2.3327,2.3254,2.3316,2.3316,2.3475,2.361,2.3672,2.3231,2.2798,2.2638,2.2563,2.2723,2.0684,2.0674,2.0596,2.0635,2.0693,2.0703,2.0937,2.1157,2.0599,2.043,2.068,2.0331,2.0784,2.2561,2.2124,2.1569,2.1141,2.0631,1.9687,1.8888,1.8511,1.7777,1.7318,1.7131,1.6574,1.6298,1.6109,1.592,1.5825,1.5825,1.5825,1.5825,1.5825,1.5825,1.5825,1.5825,1.5825,1.5825,1.5825,1.5825,1.5825,1.5825,1.5825,1.5825,1.5825,1.5825,1.5825,1.5825,1.5825,1.5825,1.5825,1.5825,1.5825,1.5825,1.5825,1.5825,1.6204,1.6574,1.7044,1.7326,1.8149,1.888,1.9155,1.9521,2.0076,2.0529,2.0808,2.1454,2.1553,2.1642,2.1514,2.1264,2.1007,2.0643,2.0799,2.1214,2.147,2.1543,2.1568,2.1538,2.1603,2.1756,2.1832,2.2145,2.2381,2.2905,2.3213,2.3287,2.3666,2.3519,2.3298,2.3128,2.2968,2.3655,2.4406,2.4334,2.4322,2.4394,2.4009,2.3021,2.2563,2.2702,2.2702,2.2424,2.266,2.2872,2.2798,2.251,2.2574,2.2649,2.2274,2.1983,2.1821,2.1745,2.1983]}]]